[[{"header":{"parameterUnit":"m.s-1","parameterCategory":1,"la1":31.0,"la2":29.5877,"lo1":-88.7671,"lo2":-86.6584,"dy":0.0162,"dx":0.0185,"nx":115,"ny":88,"refTime":"2024-04-20T12:00:00:Z","depth":0,"parameterNumber":2,"parameterNumberName":"U-component_of_WINDS"},"data":[0.0,0.0,0.0,0.0,0.0,0.0,0.0,0.0,0.0,0.0,0.0,0.0,0.0,0.0,0.0,0.0,0.0,0.0,0.0,0.0,0.0,0.0,0.0,0.0,0.0,0.0,0.0,0.0,0.0,0.0,0.0,0.0,0.0,0.0,0.0,0.0,0.0,0.0,0.0,0.0,0.0,0.0,0.0,0.0,0.0,0.0,0.0,0.0,0.0,0.0,0.0,0.0,0.0,0.0,0.0,0.0,0.0,0.0,0.0,0.0,0.0,0.0,0.0,0.0,0.0,0.0,0.0,0.0,0.0,0.0,0.0,0.0,0.0,0.0,0.0,0.0,0.0,0.0,0.0,0.0,0.0,0.0,0.0,0.0,0.0,0.0,0.0,0.0,0.0,0.0,0.0,0.0,0.0,0.0,0.0,0.0,0.0,0.0,0.0,0.0,0.0,0.0,0.0,0.0,0.0,0.0,0.0,0.0,0.0,0.0,0.0,0.0,0.0,0.0,0.0,0.0,0.0,0.0,0.0,0.0,0.0,0.0,0.0,0.0,0.0,0.0,0.0,0.0,0.0,0.0,0.0,0.0,0.0,0.0,0.0,0.0,0.0,0.0,0.0,0.0,0.0,0.0,0.0,0.0,0.0,0.0,0.0,0.0,0.0,0.0,0.0,0.0,0.0,0.0,0.0,0.0,0.0,0.0,0.0,0.0,0.0,0.0,0.0,0.0,0.0,0.0,0.0,0.0,0.0,0.0,0.0,0.0,0.0,0.0,0.0,0.0,0.0,0.0,0.0,0.0,0.0,0.0,0.0,0.0,0.0,0.0,0.0,0.0,0.0,0.0,0.0,0.0,0.0,0.0,0.0,0.0,0.0,0.0,0.0,0.0,0.0,0.0,0.0,0.0,0.0,0.0,0.0,0.0,0.0,0.0,0.0,0.0,0.0,0.0,0.0,0.0,0.0,0.0,0.0,0.0,0.0,0.0,0.0,0.0,0.0,0.0,0.0,0.0,0.0,0.0,0.0,0.0,0.0,0.0,0.0,0.0,0.0,0.0,0.0,0.0,0.0,0.0,0.0,0.0,0.0,0.0,0.0,0.0,0.0,0.0,0.0,0.0,0.0,0.0,0.0,0.0,0.0,0.0,0.0,0.0,0.0,0.0,0.0,0.0,0.0,0.0,0.0,0.0,0.0,0.0,0.0,0.0,0.0,0.0,0.0,0.0,0.0,0.0,0.0,0.0,0.0,0.0,0.0,0.0,0.0,0.0,0.0,0.0,0.0,0.0,0.0,0.0,0.0,0.0,0.0,0.0,0.0,0.0,0.0,0.0,0.0,0.0,0.0,0.0,0.0,0.0,0.0,0.0,0.0,0.0,0.0,0.0,0.0,0.0,0.0,0.0,0.0,0.0,0.0,0.0,0.0,0.0,0.0,0.0,0.0,0.0,0.0,0.0,0.0,0.0,0.0,0.0,0.0,0.0,0.0,0.0,0.0,0.0,0.0,0.0,0.0,0.0,0.0,0.0,0.0,0.0,0.0,0.0,0.0,0.0,0.0,0.0,0.0,0.0,0.0,0.0,0.0,0.0,0.0,0.0,0.0,0.0,0.0,0.0,0.0,0.0,0.0,0.0,0.0,0.0,0.0,0.0,0.0,0.0,0.0,0.0,0.0,0.0,0.0,0.0,0.0,0.0,0.0,0.0,0.0,0.0,0.0,0.0,0.0,0.0,0.0,0.0,0.0,0.0,0.0,0.0,0.0,0.0,0.0,0.0,0.0,0.0,0.0,0.0,0.0,0.0,0.0,0.0,0.0,0.0,0.0,0.0,0.0,0.0,0.0,0.0,0.0,0.0,0.0,0.0,0.0,0.0,0.0,0.0,0.0,0.0,0.0,0.0,0.0,0.0,0.0,0.0,0.0,0.0,0.0,0.0,0.0,0.0,0.0,0.0,0.0,0.0,0.0,0.0,0.0,0.0,0.0,0.0,0.0,0.0,0.0,0.0,0.0,0.0,0.0,0.0,0.0,0.0,0.0,0.0,0.0,0.0,0.0,0.0,0.0,0.0,0.0,0.0,0.0,0.0,0.0,0.0,0.0,0.0,0.0,0.0,0.0,0.0,0.0,0.0,0.0,0.0,0.0,0.0,0.0,0.0,0.0,0.0,0.0,0.0,0.0,0.0,0.0,0.0,0.0,0.0,0.0,0.0,0.0,0.0,0.0,0.0,0.0,0.0,0.0,0.0,0.0,0.0,0.0,0.0,0.0,0.0,0.0,0.0,0.0,0.0,0.0,0.0,0.0,0.0,0.0,0.0,0.0,0.0,0.0,0.0,0.0,0.0,0.0,0.0,0.0,0.0,0.0,0.0,0.0,0.0,0.0,0.0,0.0,0.0,0.0,0.0,0.0,0.0,0.0,0.0,0.0,0.0,0.0,0.0,0.0,0.0,0.0,0.0,0.0,0.0,0.0,0.0,0.0,0.0,0.0,0.0,0.0,0.0,0.0,0.0,0.0,0.0,0.0,0.0,0.0,0.0,0.0,0.0,0.0,0.0,0.0,0.0,0.0,0.0,0.0,0.0,0.0,0.0,0.0,0.0,0.0,0.0,0.0,0.0,0.0,0.0,0.0,0.0,0.0,0.0,0.0,0.0,0.0,0.0,0.0,0.0,0.0,0.0,0.0,0.0,0.0,0.0,0.0,0.0,0.0,0.0,0.0,0.0,0.0,0.0,0.0,0.0,0.0,0.0,0.0,0.0,0.0,0.0,0.0,0.0,0.0,0.0,0.0,0.0,0.0,0.0,0.0,0.0,0.0,0.0,0.0,0.0,0.0,0.0,0.0,0.0,0.0,0.0,0.0,0.0,0.0,0.0,0.0,0.0,0.0,0.0,0.0,0.0,0.0,0.0,0.0,0.0,0.0,0.0,0.0,0.0,0.0,0.0,0.0,0.0,0.0,0.0,0.0,0.0,0.0,0.0,0.0,0.0,0.0,0.0,0.0,0.0,0.0,0.0,0.0,0.0,0.0,0.0,0.0,0.0,0.0,0.0,0.0,0.0,0.0,0.0,0.0,0.0,0.0,0.0,0.0,0.0,0.0,0.0,0.0,0.0,0.0,0.0,0.0,0.0,0.0,0.0,0.0,0.0,0.0,0.0,0.0,0.0,0.0,0.0,0.0,0.0,0.0,0.0,0.0,0.0,0.0,0.0,0.0,0.0,0.0,0.0,0.0,0.0,0.0,0.0,0.0,0.0,0.0,0.0,0.0,0.0,0.0,0.0,0.0,0.0,0.0,0.0,0.0,0.0,0.0,0.0,0.0,0.0,0.0,0.0,0.0,0.0,0.0,0.0,0.0,0.0,0.0,0.0,0.0,0.0,0.0,0.0,0.0,0.0,0.0,0.0,0.0,0.0,0.0,0.0,0.0,0.0,0.0,0.0,0.0,0.0,0.0,0.0,0.0,0.0,0.0,0.0,0.0,0.0,0.0,0.0,0.0,0.0,0.0,0.0,0.0,0.0,0.0,0.0,0.0,0.0,0.0,0.0,0.0,0.0,0.0,0.0,0.0,0.0,0.0,0.0,0.0,0.0,0.0,0.0,0.0,0.0,0.0,0.0,0.0,0.0,0.0,0.0,0.0,0.0,0.0,0.0,0.0,0.0,0.0,0.0,0.0,0.0,0.0,0.0,0.0,0.0,0.0,0.0,0.0,0.0,0.0,0.0,0.0,0.0,0.0,0.0,0.0,0.0,0.0,0.0,0.0,0.0,0.0,0.0,0.0,0.0,0.0,0.0,0.0,0.0,0.0,0.0,0.0,0.0,0.0,0.0,0.0,0.0,0.0,0.0,0.0,0.0,0.0,0.0,0.0,0.0,0.0,0.0,0.0,0.0,0.0,0.0,0.0,0.0,0.0,0.0,0.0,0.0,0.0,0.0,0.0,0.0,0.0,0.0,0.0,0.0,0.0,0.0,0.0,0.0,0.0,0.0,0.0,0.0,0.0,0.0,0.0,0.0,0.0,0.0,0.0,0.0,0.0,0.0,0.0,0.0,0.0,0.0,0.0,0.0,0.0,0.0,0.0,0.0,0.0,0.0,0.0,0.0,0.0,0.0,0.0,0.0,0.0,0.0,0.0,0.0,0.0,0.0,0.0,0.0,0.0,0.0,0.0,0.0,0.0,0.0,0.0,0.0,0.0,0.0,0.0,0.0,0.0,0.0,0.0,0.0,0.0,0.0,0.0,0.0,0.0,0.0,0.0,0.0,0.0,0.0,0.0,0.0,-3.9438,0.0,0.0,0.0,0.0,0.0,0.0,0.0,0.0,0.0,0.0,0.0,0.0,0.0,0.0,0.0,0.0,0.0,0.0,0.0,0.0,0.0,0.0,0.0,0.0,0.0,0.0,0.0,0.0,0.0,0.0,0.0,0.0,0.0,0.0,0.0,0.0,0.0,0.0,0.0,0.0,0.0,0.0,0.0,0.0,0.0,0.0,0.0,0.0,0.0,0.0,0.0,0.0,0.0,0.0,0.0,0.0,0.0,0.0,0.0,0.0,0.0,0.0,0.0,0.0,0.0,0.0,0.0,0.0,0.0,0.0,0.0,0.0,0.0,0.0,0.0,0.0,0.0,0.0,0.0,0.0,0.0,0.0,0.0,0.0,0.0,0.0,0.0,0.0,0.0,0.0,0.0,0.0,0.0,0.0,0.0,0.0,0.0,0.0,0.0,0.0,0.0,0.0,0.0,0.0,0.0,0.0,0.0,0.0,0.0,0.0,-3.8971,-3.9099,-3.9276,-3.9438,-3.9569,0.0,0.0,0.0,0.0,0.0,0.0,0.0,0.0,0.0,0.0,0.0,0.0,0.0,0.0,0.0,0.0,0.0,0.0,0.0,0.0,0.0,0.0,0.0,0.0,0.0,0.0,0.0,0.0,0.0,0.0,0.0,0.0,0.0,0.0,0.0,0.0,0.0,0.0,0.0,0.0,0.0,0.0,0.0,0.0,0.0,0.0,0.0,0.0,0.0,0.0,0.0,0.0,0.0,0.0,0.0,0.0,0.0,0.0,0.0,0.0,0.0,0.0,0.0,0.0,0.0,0.0,0.0,0.0,0.0,0.0,0.0,0.0,0.0,0.0,0.0,0.0,0.0,0.0,0.0,0.0,0.0,0.0,0.0,0.0,0.0,0.0,0.0,0.0,0.0,0.0,0.0,0.0,0.0,0.0,0.0,0.0,0.0,0.0,0.0,0.0,0.0,0.0,0.0,0.0,0.0,0.0,0.0,0.0,0.0,0.0,0.0,0.0,-3.945,-3.9634,-3.9701,0.0,0.0,0.0,0.0,0.0,0.0,0.0,0.0,0.0,0.0,0.0,0.0,0.0,0.0,0.0,0.0,0.0,0.0,0.0,0.0,0.0,0.0,0.0,0.0,0.0,0.0,0.0,0.0,0.0,0.0,0.0,0.0,0.0,0.0,0.0,0.0,0.0,0.0,0.0,0.0,0.0,0.0,0.0,0.0,0.0,0.0,0.0,0.0,0.0,0.0,0.0,0.0,0.0,0.0,0.0,0.0,0.0,0.0,0.0,0.0,0.0,0.0,0.0,0.0,0.0,0.0,0.0,0.0,0.0,0.0,0.0,0.0,0.0,0.0,0.0,0.0,0.0,0.0,0.0,0.0,0.0,0.0,0.0,0.0,0.0,0.0,0.0,0.0,0.0,0.0,0.0,0.0,0.0,0.0,0.0,0.0,0.0,0.0,0.0,0.0,0.0,0.0,0.0,0.0,0.0,0.0,0.0,0.0,0.0,0.0,-3.9013,-3.9541,-3.9587,0.0,-4.0022,0.0,0.0,0.0,0.0,0.0,0.0,0.0,0.0,0.0,0.0,0.0,0.0,0.0,0.0,0.0,0.0,0.0,0.0,0.0,0.0,0.0,0.0,0.0,0.0,0.0,0.0,0.0,0.0,0.0,0.0,0.0,0.0,0.0,0.0,0.0,0.0,0.0,0.0,0.0,0.0,0.0,0.0,0.0,0.0,0.0,0.0,0.0,0.0,0.0,0.0,0.0,0.0,0.0,0.0,0.0,0.0,0.0,0.0,0.0,0.0,0.0,0.0,0.0,0.0,0.0,0.0,0.0,0.0,0.0,0.0,0.0,0.0,0.0,0.0,0.0,0.0,0.0,0.0,0.0,0.0,0.0,0.0,0.0,0.0,0.0,0.0,0.0,0.0,0.0,0.0,0.0,0.0,0.0,0.0,0.0,0.0,0.0,0.0,0.0,0.0,0.0,0.0,0.0,0.0,0.0,0.0,0.0,0.0,0.0,0.0,-3.9648,-3.9891,-4.0053,-4.0184,0.0,0.0,0.0,0.0,0.0,0.0,0.0,0.0,0.0,0.0,0.0,0.0,0.0,0.0,0.0,0.0,0.0,0.0,0.0,0.0,0.0,0.0,0.0,0.0,0.0,0.0,0.0,0.0,0.0,0.0,0.0,0.0,0.0,0.0,0.0,0.0,0.0,0.0,0.0,0.0,0.0,0.0,0.0,0.0,0.0,0.0,0.0,0.0,0.0,0.0,0.0,0.0,0.0,0.0,0.0,0.0,0.0,0.0,0.0,0.0,0.0,0.0,0.0,0.0,0.0,0.0,0.0,0.0,0.0,0.0,0.0,0.0,0.0,0.0,0.0,0.0,0.0,0.0,0.0,0.0,0.0,0.0,0.0,0.0,0.0,0.0,0.0,0.0,0.0,0.0,0.0,0.0,0.0,0.0,0.0,0.0,0.0,0.0,0.0,0.0,0.0,0.0,0.0,0.0,0.0,0.0,0.0,0.0,0.0,0.0,-3.9576,-3.9912,-4.0101,-4.0364,-4.0496,-4.0496,0.0,0.0,0.0,0.0,0.0,0.0,0.0,0.0,0.0,0.0,0.0,0.0,0.0,0.0,0.0,0.0,0.0,0.0,0.0,0.0,0.0,0.0,0.0,0.0,0.0,0.0,0.0,0.0,0.0,0.0,0.0,0.0,0.0,0.0,0.0,0.0,0.0,0.0,0.0,0.0,0.0,0.0,0.0,0.0,0.0,0.0,0.0,0.0,0.0,0.0,0.0,0.0,0.0,0.0,0.0,0.0,0.0,0.0,0.0,0.0,0.0,0.0,0.0,0.0,0.0,0.0,0.0,0.0,0.0,0.0,0.0,0.0,0.0,0.0,0.0,0.0,0.0,0.0,0.0,0.0,0.0,0.0,0.0,0.0,0.0,0.0,0.0,0.0,0.0,0.0,0.0,0.0,0.0,0.0,0.0,0.0,0.0,0.0,0.0,0.0,0.0,0.0,0.0,0.0,0.0,0.0,0.0,0.0,-3.9099,-3.9165,-3.945,-4.0091,-4.0375,-4.0496,0.0,0.0,0.0,0.0,0.0,0.0,0.0,0.0,0.0,0.0,0.0,0.0,0.0,0.0,0.0,0.0,0.0,0.0,0.0,0.0,0.0,0.0,0.0,0.0,0.0,0.0,0.0,0.0,0.0,0.0,0.0,0.0,0.0,0.0,0.0,0.0,0.0,0.0,0.0,0.0,0.0,0.0,0.0,0.0,0.0,0.0,0.0,0.0,0.0,0.0,0.0,0.0,0.0,0.0,0.0,0.0,0.0,0.0,0.0,0.0,0.0,0.0,0.0,0.0,0.0,0.0,0.0,0.0,0.0,0.0,0.0,0.0,0.0,0.0,0.0,0.0,0.0,0.0,0.0,0.0,0.0,0.0,0.0,0.0,0.0,0.0,0.0,0.0,0.0,0.0,0.0,0.0,0.0,0.0,0.0,0.0,0.0,0.0,0.0,0.0,0.0,0.0,0.0,0.0,0.0,0.0,0.0,0.0,0.0,-3.9432,-3.9783,-4.011,-4.0347,-4.0457,-4.0496,0.0,0.0,0.0,0.0,0.0,0.0,0.0,0.0,0.0,0.0,0.0,0.0,0.0,0.0,0.0,0.0,0.0,0.0,0.0,0.0,0.0,0.0,0.0,0.0,0.0,0.0,0.0,0.0,0.0,0.0,0.0,0.0,0.0,0.0,0.0,0.0,0.0,0.0,0.0,0.0,0.0,0.0,0.0,0.0,0.0,0.0,0.0,0.0,0.0,0.0,0.0,0.0,0.0,0.0,0.0,0.0,0.0,0.0,0.0,0.0,0.0,0.0,0.0,0.0,0.0,0.0,0.0,0.0,0.0,0.0,0.0,0.0,0.0,0.0,0.0,0.0,0.0,0.0,0.0,0.0,0.0,0.0,0.0,0.0,0.0,0.0,0.0,0.0,0.0,0.0,0.0,0.0,0.0,0.0,0.0,0.0,0.0,0.0,0.0,0.0,0.0,0.0,0.0,0.0,0.0,0.0,0.0,0.0,0.0,-3.958,0.0,-4.0406,-4.0489,-4.0496,-4.0496,0.0,0.0,0.0,0.0,0.0,0.0,0.0,0.0,0.0,0.0,0.0,0.0,0.0,0.0,0.0,0.0,0.0,0.0,0.0,0.0,0.0,0.0,0.0,0.0,0.0,0.0,0.0,0.0,0.0,0.0,0.0,0.0,0.0,0.0,0.0,0.0,0.0,0.0,0.0,0.0,0.0,0.0,0.0,0.0,0.0,0.0,0.0,0.0,0.0,0.0,0.0,0.0,0.0,0.0,0.0,0.0,0.0,0.0,0.0,0.0,0.0,0.0,0.0,0.0,0.0,0.0,0.0,0.0,0.0,0.0,0.0,0.0,0.0,0.0,0.0,0.0,0.0,0.0,0.0,0.0,0.0,0.0,0.0,0.0,0.0,0.0,0.0,0.0,0.0,0.0,0.0,0.0,0.0,0.0,0.0,0.0,0.0,0.0,0.0,0.0,0.0,0.0,0.0,0.0,0.0,0.0,0.0,0.0,-3.898,-3.9587,-3.9951,-4.0251,-4.0489,-4.0496,-4.0496,0.0,0.0,0.0,0.0,0.0,0.0,0.0,0.0,0.0,0.0,0.0,0.0,0.0,0.0,0.0,0.0,0.0,0.0,0.0,0.0,0.0,0.0,0.0,0.0,0.0,0.0,0.0,0.0,0.0,0.0,0.0,0.0,0.0,0.0,0.0,0.0,0.0,0.0,0.0,0.0,0.0,0.0,0.0,0.0,0.0,0.0,0.0,0.0,0.0,0.0,0.0,0.0,0.0,0.0,0.0,0.0,0.0,0.0,0.0,0.0,0.0,0.0,0.0,0.0,0.0,0.0,0.0,0.0,0.0,0.0,0.0,0.0,0.0,0.0,0.0,0.0,0.0,0.0,0.0,0.0,0.0,0.0,0.0,0.0,0.0,0.0,0.0,0.0,0.0,0.0,0.0,0.0,0.0,0.0,0.0,0.0,0.0,0.0,0.0,0.0,0.0,0.0,0.0,0.0,0.0,0.0,0.0,0.0,0.0,-3.9587,-3.9922,-4.0223,-4.0481,-4.0496,-4.0496,0.0,0.0,0.0,0.0,0.0,0.0,0.0,0.0,0.0,0.0,0.0,0.0,0.0,0.0,0.0,0.0,0.0,0.0,0.0,0.0,0.0,0.0,0.0,0.0,0.0,0.0,0.0,0.0,0.0,0.0,0.0,0.0,0.0,0.0,0.0,0.0,0.0,0.0,0.0,0.0,0.0,0.0,0.0,0.0,0.0,0.0,0.0,0.0,0.0,0.0,0.0,0.0,0.0,0.0,0.0,0.0,0.0,0.0,0.0,0.0,0.0,0.0,0.0,0.0,0.0,0.0,0.0,0.0,0.0,0.0,0.0,0.0,0.0,0.0,0.0,0.0,0.0,0.0,0.0,0.0,0.0,0.0,0.0,0.0,0.0,0.0,0.0,0.0,0.0,0.0,0.0,0.0,0.0,0.0,0.0,0.0,0.0,0.0,0.0,0.0,0.0,0.0,0.0,0.0,0.0,0.0,0.0,0.0,0.0,-3.9389,-3.9742,-4.011,-4.0489,-4.0496,-4.0496,-4.0496,0.0,0.0,0.0,0.0,0.0,0.0,0.0,0.0,0.0,0.0,0.0,0.0,0.0,0.0,0.0,0.0,0.0,0.0,0.0,0.0,0.0,0.0,0.0,0.0,0.0,0.0,0.0,0.0,0.0,0.0,0.0,0.0,0.0,0.0,0.0,0.0,0.0,0.0,0.0,0.0,0.0,0.0,0.0,0.0,0.0,0.0,0.0,0.0,0.0,0.0,0.0,0.0,0.0,0.0,0.0,0.0,0.0,0.0,0.0,0.0,0.0,0.0,0.0,0.0,0.0,0.0,0.0,0.0,0.0,0.0,0.0,0.0,0.0,0.0,0.0,0.0,0.0,0.0,0.0,0.0,0.0,0.0,0.0,0.0,0.0,0.0,0.0,0.0,0.0,0.0,0.0,0.0,0.0,0.0,0.0,0.0,0.0,0.0,0.0,0.0,0.0,0.0,0.0,0.0,0.0,0.0,0.0,0.0,-3.908,-3.9401,-3.9863,-4.0446,-4.0489,-4.0496,0.0,0.0,0.0,0.0,0.0,0.0,0.0,0.0,0.0,0.0,0.0,0.0,0.0,0.0,0.0,0.0,0.0,0.0,0.0,0.0,0.0,0.0,0.0,0.0,0.0,0.0,0.0,0.0,0.0,0.0,0.0,0.0,0.0,0.0,0.0,0.0,0.0,0.0,0.0,0.0,0.0,0.0,0.0,0.0,0.0,0.0,0.0,0.0,0.0,0.0,0.0,0.0,0.0,0.0,0.0,0.0,0.0,0.0,0.0,0.0,0.0,0.0,0.0,0.0,0.0,0.0,0.0,0.0,0.0,0.0,0.0,0.0,0.0,0.0,0.0,0.0,0.0,0.0,0.0,0.0,0.0,0.0,0.0,0.0,0.0,0.0,0.0,0.0,0.0,0.0,0.0,0.0,0.0,0.0,0.0,0.0,0.0,0.0,0.0,0.0,0.0,0.0,0.0,0.0,0.0,0.0,0.0,0.0,0.0,-3.9099,-3.9173,-3.9534,-4.0186,-4.0389,-4.0496,0.0,0.0,0.0,0.0,0.0,0.0,0.0,0.0,0.0,0.0,0.0,0.0,0.0,0.0,0.0,0.0,0.0,0.0,0.0,0.0,0.0,0.0,0.0,0.0,0.0,0.0,0.0,0.0,0.0,0.0,0.0,0.0,0.0,0.0,0.0,0.0,0.0,0.0,0.0,0.0,0.0,0.0,0.0,0.0,0.0,0.0,0.0,0.0,0.0,0.0,0.0,0.0,0.0,0.0,0.0,0.0,0.0,0.0,0.0,0.0,0.0,0.0,0.0,0.0,0.0,0.0,0.0,0.0,0.0,0.0,0.0,0.0,0.0,0.0,0.0,0.0,0.0,0.0,0.0,0.0,0.0,0.0,0.0,0.0,0.0,0.0,0.0,0.0,0.0,0.0,0.0,0.0,0.0,0.0,0.0,0.0,0.0,0.0,0.0,0.0,0.0,0.0,0.0,0.0,0.0,0.0,0.0,0.0,-3.8758,-3.8919,-3.9049,-3.9276,-3.9687,-4.0101,-4.0339,0.0,0.0,0.0,0.0,0.0,0.0,0.0,0.0,0.0,0.0,0.0,0.0,0.0,0.0,0.0,0.0,0.0,0.0,0.0,0.0,0.0,0.0,0.0,0.0,0.0,0.0,0.0,0.0,0.0,0.0,0.0,0.0,0.0,0.0,0.0,0.0,0.0,0.0,0.0,0.0,0.0,0.0,0.0,0.0,0.0,0.0,0.0,0.0,0.0,0.0,0.0,0.0,0.0,0.0,0.0,0.0,0.0,0.0,0.0,0.0,0.0,0.0,0.0,0.0,0.0,0.0,0.0,0.0,0.0,0.0,0.0,0.0,0.0,0.0,0.0,0.0,0.0,0.0,0.0,0.0,0.0,0.0,0.0,0.0,0.0,0.0,0.0,0.0,0.0,0.0,0.0,0.0,0.0,0.0,0.0,0.0,0.0,0.0,0.0,0.0,0.0,0.0,0.0,0.0,0.0,0.0,0.0,0.0,-3.8707,-3.8707,-3.8919,-3.9063,-3.9072,-3.9709,-4.0071,0.0,0.0,0.0,0.0,0.0,0.0,0.0,0.0,0.0,0.0,0.0,0.0,0.0,0.0,0.0,0.0,0.0,0.0,0.0,0.0,0.0,0.0,0.0,0.0,0.0,0.0,0.0,0.0,0.0,0.0,0.0,0.0,0.0,0.0,0.0,0.0,0.0,0.0,0.0,0.0,0.0,0.0,0.0,0.0,0.0,0.0,0.0,0.0,0.0,0.0,0.0,0.0,0.0,0.0,0.0,0.0,0.0,0.0,0.0,0.0,0.0,0.0,0.0,0.0,0.0,0.0,0.0,0.0,0.0,0.0,0.0,0.0,0.0,0.0,0.0,0.0,0.0,0.0,0.0,0.0,0.0,0.0,0.0,0.0,0.0,0.0,0.0,0.0,0.0,0.0,0.0,0.0,0.0,0.0,0.0,0.0,0.0,0.0,0.0,0.0,0.0,0.0,0.0,0.0,0.0,0.0,0.0,0.0,-3.8707,-3.8707,-3.8762,-3.8773,-3.8807,-3.9389,-3.9838,0.0,0.0,0.0,0.0,0.0,0.0,0.0,0.0,0.0,0.0,0.0,0.0,0.0,0.0,0.0,0.0,0.0,0.0,0.0,0.0,0.0,0.0,0.0,0.0,0.0,0.0,0.0,0.0,0.0,0.0,0.0,0.0,0.0,0.0,0.0,0.0,0.0,0.0,0.0,0.0,0.0,0.0,0.0,0.0,0.0,0.0,0.0,0.0,-3.8707,0.0,0.0,0.0,0.0,0.0,0.0,0.0,0.0,0.0,0.0,0.0,0.0,0.0,0.0,0.0,0.0,0.0,0.0,0.0,0.0,0.0,0.0,0.0,0.0,0.0,0.0,0.0,0.0,0.0,0.0,0.0,0.0,0.0,0.0,0.0,0.0,0.0,0.0,0.0,0.0,0.0,0.0,0.0,0.0,0.0,0.0,0.0,0.0,0.0,0.0,0.0,0.0,0.0,0.0,0.0,0.0,0.0,0.0,0.0,-3.8707,-3.8707,-3.8707,-3.8762,-3.888,-3.9073,-3.9389,0.0,0.0,0.0,0.0,0.0,0.0,0.0,0.0,0.0,0.0,0.0,0.0,0.0,0.0,0.0,0.0,0.0,0.0,0.0,0.0,0.0,0.0,0.0,0.0,0.0,0.0,0.0,0.0,0.0,0.0,0.0,0.0,0.0,0.0,0.0,0.0,0.0,0.0,0.0,0.0,0.0,0.0,0.0,0.0,0.0,0.0,0.0,0.0,0.0,0.0,0.0,0.0,0.0,0.0,0.0,0.0,0.0,0.0,0.0,0.0,0.0,0.0,0.0,0.0,0.0,0.0,0.0,0.0,0.0,0.0,0.0,0.0,0.0,0.0,0.0,0.0,0.0,0.0,0.0,0.0,0.0,0.0,0.0,0.0,0.0,0.0,0.0,0.0,0.0,0.0,0.0,0.0,0.0,0.0,0.0,0.0,0.0,0.0,0.0,0.0,0.0,0.0,0.0,0.0,0.0,0.0,0.0,-3.8707,-3.8707,-3.8707,-3.8707,-3.88,-3.904,-3.8855,-3.9022,-3.9587,0.0,0.0,0.0,0.0,0.0,0.0,0.0,0.0,0.0,0.0,0.0,0.0,0.0,0.0,0.0,0.0,0.0,0.0,0.0,0.0,0.0,0.0,0.0,0.0,0.0,0.0,0.0,0.0,0.0,0.0,0.0,0.0,0.0,0.0,0.0,0.0,0.0,0.0,-3.5616,-3.6522,0.0,0.0,0.0,0.0,0.0,0.0,0.0,0.0,-4.0084,0.0,0.0,0.0,0.0,0.0,0.0,0.0,0.0,0.0,0.0,0.0,0.0,0.0,0.0,0.0,0.0,0.0,0.0,0.0,0.0,0.0,0.0,0.0,0.0,0.0,0.0,0.0,0.0,0.0,0.0,0.0,0.0,0.0,0.0,0.0,0.0,0.0,0.0,0.0,0.0,0.0,0.0,0.0,0.0,0.0,0.0,0.0,0.0,0.0,0.0,0.0,0.0,0.0,0.0,0.0,0.0,-3.8707,-3.8707,-3.8707,-3.8707,-3.8707,-3.8719,-3.8758,-3.8933,-3.9205,-3.9576,0.0,0.0,0.0,0.0,0.0,0.0,0.0,0.0,0.0,0.0,0.0,0.0,0.0,0.0,0.0,0.0,0.0,0.0,0.0,0.0,0.0,0.0,0.0,0.0,0.0,0.0,0.0,0.0,0.0,0.0,0.0,0.0,0.0,0.0,0.0,0.0,0.0,0.0,0.0,-3.6504,-3.7477,0.0,0.0,0.0,0.0,0.0,0.0,0.0,0.0,-4.0873,0.0,0.0,0.0,0.0,0.0,0.0,0.0,0.0,0.0,0.0,0.0,0.0,0.0,0.0,0.0,0.0,0.0,0.0,0.0,0.0,0.0,0.0,0.0,0.0,0.0,0.0,0.0,0.0,0.0,0.0,0.0,0.0,0.0,0.0,0.0,0.0,0.0,0.0,0.0,0.0,0.0,0.0,0.0,0.0,0.0,0.0,0.0,0.0,0.0,0.0,0.0,0.0,0.0,0.0,0.0,-3.8643,-3.8415,-3.8433,-3.8692,-3.8707,-3.8762,-3.8894,-3.8894,-3.9203,0.0,0.0,0.0,0.0,0.0,0.0,0.0,0.0,0.0,0.0,0.0,0.0,0.0,0.0,0.0,0.0,0.0,0.0,0.0,0.0,0.0,0.0,0.0,0.0,0.0,0.0,0.0,0.0,0.0,0.0,0.0,0.0,0.0,0.0,0.0,0.0,0.0,0.0,0.0,0.0,-3.713,-3.8056,-3.8856,0.0,0.0,0.0,0.0,0.0,0.0,-4.1719,-4.1572,0.0,0.0,0.0,0.0,0.0,0.0,0.0,0.0,0.0,0.0,0.0,0.0,0.0,0.0,0.0,0.0,0.0,0.0,0.0,0.0,0.0,0.0,0.0,0.0,0.0,0.0,0.0,0.0,0.0,0.0,0.0,0.0,0.0,0.0,0.0,0.0,0.0,0.0,0.0,0.0,0.0,0.0,0.0,0.0,0.0,0.0,0.0,0.0,0.0,0.0,0.0,0.0,0.0,0.0,0.0,-3.8643,-3.8167,-3.8148,-3.8658,-3.8707,-3.8803,-3.9013,-3.8818,-3.9105,0.0,0.0,0.0,0.0,0.0,0.0,0.0,0.0,0.0,0.0,0.0,0.0,0.0,0.0,0.0,0.0,0.0,0.0,0.0,0.0,0.0,0.0,0.0,0.0,0.0,0.0,0.0,0.0,0.0,0.0,0.0,0.0,0.0,0.0,0.0,0.0,0.0,0.0,0.0,0.0,0.0,-3.8992,-3.9795,-4.0864,0.0,0.0,0.0,0.0,-4.2635,-4.2543,0.0,0.0,0.0,0.0,0.0,0.0,0.0,0.0,0.0,0.0,0.0,0.0,0.0,0.0,0.0,0.0,0.0,0.0,0.0,0.0,0.0,0.0,0.0,0.0,0.0,0.0,0.0,0.0,0.0,0.0,0.0,0.0,0.0,0.0,0.0,0.0,0.0,0.0,0.0,0.0,0.0,0.0,0.0,0.0,0.0,0.0,0.0,0.0,0.0,0.0,0.0,0.0,0.0,0.0,0.0,0.0,-3.8643,-3.8183,-3.8167,-3.8658,-3.8707,-3.8704,-3.8732,-3.8704,-3.8998,0.0,0.0,0.0,0.0,0.0,0.0,0.0,0.0,0.0,0.0,0.0,0.0,0.0,0.0,0.0,0.0,0.0,0.0,0.0,0.0,0.0,0.0,0.0,0.0,0.0,0.0,0.0,0.0,0.0,0.0,0.0,0.0,0.0,0.0,0.0,0.0,0.0,0.0,0.0,0.0,0.0,-4.0347,-4.1177,-4.1795,-4.2457,0.0,0.0,-4.3478,-4.3386,-4.3349,0.0,0.0,0.0,0.0,0.0,0.0,0.0,0.0,0.0,0.0,0.0,0.0,0.0,0.0,0.0,0.0,0.0,0.0,0.0,0.0,0.0,0.0,0.0,0.0,0.0,0.0,0.0,0.0,0.0,0.0,0.0,0.0,0.0,0.0,0.0,0.0,0.0,0.0,0.0,0.0,0.0,0.0,0.0,0.0,0.0,0.0,0.0,0.0,0.0,0.0,0.0,0.0,0.0,0.0,0.0,-3.6805,-3.7791,-3.7614,-3.772,-3.8251,-3.8546,-3.8707,-3.8707,-3.8707,-3.8902,0.0,0.0,0.0,0.0,0.0,0.0,0.0,0.0,0.0,0.0,0.0,0.0,0.0,0.0,0.0,0.0,0.0,0.0,0.0,0.0,0.0,0.0,0.0,0.0,0.0,0.0,0.0,0.0,0.0,0.0,0.0,0.0,0.0,0.0,0.0,0.0,0.0,0.0,0.0,0.0,0.0,0.0,-4.152,-4.1864,0.0,0.0,0.0,-4.3479,-4.3479,0.0,0.0,0.0,0.0,0.0,0.0,0.0,0.0,0.0,0.0,0.0,0.0,0.0,0.0,0.0,0.0,0.0,0.0,0.0,0.0,0.0,0.0,0.0,0.0,0.0,0.0,0.0,0.0,0.0,0.0,0.0,0.0,0.0,0.0,0.0,0.0,0.0,0.0,0.0,0.0,0.0,0.0,0.0,0.0,0.0,0.0,0.0,0.0,0.0,0.0,0.0,0.0,0.0,0.0,0.0,0.0,0.0,-3.719,-3.7058,-3.7229,-3.772,-3.8234,-3.8496,-3.8496,-3.8627,0.0,0.0,0.0,0.0,0.0,0.0,0.0,0.0,0.0,0.0,0.0,0.0,0.0,0.0,0.0,0.0,0.0,0.0,0.0,0.0,0.0,0.0,0.0,0.0,0.0,0.0,0.0,-3.5616,0.0,0.0,0.0,0.0,0.0,0.0,0.0,0.0,0.0,0.0,0.0,0.0,0.0,0.0,-4.0599,-4.1658,-4.1937,-4.22,0.0,0.0,-4.3479,-4.3479,-4.3479,-4.3479,0.0,0.0,0.0,0.0,0.0,0.0,0.0,0.0,0.0,0.0,0.0,0.0,0.0,0.0,0.0,0.0,0.0,0.0,0.0,0.0,0.0,0.0,0.0,0.0,0.0,0.0,0.0,0.0,0.0,0.0,0.0,0.0,0.0,0.0,0.0,0.0,0.0,0.0,0.0,0.0,0.0,0.0,0.0,0.0,0.0,0.0,0.0,0.0,0.0,0.0,0.0,0.0,0.0,0.0,-3.6122,-3.7135,-3.6704,-3.6724,-3.7247,-3.7702,-3.7963,-3.7945,-3.8449,-3.8815,0.0,0.0,0.0,0.0,0.0,0.0,0.0,0.0,0.0,0.0,0.0,0.0,0.0,0.0,0.0,0.0,0.0,0.0,0.0,0.0,0.0,0.0,0.0,0.0,0.0,0.0,0.0,0.0,0.0,0.0,0.0,0.0,0.0,0.0,0.0,0.0,0.0,0.0,0.0,0.0,0.0,-4.1676,-4.1793,-4.2282,-4.2653,0.0,-4.3142,-4.3479,-4.3479,-4.3479,-4.3479,-4.3479,0.0,0.0,0.0,0.0,0.0,0.0,0.0,0.0,0.0,0.0,0.0,0.0,0.0,0.0,0.0,0.0,0.0,0.0,0.0,0.0,0.0,0.0,0.0,0.0,0.0,0.0,0.0,0.0,0.0,0.0,0.0,0.0,0.0,0.0,0.0,0.0,0.0,0.0,0.0,0.0,0.0,0.0,0.0,0.0,0.0,0.0,0.0,0.0,0.0,0.0,0.0,0.0,0.0,-3.5788,-3.6207,-3.6333,-3.6481,-3.6704,-3.721,-3.747,-3.747,-3.7947,-3.8245,0.0,0.0,0.0,0.0,0.0,0.0,0.0,0.0,0.0,0.0,0.0,0.0,0.0,0.0,0.0,0.0,0.0,0.0,0.0,0.0,0.0,0.0,0.0,0.0,0.0,0.0,0.0,0.0,-3.5616,-3.5616,-3.5616,0.0,0.0,0.0,0.0,0.0,0.0,0.0,0.0,0.0,0.0,-4.0868,-4.1201,-4.1429,0.0,0.0,-4.2637,-4.3124,-4.3444,-4.3479,-4.3479,-4.3479,-4.3479,0.0,0.0,0.0,0.0,0.0,0.0,0.0,0.0,0.0,0.0,0.0,0.0,0.0,0.0,0.0,0.0,0.0,0.0,0.0,0.0,0.0,0.0,0.0,0.0,0.0,0.0,0.0,0.0,0.0,0.0,0.0,0.0,0.0,0.0,0.0,0.0,0.0,0.0,0.0,0.0,0.0,0.0,0.0,0.0,0.0,0.0,0.0,0.0,0.0,0.0,0.0,0.0,-3.5616,-3.56,-3.5968,-3.6161,-3.6178,-3.6684,-3.696,-3.698,-3.7433,-3.7685,0.0,0.0,0.0,0.0,0.0,0.0,0.0,0.0,0.0,0.0,0.0,0.0,0.0,0.0,0.0,0.0,0.0,0.0,0.0,0.0,0.0,0.0,0.0,0.0,0.0,0.0,0.0,0.0,-3.5616,-3.5616,-3.5616,0.0,0.0,0.0,0.0,0.0,0.0,0.0,0.0,0.0,0.0,-4.0254,-4.0625,-4.1157,-4.169,-4.2104,-4.3001,-4.3797,-4.4142,-4.4011,-4.3794,-4.3651,0.0,0.0,0.0,0.0,0.0,0.0,0.0,0.0,0.0,0.0,0.0,0.0,0.0,0.0,0.0,0.0,0.0,0.0,0.0,0.0,0.0,0.0,0.0,0.0,0.0,0.0,0.0,-4.0096,0.0,0.0,-4.0087,0.0,0.0,0.0,0.0,0.0,0.0,0.0,0.0,0.0,0.0,0.0,0.0,0.0,0.0,0.0,0.0,0.0,0.0,0.0,0.0,0.0,0.0,-3.56,-3.56,-3.5583,-3.5622,-3.5627,-3.6139,-3.6416,-3.6437,-3.6923,-3.7228,-3.7229,0.0,0.0,0.0,0.0,0.0,0.0,0.0,0.0,0.0,0.0,0.0,0.0,0.0,0.0,0.0,0.0,0.0,0.0,0.0,0.0,0.0,0.0,0.0,0.0,0.0,0.0,-3.5616,-3.5616,-3.5633,0.0,0.0,0.0,0.0,0.0,0.0,0.0,0.0,0.0,-4.0104,-4.0096,-4.0096,-4.0138,-4.1731,-4.2815,-4.2894,-4.4507,-4.5773,-4.5718,-4.515,-4.4492,0.0,0.0,0.0,0.0,0.0,0.0,0.0,0.0,0.0,0.0,0.0,0.0,0.0,0.0,0.0,0.0,0.0,0.0,0.0,0.0,0.0,0.0,0.0,0.0,0.0,0.0,0.0,-3.9289,-3.9315,0.0,0.0,0.0,0.0,0.0,0.0,0.0,0.0,0.0,0.0,0.0,-3.7114,-3.6345,0.0,0.0,0.0,0.0,0.0,0.0,0.0,0.0,0.0,0.0,0.0,0.0,-3.5161,-3.5538,-3.5144,-3.5161,-3.56,-3.5783,-3.5876,-3.5876,-3.6395,-3.6825,-3.719,0.0,0.0,0.0,0.0,0.0,0.0,0.0,0.0,0.0,0.0,0.0,0.0,0.0,0.0,0.0,0.0,0.0,0.0,0.0,0.0,0.0,0.0,0.0,0.0,0.0,-3.5616,0.0,0.0,0.0,0.0,0.0,0.0,0.0,0.0,0.0,0.0,0.0,-3.9305,-3.9315,-3.9756,-4.0113,-4.0113,-4.0664,-4.1201,0.0,0.0,0.0,0.0,0.0,0.0,0.0,0.0,0.0,0.0,0.0,0.0,0.0,0.0,-4.2366,-4.2366,-4.2384,-4.2366,-4.2366,0.0,0.0,0.0,0.0,0.0,0.0,0.0,0.0,0.0,0.0,0.0,0.0,0.0,0.0,-3.8525,-3.8525,-3.8541,0.0,0.0,0.0,0.0,0.0,0.0,0.0,0.0,-3.6585,-3.6276,-3.6307,-3.5566,-3.5133,0.0,-3.4281,-3.3815,0.0,0.0,0.0,0.0,0.0,0.0,0.0,0.0,-3.4471,-3.4871,-3.4688,-3.4807,-3.523,-3.547,-3.5616,-3.5622,-3.5941,-3.6308,-3.6643,-3.6823,-3.7058,0.0,0.0,0.0,0.0,0.0,0.0,0.0,0.0,0.0,0.0,0.0,0.0,0.0,0.0,0.0,0.0,0.0,0.0,0.0,0.0,0.0,0.0,0.0,-3.5639,0.0,0.0,0.0,0.0,0.0,0.0,0.0,0.0,0.0,-3.8777,-3.8663,-3.8608,-3.8864,-3.9342,-3.9782,-4.007,0.0,0.0,0.0,0.0,0.0,0.0,0.0,-4.4714,-4.358,-4.3699,-4.3567,-4.2367,-4.1661,-4.1263,-4.1468,0.0,0.0,-4.1725,-4.181,-4.181,-4.181,-4.1621,-4.1556,-4.175,-4.1919,-4.22,0.0,0.0,0.0,0.0,0.0,0.0,0.0,0.0,-3.7764,-3.7748,0.0,-3.7748,0.0,0.0,0.0,0.0,-3.7648,-3.6919,0.0,0.0,-3.5831,-3.5489,-3.5432,-3.4835,-3.4159,-3.3484,-3.2871,-3.2257,-3.1686,-3.2926,0.0,0.0,0.0,0.0,0.0,0.0,-3.3598,-3.3633,-3.4211,-3.4528,-3.4592,-3.5184,-3.5532,-3.5515,-3.5538,-3.5538,-3.556,-3.6037,-3.6316,-3.6336,-3.6788,0.0,0.0,0.0,0.0,0.0,0.0,0.0,0.0,0.0,0.0,0.0,0.0,0.0,0.0,0.0,0.0,0.0,0.0,0.0,0.0,-3.5268,0.0,0.0,0.0,0.0,0.0,0.0,0.0,0.0,0.0,0.0,-3.8575,-3.8189,-3.8035,-3.8772,0.0,0.0,0.0,0.0,-4.3165,-4.3165,-4.4955,-4.6223,-4.6206,-4.5647,-4.5,-4.4433,0.0,0.0,-4.2992,-4.1373,-4.0355,-4.0814,-4.0507,-4.0458,-4.153,-4.1682,-4.1686,-4.1703,-4.1246,-4.111,-4.1556,-4.1313,-4.1296,-3.76,0.0,0.0,0.0,0.0,-3.8121,-3.7674,-3.695,-3.6934,-3.695,-3.6934,-3.6934,0.0,0.0,0.0,0.0,0.0,0.0,-3.5799,-3.5814,-3.5587,-3.525,-3.4771,-3.4593,-3.4174,-3.3499,-3.3305,-3.2871,-3.2258,-3.2591,-3.2829,-3.2911,0.0,0.0,0.0,0.0,-3.3119,-3.3572,-3.3313,-3.3417,-3.3871,-3.4078,-3.4161,-3.4178,-3.464,-3.4664,-3.4186,-3.479,-3.505,-3.491,-3.4728,0.0,0.0,0.0,0.0,0.0,0.0,0.0,0.0,0.0,0.0,0.0,0.0,0.0,0.0,0.0,0.0,0.0,0.0,0.0,-3.5292,-3.5112,-3.5162,0.0,0.0,0.0,0.0,0.0,0.0,0.0,0.0,0.0,-3.7188,-3.7068,-3.7233,0.0,0.0,-3.8597,-3.9781,-4.0565,-4.1178,-4.1598,-4.3131,0.0,-4.4249,-4.4888,-4.5025,-4.3868,-4.3193,-4.2723,-4.25,-4.1597,-4.0942,-4.1086,-4.0535,-4.0204,-4.0507,-4.0587,-4.0611,-4.0587,-4.0441,-4.0385,-4.0521,-4.0726,-4.0995,-3.6446,-3.6951,-3.756,-3.7602,-3.7322,-3.7322,-3.6889,-3.618,-3.618,-3.6165,-3.6165,-3.6165,-3.6165,-3.6165,-3.6165,0.0,0.0,0.0,-3.5489,-3.5489,-3.5489,-3.507,-3.4316,-3.4301,-3.3977,-3.3341,-3.3326,-3.3189,-3.2871,-3.2901,-3.2779,-3.2573,0.0,0.0,-3.2756,-3.2367,-3.2367,-3.2745,-3.2652,-3.2803,-3.3182,-3.3469,-3.3608,-3.3608,-3.3987,-3.4012,-3.3608,-3.3987,-3.4137,-3.4039,-3.3763,-3.3712,0.0,0.0,0.0,0.0,0.0,0.0,0.0,0.0,0.0,0.0,0.0,-3.4496,-3.5161,0.0,0.0,0.0,-3.4546,-3.476,-3.4791,-3.4928,0.0,0.0,0.0,0.0,0.0,0.0,0.0,-3.7322,-3.6631,-3.6165,-3.6165,-3.6165,-3.6477,-3.7219,-3.7575,-3.8159,-3.9307,0.0,-4.0525,-4.0889,-4.2019,-4.297,-4.332,-4.4063,-4.4449,-4.3972,-4.3234,-4.276,-4.2726,-4.2117,-4.1559,-4.1238,-4.0832,-4.0426,-4.0163,-4.0113,-4.0113,-4.0113,-4.0113,-4.0113,-4.0113,-4.036,-4.0631,-3.5489,-3.5619,-3.7041,-3.7189,-3.6523,-3.6523,-3.6149,-3.5489,-3.5489,-3.5489,-3.5489,-3.5489,-3.5439,-3.5392,-3.5392,0.0,-3.5261,-3.5294,-3.5246,-3.5261,-3.5246,-3.4758,-3.391,-3.3891,-3.3589,-3.3073,-3.3073,-3.3151,-3.3327,-3.3343,-3.3016,-3.2347,-3.1679,-3.1395,-3.1511,-3.1496,-3.1496,-3.1496,-3.216,-3.252,-3.2504,-3.3119,-3.3427,-3.3427,-3.3479,-3.3479,-3.3443,-3.3495,-3.3479,-3.3443,-3.3427,-3.3427,-3.3443,0.0,0.0,0.0,0.0,0.0,0.0,0.0,0.0,0.0,0.0,0.0,0.0,0.0,0.0,0.0,-3.3525,0.0,-3.3652,-3.4834,0.0,0.0,0.0,-3.7677,-3.7602,-3.698,-3.6492,-3.6492,0.0,0.0,-3.5489,-3.5489,-3.578,-3.6492,-3.711,-3.7841,-3.8656,-3.994,-4.0832,-4.0864,-4.1518,-4.2284,-4.2996,-4.3213,-4.3469,-4.4009,-4.3777,-4.3228,-4.3144,-4.2572,-4.1903,-4.1295,-4.1088,-4.0828,-4.0155,-4.0011,-4.002,-4.007,-4.0113,-4.0113,-4.0096,-4.0121,-4.0286,-3.5489,-3.5537,-3.591,-3.5941,-3.5765,-3.575,-3.5683,-3.5504,-3.5489,-3.5489,-3.5489,-3.5489,-3.5067,-3.4346,-3.4361,-3.3973,-3.329,-3.329,-3.329,-3.329,-3.329,-3.3171,-3.2925,-3.2925,-3.2856,-3.2716,-3.2716,-3.2499,-3.2061,-3.2067,-3.1724,-3.1054,-3.0469,-3.0637,-3.1453,-3.1496,-3.1496,-3.1496,-3.1668,-3.1783,-3.1768,-3.1908,-3.2007,-3.2007,-3.2559,-3.2586,-3.202,-3.2559,-3.2586,-3.2048,-3.1992,-3.2007,-3.1992,-3.2516,0.0,0.0,0.0,0.0,0.0,0.0,0.0,0.0,0.0,-3.3103,-3.3786,0.0,-3.3521,0.0,-3.3505,-3.391,-3.4926,-3.5366,0.0,0.0,-3.6338,-3.6661,-3.6101,-3.5878,-3.575,-3.575,-3.5619,-3.5489,-3.5489,-3.5489,-3.5749,-3.6429,-3.6673,-3.7225,-3.8447,-3.9386,-4.0152,-4.0687,-4.1417,-4.2045,-4.2269,-4.2316,-4.241,-4.2583,-4.2452,-4.2354,-4.2338,-4.174,-4.1174,-4.0917,-4.0056,-3.9589,-3.9875,-3.9564,-3.9454,-3.9927,-4.0113,-4.0113,-4.0113,-4.0113,-4.0146,-3.4192,-3.4192,-3.4192,-3.4192,-3.4259,-3.5148,-3.5489,-3.5457,-3.5019,-3.4839,-3.4806,-3.4375,-3.3891,-3.3394,-3.338,-3.3087,-3.2593,-3.2593,-3.2593,-3.2593,-3.2593,-3.2379,-3.201,-3.196,-3.1947,-3.196,-3.1997,-3.2,-3.2053,-3.2075,-3.1723,-3.1062,-3.0766,-3.076,-3.1073,-3.0618,-3.0584,-3.0955,-3.097,-3.1146,-3.1467,-3.1496,-3.1496,-3.1511,-3.1894,-3.1938,-3.1496,-3.191,-3.1938,-3.1524,-3.1496,-3.1496,-3.1496,-3.1881,-3.2092,0.0,0.0,0.0,0.0,0.0,0.0,0.0,0.0,0.0,0.0,0.0,-3.3311,-3.3891,-3.3939,-3.4375,-3.5398,-3.5537,-3.5548,-3.5492,-3.5863,-3.5943,-3.5522,-3.5489,-3.5489,-3.5489,-3.5489,-3.5489,-3.5489,-3.5489,-3.5744,-3.6402,-3.6716,-3.7289,-3.8299,-3.9139,-3.9703,-4.0089,-4.0535,-4.0995,-4.1346,-4.1756,-4.1981,-4.1981,-4.1981,-4.1981,-4.1981,-4.1662,-4.1294,-4.0927,-4.0,-3.9287,-3.9376,-3.8873,-3.8613,-3.8914,-3.9092,-3.9332,-3.9952,-4.0113,-4.0113,-3.2593,-3.2593,-3.2593,-3.2593,-3.2749,-3.4409,-3.5115,-3.5067,-3.4211,-3.3808,-3.3774,-3.2961,-3.2536,-3.2415,-3.2415,-3.2343,-3.2249,-3.2249,-3.2249,-3.2249,-3.2249,-3.1792,-3.1044,-3.1007,-3.1007,-3.1007,-3.1007,-3.1439,-3.2213,-3.2263,-3.1954,-3.1379,-3.1297,-3.1033,-3.0508,-2.943,-2.9313,-3.0117,-3.0238,-3.0644,-3.1322,-3.1351,-3.1351,-3.1351,-3.1248,-3.119,-3.119,-3.119,-3.1219,-3.1351,-3.1351,-3.138,-3.1511,-3.1496,-3.1796,0.0,-3.1853,0.0,0.0,0.0,0.0,0.0,0.0,0.0,0.0,-3.3047,-3.329,-3.4533,-3.4638,-3.4861,-3.5444,-3.5489,-3.5489,-3.5504,-3.5407,-3.5326,-3.5279,-3.5213,-3.5133,-3.5133,-3.5148,-3.5133,-3.5067,-3.5133,-3.5352,-3.599,-3.6488,-3.7078,-3.8009,-3.8832,-3.9451,-3.9388,-3.9388,-3.9829,-4.0447,-4.1147,-4.1576,-4.1593,-4.1543,-4.1658,-4.1543,-4.156,-4.1403,-4.0768,-3.9977,-3.9341,-3.8845,-3.8205,-3.7722,-3.7863,-3.7937,-3.8346,-3.9532,-3.9876,-3.9995,-3.2593,-3.2593,-3.2593,-3.2593,-3.2642,-3.2996,-3.3136,-3.3136,-3.2961,-3.2855,-3.2841,-3.2664,-3.2177,-3.1499,-3.1462,-3.1044,-3.0317,-3.033,-3.0317,-3.033,-3.0317,-3.0254,-3.0075,-3.0075,-3.0075,-3.0075,-3.0075,-3.0139,-3.0317,-3.0305,-3.0266,-3.0113,-2.9653,-2.9701,-3.016,0.0,0.0,0.0,-2.995,-3.0389,-3.0524,-3.0524,-3.0524,-3.0524,-2.9858,0.0,-2.9473,-2.9473,-2.9797,-3.0494,-3.0524,0.0,0.0,0.0,0.0,0.0,0.0,0.0,0.0,0.0,0.0,0.0,-3.0676,-3.1522,-3.3321,-3.3876,-3.4442,-3.522,-3.531,-3.537,-3.5489,-3.5489,-3.5489,-3.5457,-3.4773,-3.4279,-3.4259,-3.365,-3.315,-3.315,-3.3171,-3.3185,-3.322,-3.315,-3.3607,-3.4691,-3.489,-3.5424,-3.6525,-3.8192,-3.9301,-3.9388,-3.9265,-3.9409,-3.961,-3.9844,-4.0076,-3.99,-3.99,-3.9935,-3.997,-3.997,-3.992,-3.9677,-3.8717,-3.8104,-3.8491,-3.767,-3.6994,-3.7661,-3.7793,-3.8064,-3.8935,-3.9113,-3.9315,-3.1206,-3.1206,-3.1206,-3.1193,0.0,-3.1193,-3.1193,-3.123,-3.1719,-3.1646,-3.123,-3.123,-3.0945,-3.052,-3.052,-3.0254,-2.9792,-2.9779,-2.9779,-2.9779,-2.9779,-2.9779,-2.9779,-2.9779,-2.9779,-2.9779,-2.9779,-2.9779,-2.9779,-2.9779,-2.9779,-2.9779,-2.9503,-2.9568,-2.9969,-2.8999,-2.8569,-2.8749,-2.8917,-2.9223,-2.9628,-2.9659,-2.9673,-2.9628,-2.9223,0.0,0.0,0.0,0.0,0.0,0.0,0.0,0.0,-3.0269,0.0,-3.0269,-3.0254,-3.0215,-3.0066,-3.0312,-3.0522,-3.0675,-3.1234,-3.1866,-3.2547,-3.3177,-3.3715,-3.4013,-3.4041,-3.4041,-3.4075,-3.4075,-3.409,-3.4041,-3.3602,-3.331,-3.3276,-3.289,-3.2593,-3.2593,-3.2593,-3.2593,-3.2593,-3.2593,-3.309,-3.4181,-3.4402,-3.4806,-3.6014,-3.7123,-3.78,-3.7838,-3.8331,-3.862,-3.8671,-3.9141,-3.9388,-3.9388,-3.9388,-3.9388,-3.9388,-3.9388,-3.932,-3.8931,-3.8078,-3.75,-3.7412,-3.674,-3.618,-3.6538,-3.6662,-3.6905,-3.7613,-3.8088,-3.8458,-2.9779,-2.9779,-2.9779,-2.9779,-2.9779,-2.9779,-2.9779,-2.9869,-3.0633,0.0,0.0,-2.9779,-2.9779,-2.9779,-2.9779,-2.9779,-2.9779,-2.9779,-2.9779,-2.9779,-2.9779,-2.9714,-2.9495,-2.9495,-2.9417,-2.9209,-2.9209,-2.9209,-2.9221,-2.9209,-2.9209,-2.9209,-2.9221,-2.9209,-2.9172,-2.8616,-2.8226,-2.8011,-2.7894,-2.8145,-2.8748,-2.878,-2.878,-2.878,-2.8634,-2.8556,-2.8556,-2.8556,-2.862,-2.878,-2.878,-2.883,-2.8971,-2.8989,-2.8989,-2.9002,-2.9113,-2.9265,-2.9564,-2.9763,-3.0249,-3.1232,-3.1797,-3.2009,-3.1763,-3.2282,-3.2593,-3.2593,-3.2593,-3.2593,-3.2593,-3.2593,-3.2593,-3.2593,-3.2464,-3.2357,-3.2343,-3.2177,-3.1997,-3.2105,-3.201,-3.2105,-3.2046,-3.1997,-3.25,-3.3414,-3.3639,-3.4308,-3.5381,-3.6013,-3.6395,-3.6473,-3.7084,-3.7496,-3.7625,-3.8144,-3.8819,-3.8642,-3.8694,-3.8774,-3.8723,-3.8693,-3.8427,-3.767,-3.7262,-3.6788,-3.6287,-3.5872,-3.5487,-3.5489,-3.5489,-3.5668,-3.629,-3.6919,-3.7456,-2.9779,-2.9779,-2.9779,-2.9779,-2.9779,-2.9779,-2.9779,-2.9792,-2.9921,-2.9946,-2.9779,-2.9779,-2.9779,-2.9779,-2.9779,-2.9779,-2.9779,-2.9779,-2.9779,-2.9779,-2.9779,-2.9287,-2.8347,-2.8335,-2.7867,-2.7005,-2.6976,-2.6976,-2.6976,-2.6976,-2.6976,-2.6976,-2.6976,-2.6976,-2.693,-2.6371,-2.6029,-2.6055,-2.7578,-2.8245,-2.7868,-2.7901,-2.7901,-2.7855,-2.7229,-2.685,-2.685,-2.6884,-2.7162,-2.7835,-2.7887,-2.8201,-2.8925,-2.8971,-2.8989,-2.903,-2.9421,-2.9424,-2.8771,-2.9596,-3.0121,-3.0062,-3.0126,-3.0807,-3.2319,-3.2552,-3.2593,-3.2593,-3.2486,-3.2593,-3.2593,-3.2536,-3.2486,-3.2486,-3.1865,-3.1389,-3.1389,-3.0733,-3.0317,-3.0317,-3.0216,-3.0203,-3.0266,-3.019,-3.0381,-3.103,-3.1674,-3.2283,-3.362,-3.5075,-3.6079,-3.6198,-3.6316,-3.6448,-3.6462,-3.6526,-3.6824,-3.6629,-3.6757,-3.669,-3.6316,-3.6221,-3.6019,-3.5316,-3.5339,-3.5311,-3.5178,-3.5396,-3.5288,-3.5279,-3.5246,-3.5409,-3.5509,-3.572,-3.6243,-2.9779,-2.9779,-2.9779,-2.9779,-2.974,-2.9157,-2.8885,-2.8819,-2.8251,-2.8712,-2.974,-2.9779,-2.9779,-2.9753,-2.9157,-2.8897,-2.8858,-2.8291,-2.8011,-2.8011,-2.7999,-2.7758,-2.729,-2.725,-2.6964,-2.6524,-2.6483,-2.6483,-2.6483,-2.6483,-2.6483,-2.6483,-2.6483,-2.6483,-2.6461,-2.6248,-2.5909,-2.5619,-2.6789,-2.7142,-2.6584,-2.7154,-2.7349,-2.704,-2.6679,-2.6487,-2.6487,-2.6487,-2.6692,-2.704,-2.704,-2.7229,-2.7604,-2.7893,-2.8063,-2.809,-2.8581,-2.8829,-2.8749,-2.9521,-2.9935,-2.9805,-2.9779,-3.0139,-3.0983,-3.1095,-3.1095,-3.1095,-3.1095,-3.1095,-3.1095,-3.1095,-3.1095,-3.1095,-3.0658,-3.0457,-3.0419,-3.0113,-2.9779,-2.974,-2.9236,-2.8897,-2.8897,-2.8371,-2.8201,-2.8804,-2.973,-3.1023,-3.2339,-3.3366,-3.4158,-3.4489,-3.4993,-3.5359,-3.5386,-3.5894,-3.6034,-3.5836,-3.5781,-3.5532,-3.5072,-3.4934,-3.4685,-3.4196,-3.4144,-3.4079,-3.3797,-3.3815,-3.3899,-3.3939,-3.3939,-3.3939,-3.3939,-3.4293,-3.5124,-2.9138,-2.904,-2.9052,-2.904,-2.8949,-2.8108,-2.7723,-2.7654,-2.6883,-2.7464,-2.8922,-2.9052,-2.904,-2.8961,-2.8108,-2.7735,-2.7602,-2.6883,-2.6483,-2.6483,-2.6483,-2.6389,-2.6141,-2.6141,-2.5975,-2.5766,-2.5724,-2.5735,-2.5735,-2.5724,-2.5724,-2.5735,-2.5724,-2.5735,-2.5724,-2.5724,-2.5487,-2.5117,-2.5758,-2.5889,-2.5473,-2.6286,-2.654,-2.6148,-2.6001,-2.5975,-2.5975,-2.5865,-2.5908,-2.6141,-2.6288,-2.6442,-2.6666,-2.7203,-2.7469,-2.7519,-2.7984,-2.8524,-2.9038,-2.9528,-2.9779,-2.9779,-2.9779,-2.9779,-2.9779,-2.9779,-2.9779,-2.9779,-2.9856,-2.9856,-2.9895,-2.9856,-2.9792,-2.9779,-2.9534,-2.9392,-2.9404,-2.9209,-2.904,-2.8961,-2.8239,-2.7735,-2.7614,-2.7046,-2.6851,-2.7481,-2.8453,-2.9731,-3.0973,-3.1276,-3.1485,-3.2116,-3.3284,-3.4171,-3.4243,-3.4658,-3.4874,-3.4585,-3.4399,-3.4064,-3.3684,-3.3609,-3.3403,-3.2776,-3.2896,-3.2814,-3.2417,-3.2571,-3.2713,-3.282,-3.2841,-3.2735,-3.2806,-3.3241,-3.3993,-2.7167,-2.6835,-2.6894,-2.6812,-2.6853,-2.673,-2.6637,-2.6637,-2.6524,-2.6554,-2.676,-2.6812,-2.6812,-2.6812,-2.6719,-2.6625,-2.6637,-2.6554,-2.6442,-2.64,-2.6483,-2.5964,-2.501,-2.4957,-2.4414,-2.3594,-2.3517,-2.3637,-2.3637,-2.356,-2.3474,-2.343,-2.3387,-2.3507,-2.3474,-2.3474,-2.341,-2.3371,-2.4406,-2.4921,-2.4904,-2.4953,-2.5008,-2.4963,-2.4612,-2.4423,-2.4524,-2.4019,-2.4228,-2.5076,-2.5601,-2.6274,-2.7101,-2.7697,-2.7998,-2.7961,-2.8474,-2.9063,-2.959,-2.9767,-2.9702,-2.9779,-2.9663,-2.9663,-2.9663,-2.9714,-2.9779,-2.9663,-2.9702,-2.9702,-2.9779,-2.9663,-2.9573,-2.9456,-2.8779,-2.8267,-2.8187,-2.7371,-2.6812,-2.6812,-2.6812,-2.6637,-2.6637,-2.6389,-2.6579,-2.6928,-2.7231,-2.783,-2.864,-2.8841,-2.8876,-2.928,-3.1143,-3.2662,-3.2487,-3.2445,-3.232,-3.1876,-3.1775,-3.1496,-3.1155,-3.0964,-3.0798,-3.0753,-3.0888,-3.1259,-3.1566,-3.1924,-3.2451,-3.2177,-3.2249,-3.2486,-3.2558,-3.2629,-3.3066,-2.6867,-2.6483,-2.6483,-2.6483,-2.6442,-2.5808,-2.5504,-2.5473,-2.4766,-2.4478,-2.4478,-2.452,-2.5221,-2.6431,-2.5797,-2.5504,-2.5473,-2.4808,-2.4478,-2.4478,-2.4478,-2.4264,-2.3833,-2.38,-2.3507,-2.3135,-2.3101,-2.3101,-2.3101,-2.3101,-2.3101,-2.3101,-2.3101,-2.3101,-2.3101,-2.3101,-2.3101,-2.3101,-2.3551,-2.3823,-2.3929,-2.4762,-2.5115,-2.4837,-2.4637,-2.4564,-2.4525,-2.4374,-2.4464,-2.4853,-2.5074,-2.5393,-2.5805,-2.6323,-2.6643,-2.6679,-2.7187,-2.7564,-2.7827,-2.7851,-2.7839,-2.7851,-2.7839,-2.7839,-2.7839,-2.7851,-2.7839,-2.7919,-2.8398,-2.8569,-2.8011,-2.7839,-2.7839,-2.781,-2.7424,-2.7168,-2.7128,-2.676,-2.6483,-2.6431,-2.5933,-2.5515,-2.5378,-2.4925,-2.4924,-2.5562,-2.5849,-2.6214,-2.7327,-2.7631,-2.7766,-2.8177,-2.9381,-2.9887,-2.9851,-2.9773,-2.9579,-2.9159,-2.8993,-2.8775,-2.8456,-2.8209,-2.8224,-2.8673,-2.9162,-2.9731,-3.0317,-3.0558,-3.0945,-3.0932,-3.0945,-3.0959,-3.0959,-3.1402,-3.1924,-2.6055,-2.56,-2.5557,-2.5557,-2.5484,-2.4723,-2.4339,-2.4243,-2.342,-2.3101,-2.3101,-2.3101,-2.4026,-2.5305,-2.4681,-2.4339,-2.4211,-2.3464,-2.3101,-2.3101,-2.3101,-2.3091,-2.3101,-2.3101,-2.3101,-2.3101,-2.3101,-2.3101,-2.3101,-2.3101,-2.3101,-2.3101,-2.3101,-2.3101,-2.3101,-2.3101,-2.3101,-2.3101,-2.3101,-2.3101,-2.325,-2.4304,-2.4732,-2.4379,-2.4229,-2.4164,-2.4164,-2.4086,-2.4119,-2.4395,-2.4515,-2.475,-2.4998,-2.5534,-2.5842,-2.5864,-2.6259,-2.6483,-2.6483,-2.6483,-2.6483,-2.6483,-2.6483,-2.6483,-2.6483,-2.6483,-2.6359,-2.6141,-2.6737,-2.6912,-2.6637,-2.6483,-2.6483,-2.6483,-2.6265,-2.6047,-2.6005,-2.585,-2.5484,-2.5484,-2.4766,-2.4329,-2.42,-2.3704,-2.357,-2.4209,-2.436,-2.4625,-2.5808,-2.6087,-2.6195,-2.6661,-2.6704,-2.7128,-2.7661,-2.8051,-2.7653,-2.7285,-2.722,-2.7137,-2.658,-2.6547,-2.6565,-2.7626,-2.7654,-2.7815,-2.8426,-2.8767,-2.9028,-2.8988,-2.9118,-2.9353,-2.9445,-3.0152,-3.0696,-2.4032,-2.3349,-2.3266,-2.3387,-2.3266,-2.3266,-2.3222,-2.3299,-2.3135,-2.3101,-2.3101,-2.3101,-2.3178,-2.3387,-2.3343,-2.3222,-2.3222,-2.3135,-2.3101,-2.3101,-2.3101,-2.3101,-2.3101,-2.3101,-2.3101,-2.3101,-2.3101,-2.3101,-2.3101,-2.3101,-2.3101,-2.3101,-2.3101,-2.3101,-2.3101,-2.3101,-2.3101,-2.3101,-2.3101,-2.3101,-2.3091,-2.3193,-2.3308,-2.3272,-2.2847,-2.2767,-2.2643,-2.2257,-2.2492,-2.3343,-2.3935,-2.4566,-2.544,-2.6025,-2.624,-2.6303,-2.6378,-2.64,-2.6348,-2.6276,-2.6318,-2.6348,-2.6182,-2.6389,-2.6141,-2.6141,-2.5766,-2.4957,-2.4999,-2.5378,-2.6099,-2.6069,-2.6182,-2.6193,-2.5431,-2.4957,-2.4882,-2.4092,-2.3343,-2.3387,-2.343,-2.3387,-2.3256,-2.3135,-2.3135,-2.3266,-2.3212,-2.3373,-2.362,-2.3543,-2.367,-2.369,-2.3861,-2.4273,-2.6612,-2.6819,-2.6683,-2.6367,-2.5952,-2.6302,-2.6464,-2.6524,-2.6472,-2.6513,-2.6554,-2.6595,-2.6648,-2.6771,-2.6976,-2.7261,-2.7867,-2.8108,-2.8199,-2.9118,-2.9496,-2.3871,-2.311,-2.3101,-2.3101,-2.3101,-2.3101,-2.3101,-2.3101,-2.3101,-2.3101,-2.3101,-2.3101,-2.3101,-2.3101,-2.3101,-2.3101,-2.3101,-2.3101,-2.3101,-2.3101,-2.3101,-2.3101,-2.3101,-2.3101,-2.3101,-2.3101,-2.3101,-2.3101,-2.3101,-2.3101,-2.3101,-2.3101,-2.3101,-2.3101,-2.3101,-2.3101,-2.3101,-2.3091,-2.3101,-2.3101,-2.3047,-2.3101,-2.3101,-2.3091,-2.2955,-2.2867,-2.2877,-2.2711,-2.2837,-2.3158,-2.3403,-2.3654,-2.3985,-2.4214,-2.4307,-2.4307,-2.4317,-2.4307,-2.4307,-2.4317,-2.4307,-2.4307,-2.4307,-2.4382,-2.4307,-2.4307,-2.4135,-2.38,-2.3714,-2.3973,-2.4178,-2.4307,-2.4307,-2.4264,-2.3973,-2.3757,-2.3671,-2.3343,-2.3101,-2.3101,-2.3101,-2.3101,-2.3101,-2.3101,-2.3101,-2.3101,-2.3101,-2.3091,-2.3101,-2.3101,-2.3047,-2.3091,-2.3144,-2.3436,-2.4242,-2.4553,-2.4481,-2.4399,-2.4274,-2.4284,-2.4435,-2.4606,-2.4553,-2.5305,-2.5431,-2.5641,-2.5766,-2.6058,-2.6058,-2.6265,-2.683,-2.6994,-2.7075,-2.7787,-2.7879,-2.3754,-2.3149,-2.3101,-2.3101,-2.3101,-2.3101,-2.3101,-2.3101,-2.3101,-2.3101,-2.3101,-2.3101,-2.3101,-2.3101,-2.3101,-2.3101,-2.3101,-2.3101,-2.3101,-2.3101,-2.3101,-2.3101,-2.3101,-2.3101,-2.3101,-2.3101,-2.3101,-2.3101,-2.3101,-2.3101,-2.2906,-2.2536,-2.2492,-2.2315,-2.2041,-2.1952,-2.1952,-2.1908,-2.1952,-2.1908,-2.1952,-2.1952,-2.1952,-2.1996,-2.2315,-2.2731,-2.3047,-2.3101,-2.3101,-2.3101,-2.3101,-2.3101,-2.3091,-2.3101,-2.3101,-2.3101,-2.3135,-2.3101,-2.3101,-2.3101,-2.3135,-2.3101,-2.3091,-2.3101,-2.3101,-2.3101,-2.3101,-2.3101,-2.3101,-2.3101,-2.3003,-2.2765,-2.2677,-2.3003,-2.3101,-2.3101,-2.3101,-2.3091,-2.3101,-2.3101,-2.3101,-2.3101,-2.3101,-2.3101,-2.3101,-2.3101,-2.3101,-2.3047,-2.2633,-2.2536,-2.2315,-2.1996,-2.1765,-2.1721,-2.2024,-2.2043,-2.2998,-2.3115,-2.3226,-2.2984,-2.296,-2.3003,-2.3256,-2.3963,-2.4425,-2.4713,-2.501,-2.5347,-2.5473,-2.5515,-2.5755,-2.5911,-2.6088,-2.6348,-2.6565,-2.3545,-2.312,-2.3101,-2.3101,-2.3101,-2.3101,-2.3101,-2.3101,-2.3101,-2.3101,-2.3101,-2.3101,-2.3101,-2.3091,-2.295,-2.2994,-2.2906,-2.2775,-2.2862,-2.3091,-2.3101,-2.3047,-2.2906,-2.2906,-2.2818,-2.2731,-2.2916,-2.2916,-2.2775,-2.2677,-2.2217,-2.1436,-2.1293,-2.0854,-1.9633,-1.9861,-1.9724,-1.9815,-1.9861,-1.977,-1.9542,-1.977,-1.9861,-1.9861,-2.0755,-2.1756,-2.2862,-2.3003,-2.3101,-2.3101,-2.3101,-2.3101,-2.3101,-2.3101,-2.3101,-2.3101,-2.3101,-2.3101,-2.3101,-2.3003,-2.2906,-2.2862,-2.296,-2.2687,-2.2589,-2.2687,-2.2731,-2.2633,-2.2731,-2.2828,-2.2633,-2.1898,-2.1756,-2.2818,-2.2775,-2.2643,-2.2775,-2.296,-2.3003,-2.2818,-2.2687,-2.3003,-2.3003,-2.2687,-2.2545,-2.2589,-2.2589,-2.2315,-2.1489,-2.1293,-2.0755,-2.0087,-2.0087,-2.0404,-1.9997,-1.9724,-2.1087,-2.2217,-2.2394,-2.2403,-2.2545,-2.2599,-2.2818,-2.3357,-2.3129,-2.3424,-2.379,-2.4049,-2.378,-2.3867,-2.4286,-2.4787,-2.4925,-2.5189,-2.5694,-2.3535,-2.311,-2.3101,-2.3101,-2.3101,-2.3101,-2.3101,-2.3091,-2.3091,-2.3091,-2.3101,-2.3101,-2.3101,-2.2862,-2.2262,-2.1845,-2.18,-2.1078,-2.1489,-2.2818,-2.3047,-2.258,-2.1987,-2.1889,-2.1436,-2.0764,-2.0629,-2.0629,-2.0674,-2.0683,-2.035,-2.0124,-2.0034,-1.9906,-1.9451,-1.9497,-1.9497,-1.9497,-1.9497,-1.9497,-1.9497,-1.9497,-1.9497,-1.9542,-1.9898,-2.026,-2.0674,-2.2183,-2.3047,-2.3047,-2.3101,-2.3101,-2.3091,-2.3101,-2.3101,-2.3101,-2.3101,-2.3101,-2.3003,-2.2306,-2.1854,-2.173,-2.1141,-2.0683,-2.0629,-2.0674,-2.0719,-2.0674,-2.0629,-2.0629,-2.0539,-2.0359,-2.0584,-2.1712,-2.1123,-2.0764,-2.0863,-2.0773,-2.0629,-2.0629,-2.0629,-2.0638,-2.0683,-2.0728,-2.0818,-2.0818,-2.0773,-2.0539,-2.0215,-2.0079,-2.0034,-1.9542,-1.9497,-1.9177,-1.8902,-1.8764,-1.9443,-2.044,-2.0854,-2.1445,-2.173,-2.1908,-2.2217,-2.2306,-2.2085,-2.2129,-2.2501,-2.2545,-2.2262,-2.2589,-2.3226,-2.3531,-2.3627,-2.392,-2.4329,-2.3119,-2.264,-2.2017,-2.1774,-2.1774,-2.1774,-2.1765,-2.1765,-2.1765,-2.1765,-2.173,-2.1774,-2.1765,-2.1632,-2.0944,-2.0666,-2.0576,-1.9815,-2.0314,-2.1587,-2.1765,-2.1311,-2.0666,-2.0621,-2.0305,-1.9679,-1.9497,-1.9497,-1.9497,-1.9497,-1.9314,-1.891,-1.8818,-1.8542,-1.8164,-1.8118,-1.8126,-1.8126,-1.8079,-1.8126,-1.8118,-1.8118,-1.8118,-1.8172,-1.8588,-1.8818,-1.8956,-2.0764,-2.1774,-2.1765,-2.1765,-2.1765,-2.1774,-2.1721,-2.1774,-2.1774,-2.1721,-2.1721,-2.1686,-2.0989,-2.0621,-2.0449,-1.9951,-1.9542,-1.9542,-1.9497,-1.9497,-1.9497,-1.9588,-1.9497,-1.9497,-1.9039,-1.9222,-1.9844,-1.9807,-1.9497,-1.9497,-1.9497,-1.9542,-1.9633,-1.9588,-1.9497,-1.9497,-1.9497,-1.9497,-1.9497,-1.9497,-1.9185,-1.9039,-1.8818,-1.868,-1.8403,-1.7848,-1.7755,-1.794,-1.7987,-1.7987,-1.858,-1.9077,-1.9906,-2.0548,-2.0629,-2.0809,-2.0899,-2.0809,-2.0719,-2.1042,-2.0899,-2.08,-2.1489,-2.1996,-2.1667,-2.1614,-2.2252,-2.2673,-2.2256,-2.1713,-2.0229,-1.9704,-1.9679,-1.9724,-1.977,-1.9633,-1.9679,-1.9761,-1.9716,-1.9861,-1.9724,-1.9588,-1.9534,-1.9405,-1.936,-1.9085,-1.8948,-1.9222,-1.9306,-1.9214,-1.9397,-1.9169,-1.8985,-1.8993,-1.8993,-1.9085,-1.8856,-1.8902,-1.8726,-1.7684,-1.7544,-1.7037,-1.6379,-1.5927,-1.6103,-1.6197,-1.6055,-1.6062,-1.6055,-1.6015,-1.6008,-1.6055,-1.7037,-1.7591,-1.777,-1.8672,-1.9405,-1.9488,-1.9815,-1.9861,-1.9633,-1.9542,-1.977,-1.9815,-1.9588,-1.9724,-1.9633,-1.9542,-1.9405,-1.9405,-1.9131,-1.926,-1.8948,-1.881,-1.881,-1.8856,-1.8948,-1.9039,-1.881,-1.8226,-1.7731,-1.7731,-1.8357,-1.8856,-1.9222,-1.9085,-1.8856,-1.8985,-1.9214,-1.9222,-1.8948,-1.8948,-1.8993,-1.8993,-1.8902,-1.8403,-1.7909,-1.7451,-1.699,-1.6709,-1.6615,-1.6655,-1.6976,-1.6976,-1.6976,-1.7203,-1.7708,-1.8449,-1.936,-1.9588,-1.9852,-1.9852,-1.9542,-1.9497,-1.9588,-1.9633,-1.9761,-2.0215,-2.0178,-1.9588,-1.9951,-2.0809,-2.1168,-2.1035,-2.0416,-1.9972,-1.9681,-1.9513,-1.9497,-1.9451,-1.9497,-1.9451,-1.9314,-1.9451,-1.9497,-1.936,-1.9405,-1.8495,-1.8187,-1.7994,-1.725,-1.6796,-1.6796,-1.6796,-1.735,-1.777,-1.721,-1.6882,-1.6882,-1.7023,-1.6788,-1.6741,-1.6976,-1.6702,-1.6339,-1.6386,-1.6197,-1.5832,-1.5825,-1.5825,-1.5825,-1.5825,-1.5825,-1.5825,-1.5825,-1.5825,-1.5825,-1.615,-1.6339,-1.6339,-1.656,-1.7755,-1.936,-1.9497,-1.9497,-1.936,-1.936,-1.9268,-1.9268,-1.936,-1.9451,-1.9268,-1.8634,-1.8226,-1.8095,-1.7483,-1.6796,-1.6749,-1.6788,-1.6788,-1.6796,-1.6796,-1.6889,-1.6796,-1.6567,-1.6386,-1.6339,-1.6796,-1.6976,-1.6929,-1.6788,-1.6741,-1.6749,-1.6882,-1.6976,-1.7023,-1.7023,-1.7023,-1.6976,-1.6976,-1.6936,-1.6662,-1.6527,-1.6292,-1.6157,-1.6008,-1.592,-1.592,-1.592,-1.5967,-1.6055,-1.6473,-1.6983,-1.7994,-1.881,-1.9222,-1.9588,-1.8542,-1.8172,-1.8634,-1.891,-1.9047,-1.8894,-1.9031,-1.8894,-1.926,-1.9898,-1.9951,-1.9984,-1.9548,-1.8747,-1.8328,-1.8138,-1.7994,-1.794,-1.794,-1.7933,-1.794,-1.7933,-1.794,-1.794,-1.7855,-1.721,-1.6897,-1.6756,-1.615,-1.5872,-1.5825,-1.592,-1.6292,-1.6615,-1.6062,-1.5825,-1.5825,-1.5825,-1.5872,-1.5872,-1.5825,-1.5825,-1.5872,-1.5825,-1.5825,-1.5825,-1.5825,-1.5825,-1.5825,-1.5825,-1.5825,-1.5825,-1.5825,-1.5825,-1.5825,-1.5825,-1.5825,-1.5825,-1.5825,-1.656,-1.7662,-1.7933,-1.7933,-1.794,-1.794,-1.794,-1.794,-1.7933,-1.7886,-1.7848,-1.7257,-1.6943,-1.6803,-1.6103,-1.592,-1.5872,-1.5825,-1.5825,-1.5872,-1.5825,-1.5825,-1.5825,-1.5825,-1.5825,-1.5872,-1.5825,-1.5825,-1.5825,-1.592,-1.5825,-1.5825,-1.5825,-1.5825,-1.5825,-1.5825,-1.5825,-1.5872,-1.6055,-1.6008,-1.592,-1.5825,-1.5825,-1.5825,-1.5825,-1.5825,-1.5825,-1.5825,-1.5825,-1.5825,-1.5872,-1.6251,-1.6803,-1.7809,-1.7848,-1.7894,-1.7304,-1.7037,-1.749,-1.7677,-1.735,-1.7382,-1.784,-1.8072,-1.8118,-1.8672,-1.8726,-1.9027,-1.8845,-1.7118,-1.6382,-1.6372,-1.604,-1.6103,-1.5872,-1.6055,-1.6008,-1.6008,-1.5872,-1.615,-1.5825,-1.6103,-1.5872,-1.5872,-1.5872,-1.5825,-1.5825,-1.5825,-1.592,-1.5967,-1.592,-1.5825,-1.5825,-1.5825,-1.5825,-1.5825,-1.5825,-1.5825,-1.5825,-1.5825,-1.5825,-1.5825,-1.5825,-1.5825,-1.5825,-1.5825,-1.5825,-1.5825,-1.5825,-1.5825,-1.5825,-1.5825,-1.5825,-1.5825,-1.5825,-1.5961,-1.5872,-1.5825,-1.6055,-1.5967,-1.592,-1.5967,-1.6055,-1.619,-1.615,-1.592,-1.6055,-1.592,-1.592,-1.592,-1.5825,-1.5825,-1.5825,-1.5825,-1.5825,-1.5825,-1.5825,-1.5825,-1.5825,-1.5825,-1.5825,-1.5825,-1.5825,-1.5825,-1.5825,-1.5825,-1.5825,-1.5825,-1.5825,-1.5825,-1.5825,-1.5825,-1.5825,-1.5825,-1.5825,-1.5825,-1.5825,-1.5825,-1.5825,-1.5825,-1.5825,-1.5825,-1.5825,-1.5825,-1.5825,-1.5825,-1.5967,-1.5967,-1.6426,-1.615,-1.6015,-1.6292,-1.6339,-1.6244,-1.6197,-1.6055,-1.615,-1.6788,-1.6419,-1.6103,-1.707,-1.7444,-1.7815,-1.7589,-1.716,-1.6744,-1.6355,-1.6199,-1.6046,-1.5791,-1.5832,-1.5825,-1.5825,-1.5825,-1.5825,-1.5825,-1.5825,-1.5825,-1.5825,-1.5825,-1.5825,-1.5825,-1.5825,-1.5825,-1.5825,-1.5825,-1.5825,-1.5825,-1.5825,-1.5825,-1.5825,-1.5825,-1.5825,-1.5825,-1.5825,-1.5825,-1.5825,-1.5825,-1.5825,-1.5825,-1.5825,-1.5825,-1.5825,-1.5825,-1.5825,-1.5825,-1.5825,-1.5825,-1.5825,-1.5825,-1.5825,-1.5825,-1.5825,-1.5825,-1.5825,-1.5825,-1.5825,-1.5825,-1.5825,-1.5825,-1.5825,-1.5825,-1.5825,-1.5825,-1.5825,-1.5825,-1.5825,-1.5825,-1.5825,-1.5825,-1.5825,-1.5825,-1.5825,-1.5825,-1.5825,-1.5825,-1.573,-1.5683,-1.5778,-1.5778,-1.5825,-1.5825,-1.5825,-1.5825,-1.5825,-1.5825,-1.5825,-1.5825,-1.5825,-1.5825,-1.5825,-1.5825,-1.5825,-1.5825,-1.5825,-1.5825,-1.5825,-1.5825,-1.5825,-1.5629,-1.5534,-1.5778,-1.5778,-1.5581,-1.5486,-1.5629,-1.5872,-1.5825,-1.5825,-1.5825,-1.592,-1.5825,-1.5825,-1.5825,-1.592,-1.6292,-1.648,-1.7495,-1.7393,-1.7259,-1.7018,-1.6717,-1.6442,-1.6179,-1.6025,-1.5879,-1.5825,-1.5825,-1.5825,-1.5825,-1.5825,-1.5825,-1.5825,-1.5825,-1.5825,-1.5825,-1.5825,-1.5825,-1.5825,-1.5825,-1.5825,-1.5825,-1.5825,-1.5825,-1.5825,-1.5825,-1.5825,-1.5825,-1.5825,-1.5825,-1.5825,-1.5825,-1.5825,-1.5825,-1.5825,-1.5825,-1.5825,-1.5825,-1.5825,-1.5825,-1.5825,-1.5825,-1.5825,-1.5825,-1.5825,-1.5825,-1.5825,-1.5825,-1.5825,-1.5825,-1.5825,-1.5825,-1.5825,-1.5825,-1.5825,-1.5825,-1.5825,-1.5825,-1.5825,-1.5825,-1.5825,-1.5825,-1.5825,-1.5825,-1.5825,-1.5825,-1.5825,-1.5825,-1.5825,-1.5778,-1.5683,-1.5242,-1.4949,-1.4997,-1.5391,-1.5825,-1.5825,-1.5825,-1.5825,-1.5825,-1.5534,-1.5629,-1.5581,-1.5703,-1.575,-1.5784,-1.5784,-1.5825,-1.5825,-1.5825,-1.5825,-1.5825,-1.5825,-1.5825,-1.5486,-1.5045,-1.5384,-1.5635,-1.5384,-1.5045,-1.5384,-1.5825,-1.5825,-1.5825,-1.5825,-1.573,-1.5778,-1.5778,-1.5825,-1.5872,-1.6062,-1.6109,-1.7589,-1.7562,-1.7367,-1.7239,-1.7125,-1.6677,-1.64,-1.6299,-1.6025,-1.5932,-1.5879,-1.5818,-1.5825,-1.5825,-1.5825,-1.5825,-1.5825,-1.5825,-1.5825,-1.5825,-1.5825,-1.5825,-1.5825,-1.5825,-1.5825,-1.5825,-1.5825,-1.5825,-1.5825,-1.5825,-1.5825,-1.5825,-1.5825,-1.5825,-1.5825,-1.5825,-1.5825,-1.5825,-1.5825,-1.5825,-1.5825,-1.5825,-1.5825,-1.5825,-1.5825,-1.5825,-1.5825,-1.5825,-1.5825,-1.5825,-1.5825,-1.5825,-1.5825,-1.5825,-1.5825,-1.5825,-1.5825,-1.5825,-1.5825,-1.5825,-1.5825,-1.5825,-1.5825,-1.5825,-1.5825,-1.5825,-1.5825,-1.5825,-1.5778,-1.5683,-1.5581,-1.5337,-1.5242,-1.4956,-1.4124,-1.3686,-1.3782,-1.4609,-1.4806,-1.4949,-1.4561,-1.4418,-1.4806,-1.4854,-1.5092,-1.535,-1.543,-1.5456,-1.5408,-1.5271,-1.4961,-1.4671,-1.4376,-1.4232,-1.4274,-1.437,-1.4561,-1.4513,-1.4124,-1.4411,-1.4758,-1.4268,-1.3974,-1.5384,-1.5825,-1.573,-1.5534,-1.5337,-1.5337,-1.5629,-1.5534,-1.5242,-1.5432,-1.573,-1.5778,-1.7589,-1.7582,-1.7528,-1.7427,-1.7213,-1.7085,-1.6891,-1.6607,-1.6326,-1.6199,-1.6172,-1.5945,-1.5852,-1.5838,-1.5825,-1.5825,-1.5825,-1.5825,-1.5845,-1.5858,-1.5872,-1.5872,-1.5925,-1.5939,-1.5892,-1.5825,-1.5865,-1.5899,-1.5832,-1.5825,-1.5825,-1.5825,-1.5825,-1.5825,-1.5825,-1.5825,-1.5825,-1.5825,-1.5825,-1.5825,-1.5825,-1.5825,-1.5825,-1.5825,-1.5825,-1.5825,-1.5825,-1.5825,-1.5825,-1.5825,-1.5825,-1.5825,-1.5825,-1.5825,-1.5825,-1.5825,-1.5825,-1.5825,-1.5825,-1.5825,-1.5825,-1.5825,-1.5825,-1.5778,-1.573,-1.5683,-1.5486,-1.5439,-1.5391,-1.5289,-1.431,-1.422,-1.3638,-1.2963,-1.2479,-1.2237,-1.228,-1.2377,-1.2576,-1.2571,-1.2528,-1.2872,-1.3409,-1.3775,-1.3876,-1.3994,-1.4137,-1.3927,-1.3709,-1.3457,-1.3116,-1.2838,-1.2497,-1.244,-1.2382,-1.2528,-1.2673,-1.2818,-1.2673,-1.2619,-1.2764,-1.2474,-1.2866,-1.4172,-1.5051,-1.5194,-1.4997,-1.4657,-1.4657,-1.4711,-1.4657,-1.4555,-1.4704,-1.4908,-1.5439,-1.7589,-1.7589,-1.7589,-1.7554,-1.7414,-1.7259,-1.7125,-1.6951,-1.6627,-1.65,-1.6413,-1.6199,-1.6059,-1.6019,-1.5831,-1.5832,-1.5838,-1.5825,-1.5912,-1.6012,-1.6066,-1.6159,-1.6239,-1.6266,-1.6237,-1.6293,-1.6279,-1.6086,-1.5858,-1.5825,-1.5852,-1.5825,-1.5825,-1.5825,-1.5825,-1.5825,-1.5832,-1.5832,-1.5825,-1.5825,-1.5825,-1.5825,-1.5825,-1.5825,-1.5825,-1.5825,-1.5825,-1.5825,-1.5825,-1.5825,-1.5825,-1.5825,-1.5825,-1.5825,-1.5825,-1.5825,-1.5825,-1.5825,-1.5825,-1.5825,-1.5825,-1.5825,-1.5778,-1.5439,-1.5045,-1.4704,-1.4555,-1.4028,-1.3788,-1.3547,-1.2915,-1.2866,-1.2528,-1.1994,-1.1361,-1.097,-1.0774,-1.0337,-1.0199,-1.035,-1.1331,-1.1922,-1.2214,-1.2504,-1.2583,-1.2694,-1.2825,-1.2546,-1.2086,-1.1933,-1.1776,-1.1786,-1.1635,-1.151,-1.1398,-1.1315,-1.1277,-1.1268,-1.1219,-1.1165,-1.1214,-1.1165,-1.1843,-1.2963,-1.3644,-1.3782,-1.3644,-1.306,-1.3403,-1.3644,-1.3301,-1.3156,-1.3644,-1.413,-1.4567,-1.7589,-1.7589,-1.7589,-1.7589,-1.7542,-1.7393,-1.7293,-1.7226,-1.6971,-1.6794,-1.6754,-1.6506,-1.6359,-1.6306,-1.6152,-1.5977,-1.5957,-1.6032,-1.6172,-1.6313,-1.6359,-1.6493,-1.6633,-1.6707,-1.6653,-1.6593,-1.6613,-1.6466,-1.6117,-1.6079,-1.5977,-1.6072,-1.6032,-1.5959,-1.5959,-1.5965,-1.5905,-1.5832,-1.5825,-1.5825,-1.5825,-1.5825,-1.5825,-1.5825,-1.5825,-1.5825,-1.5825,-1.5825,-1.5825,-1.5825,-1.5825,-1.5825,-1.5825,-1.5825,-1.5825,-1.5825,-1.5825,-1.5825,-1.5825,-1.5784,-1.5635,-1.5242,-1.5337,-1.4704,-1.3878,-1.3397,-1.3108,-1.2139,-1.2042,-1.1896,-1.1653,-1.1512,-1.1317,-1.0828,-1.0096,-0.9558,-0.9361,-0.9031,-0.8667,-0.921,-1.0381,-1.0766,-1.0816,-1.1276,-1.1356,-1.1184,-1.1303,-1.1291,-1.0967,-1.0915,-1.0841,-1.1012,-1.1003,-1.0851,-1.0666,-1.046,-1.0304,-1.0096,-0.9899,-0.9752,-0.9948,-1.0096,-1.0774,-1.1209,-1.1063,-1.1161,-1.1214,-1.1707,-1.2091,-1.2188,-1.175,-1.1945,-1.2624,-1.3011,-1.3349,-1.7589,-1.7589,-1.7589,-1.7589,-1.7582,-1.7535,-1.7574,-1.7482,-1.7259,-1.7152,-1.7132,-1.68,-1.6647,-1.66,-1.6593,-1.6573,-1.6567,-1.6533,-1.6553,-1.6647,-1.666,-1.67,-1.6734,-1.6707,-1.6807,-1.6834,-1.6787,-1.668,-1.658,-1.6573,-1.6553,-1.6533,-1.6486,-1.648,-1.6233,-1.6219,-1.6079,-1.5885,-1.5832,-1.5825,-1.5825,-1.5825,-1.5778,-1.5683,-1.5683,-1.5534,-1.5337,-1.5289,-1.5384,-1.5486,-1.5635,-1.573,-1.5825,-1.5825,-1.5825,-1.5825,-1.5825,-1.5825,-1.5778,-1.5635,-1.5194,-1.4507,-1.4166,-1.3392,-1.2522,-1.194,-1.1794,-1.2042,-1.175,-1.1165,-1.0386,-1.0243,-0.9653,-0.9164,-0.8775,-0.8489,-0.83,-0.8653,-0.818,-0.8255,-0.9439,-0.9208,-0.9089,-0.9693,-1.0116,-0.9936,-0.9768,-0.9849,-0.9899,-0.9953,-0.9887,-1.0011,-1.006,-0.9931,-0.9916,-0.9653,-0.9523,-0.918,-0.8962,-0.8706,-0.8874,-0.9069,-0.8676,-0.8966,-0.8871,-0.9456,-1.0337,-1.0828,-1.0925,-1.0779,-1.0485,-1.1023,-1.1804,-1.2042,-1.2134,-1.7589,-1.7589,-1.7589,-1.7589,-1.7589,-1.7589,-1.7589,-1.7562,-1.7455,-1.744,-1.7387,-1.7088,-1.6874,-1.6767,-1.6707,-1.67,-1.6707,-1.6727,-1.6814,-1.6941,-1.6967,-1.7034,-1.7188,-1.7201,-1.7201,-1.7161,-1.7201,-1.7241,-1.7121,-1.6867,-1.6707,-1.6727,-1.6714,-1.664,-1.6576,-1.652,-1.6346,-1.6126,-1.5932,-1.5832,-1.5825,-1.573,-1.5439,-1.4758,-1.4711,-1.4364,-1.3878,-1.359,-1.3596,-1.3596,-1.3596,-1.3596,-1.3596,-1.3547,-1.3547,-1.3542,-1.3547,-1.4226,-1.5445,-1.5051,-1.4411,-1.383,-1.3151,-1.2183,-1.1019,-1.019,-0.9797,-0.9653,-0.9653,-0.941,-0.9122,-0.8871,-0.8577,-0.8191,-0.8035,-0.8126,-0.8153,-0.8174,-0.8221,-0.8309,-0.8397,-0.8428,-0.8465,-0.8916,-0.9452,-0.9379,-0.9294,-0.9378,-0.9312,-0.9272,-0.9132,-0.8962,-0.8973,-0.8871,-0.8926,-0.8843,-0.8922,-0.874,-0.869,-0.8405,-0.8208,-0.8088,-0.7988,-0.7988,-0.8333,-0.897,-0.9752,-0.9653,-0.946,-0.9361,-0.9213,-0.9752,-1.0288,-1.0681,-1.0921,-1.7589,-1.7589,-1.7589,-1.7589,-1.7589,-1.7589,-1.7589,-1.7589,-1.7575,-1.7582,-1.7588,-1.74,-1.7179,-1.6974,-1.6961,-1.6994,-1.6954,-1.6927,-1.7054,-1.7201,-1.7333,-1.742,-1.7462,-1.7542,-1.7542,-1.7589,-1.7502,-1.7508,-1.7402,-1.7208,-1.6987,-1.6921,-1.7014,-1.6907,-1.6834,-1.68,-1.6673,-1.6393,-1.6106,-1.5739,-1.5406,-1.528,-1.4526,-1.383,-1.3295,-1.2915,-1.2091,-1.1994,-1.2042,-1.2091,-1.2139,-1.2285,-1.2237,-1.2285,-1.2285,-1.2285,-1.2334,-1.2915,-1.3788,-1.383,-1.3349,-1.2619,-1.1794,-1.0382,-0.9653,-0.8478,-0.8038,-0.8333,-0.8283,-0.8254,-0.8085,-0.8156,-0.8251,-0.8224,-0.8137,-0.8241,-0.8289,-0.8313,-0.8374,-0.8482,-0.8567,-0.8632,-0.8676,-0.8737,-0.8818,-0.8835,-0.8849,-0.8923,-0.8881,-0.8878,-0.8821,-0.8757,-0.875,-0.8703,-0.8601,-0.8516,-0.8445,-0.8377,-0.8378,-0.8255,-0.8163,-0.8025,-0.7988,-0.7988,-0.7995,-0.8233,-0.8871,-0.8432,-0.8038,-0.8333,-0.8577,-0.8333,-0.8577,-0.9118,-0.985,-1.7589,-1.7589,-1.7589,-1.7589,-1.7589,-1.7589,-1.7589,-1.7589,-1.7589,-1.7589,-1.7582,-1.7542,-1.7495,-1.7475,-1.7422,-1.7435,-1.7495,-1.7568,-1.7488,-1.7502,-1.7555,-1.7542,-1.7589,-1.7589,-1.7589,-1.7589,-1.7589,-1.7589,-1.7575,-1.7495,-1.7448,-1.7515,-1.7375,-1.734,-1.7226,-1.7112,-1.6934,-1.661,-1.619,-1.5445,-1.4722,-1.4169,-1.3357,-1.236,-1.2052,-1.195,-1.1848,-1.1556,-1.1409,-1.1361,-1.1312,-1.1312,-1.1165,-1.1214,-1.1214,-1.1214,-1.1263,-1.1604,-1.1891,-1.2086,-1.1507,-1.0337,-0.9361,-0.8722,-0.8478,-0.824,-0.7995,-0.8022,-0.8059,-0.8157,-0.8214,-0.8265,-0.8299,-0.8326,-0.8343,-0.8391,-0.8435,-0.8459,-0.8526,-0.8648,-0.8723,-0.8771,-0.8801,-0.8842,-0.8852,-0.8862,-0.8866,-0.8937,-0.8937,-0.8881,-0.8881,-0.8889,-0.8896,-0.8842,-0.873,-0.8659,-0.8615,-0.852,-0.8442,-0.836,-0.8272,-0.8187,-0.8046,-0.8019,-0.8029,-0.8008,-0.7988,-0.7988,-0.7988,-0.7988,-0.7988,-0.7988,-0.7988,-0.8428,-0.9118,-1.7589,-1.7589,-1.7589,-1.7589,-1.7589,-1.7589,-1.7589,-1.7589,-1.7589,-1.7589,-1.7589,-1.7589,-1.7589,-1.7589,-1.7589,-1.7589,-1.7589,-1.7589,-1.7589,-1.7589,-1.7582,-1.7589,-1.7589,-1.7589,-1.7589,-1.7589,-1.7589,-1.7589,-1.7589,-1.7589,-1.7589,-1.7582,-1.7589,-1.7581,-1.7454,-1.7196,-1.7036,-1.6591,-1.5834,-1.4813,-1.4483,-1.3362,-1.2279,-1.1006,-1.0852,-1.0289,-0.9628,-0.9509,-0.9509,-0.9567,-0.9673,-0.9731,-0.9793,-0.9785,-0.9785,-0.9785,-0.9789,-0.9785,-0.9924,-1.0207,-1.0092,-0.9065,-0.8333,-0.8002,-0.8029,-0.8126,-0.817,-0.8208,-0.8255,-0.8323,-0.8377,-0.8401,-0.8421,-0.8518,-0.8509,-0.8554,-0.8587,-0.8615,-0.8662,-0.8774,-0.8832,-0.8821,-0.8899,-0.8923,-0.8927,-0.893,-0.8933,-0.8937,-0.8937,-0.8937,-0.8937,-0.8937,-0.8937,-0.8937,-0.8832,-0.8801,-0.8784,-0.8676,-0.856,-0.8486,-0.8404,-0.8282,-0.8201,-0.816,-0.8109,-0.8085,-0.8015,-0.7995,-0.7988,-0.7988,-0.7988,-0.7988,-0.7988,-0.7988,-0.8432,-1.7589,-1.7589,-1.7589,-1.7589,-1.7589,-1.7589,-1.7589,-1.7589,-1.7589,-1.7589,-1.7589,-1.7589,-1.7589,-1.7589,-1.7589,-1.7589,-1.7589,-1.7589,-1.7589,-1.7589,-1.7589,-1.7589,-1.7589,-1.7589,-1.7589,-1.7589,-1.7589,-1.7589,-1.7589,-1.7589,-1.7589,-1.7589,-1.7589,-1.7569,-1.7417,-1.6925,-1.6685,-1.6251,-1.5021,-1.3735,-1.3318,-1.235,-1.1158,-0.9953,-0.9689,-0.9352,-0.8733,-0.8566,-0.8505,-0.8454,-0.8397,-0.8282,-0.8228,-0.817,-0.817,-0.817,-0.812,-0.8113,-0.8412,-0.8721,-0.908,-0.8447,-0.8302,-0.8194,-0.8201,-0.8272,-0.8326,-0.8391,-0.8477,-0.8503,-0.853,-0.855,-0.8604,-0.8662,-0.8686,-0.8723,-0.8754,-0.8726,-0.8774,-0.8838,-0.8865,-0.8868,-0.8871,-0.8937,-0.8937,-0.8937,-0.8937,-0.8937,-0.8937,-0.8937,-0.8937,-0.8937,-0.8937,-0.8937,-0.893,-0.8889,-0.8849,-0.8811,-0.8706,-0.8635,-0.8543,-0.8418,-0.8336,-0.8313,-0.8248,-0.8147,-0.8099,-0.8092,-0.8015,-0.7988,-0.7988,-0.7988,-0.7988,-0.7988,-0.7988,-1.7589,-1.7589,-1.7589,-1.7589,-1.7589,-1.7589,-1.7589,-1.7589,-1.7589,-1.7589,-1.7589,-1.7589,-1.7589,-1.7589,-1.7589,-1.7589,-1.7589,-1.7589,-1.7589,-1.7589,-1.7589,-1.7589,-1.7589,-1.7589,-1.7589,-1.7589,-1.7589,-1.7589,-1.7589,-1.7589,-1.7589,-1.7206,-1.6988,-1.71,-1.7364,-1.6115,-1.5453,-1.5205,-1.3646,-1.2418,-1.1578,-1.0901,-0.9842,-0.916,-0.8891,-0.8661,-0.8498,-0.8384,-0.8377,-0.8384,-0.8391,-0.8391,-0.8397,-0.8404,-0.8411,-0.8418,-0.8428,-0.8445,-0.8511,-0.8443,-0.8446,-0.8443,-0.837,-0.8391,-0.8435,-0.8472,-0.8479,-0.8486,-0.8533,-0.8594,-0.8648,-0.8713,-0.8781,-0.8763,-0.878,-0.8794,-0.8814,-0.8828,-0.8858,-0.8871,-0.8878,-0.8937,-0.8937,-0.8937,-0.8937,-0.8937,-0.8937,-0.8937,-0.8937,-0.8937,-0.8937,-0.8937,-0.8937,-0.8937,-0.8937,-0.8937,-0.8913,-0.8889,-0.8845,-0.8767,-0.8682,-0.8574,-0.8509,-0.8476,-0.8377,-0.8265,-0.8194,-0.8143,-0.8089,-0.7988,-0.7988,-0.7988,-0.7988,-0.7988,-0.7988,-1.7589,-1.7589,-1.7589,-1.7589,-1.7589,-1.7589,-1.7589,-1.7589,-1.7589,-1.7589,-1.7589,-1.7589,-1.7589,-1.7589,-1.7589,-1.7589,-1.7589,-1.7589,-1.7589,-1.7589,-1.7589,-1.7589,-1.7589,-1.7589,-1.7589,-1.7582,-1.7582,-1.7477,-1.7589,-1.7318,-1.677,-1.6333,-1.5423,-1.5316,-1.5476,-1.4829,-1.4019,-1.3739,-1.2538,-1.1441,-1.0891,-1.0023,-0.9205,-0.8642,-0.8632,-0.8594,-0.852,-0.8523,-0.8523,-0.852,-0.8523,-0.8516,-0.8513,-0.8513,-0.8559,-0.8496,-0.8492,-0.8537,-0.8591,-0.8627,-0.8579,-0.8523,-0.8509,-0.8516,-0.8542,-0.8587,-0.8618,-0.8655,-0.8706,-0.8777,-0.8794,-0.8859,-0.8841,-0.8841,-0.8906,-0.891,-0.8865,-0.8868,-0.8878,-0.8878,-0.8937,-0.8937,-0.8937,-0.8937,-0.8937,-0.8937,-0.8937,-0.8937,-0.8937,-0.8937,-0.8937,-0.8937,-0.8937,-0.8937,-0.8937,-0.8937,-0.8937,-0.8916,-0.891,-0.8889,-0.8801,-0.871,-0.8672,-0.8632,-0.8506,-0.8436,-0.8292,-0.8197,-0.8042,-0.7988,-0.7998,-0.7995,-0.7988,-0.7988,-0.7988,-1.7589,-1.7589,-1.7589,-1.7589,-1.7589,-1.7589,-1.7589,-1.7589,-1.7589,-1.7589,-1.7589,-1.7589,-1.7589,-1.7589,-1.7589,-1.7589,-1.7589,-1.7589,-1.7589,-1.7589,-1.7589,-1.7589,-1.7589,-1.7529,-1.7589,-1.7477,-1.6988,-1.677,-1.6611,-1.6287,-1.553,-1.4502,-1.3264,-1.321,-1.3372,-1.294,-1.2512,-1.2127,-1.1134,-1.0276,-0.9951,-0.9446,-0.8931,-0.8815,-0.8777,-0.8747,-0.8672,-0.8638,-0.8635,-0.8632,-0.8632,-0.8632,-0.8635,-0.8638,-0.8638,-0.8642,-0.8652,-0.8703,-0.8764,-0.8784,-0.873,-0.8679,-0.8642,-0.8638,-0.8648,-0.8743,-0.8777,-0.8821,-0.8838,-0.8858,-0.8875,-0.8937,-0.8937,-0.8937,-0.8937,-0.8937,-0.8937,-0.8937,-0.8937,-0.8937,-0.8937,-0.8937,-0.8937,-0.8937,-0.8937,-0.8937,-0.8937,-0.8937,-0.8937,-0.8937,-0.8937,-0.8937,-0.8937,-0.8937,-0.8937,-0.8937,-0.8937,-0.8937,-0.8937,-0.8937,-0.8861,-0.877,-0.8804,-0.8771,-0.8645,-0.8516,-0.837,-0.8258,-0.8177,-0.8106,-0.8019,-0.8012,-0.7992,-0.7988,-0.7988,-1.7589,-1.7589,-1.7589,-1.7589,-1.7589,-1.7589,-1.7589,-1.7589,-1.7589,-1.7529,-1.7477,-1.7371,-1.71,-1.7199,-1.7259,-1.71,-1.6988,-1.7041,-1.6988,-1.7041,-1.6664,-1.6935,-1.6988,-1.6988,-1.6664,-1.6558,-1.618,-1.5364,-1.5204,-1.4239,-1.3485,-1.294,-1.1751,-1.1428,-1.121,-1.116,-1.1055,-1.0617,-1.0076,-0.9427,-0.921,-0.9044,-0.8868,-0.8893,-0.8889,-0.8886,-0.8859,-0.8866,-0.8879,-0.8889,-0.8903,-0.8913,-0.8923,-0.8933,-0.8878,-0.8868,-0.8906,-0.8848,-0.8848,-0.8848,-0.8848,-0.8852,-0.8882,-0.8861,-0.8848,-0.8879,-0.8879,-0.8889,-0.8871,-0.8875,-0.8937,-0.8937,-0.8937,-0.8937,-0.8937,-0.8937,-0.8937,-0.8937,-0.8937,-0.8937,-0.8937,-0.8937,-0.8937,-0.8937,-0.8937,-0.8937,-0.8937,-0.8937,-0.8937,-0.8937,-0.8937,-0.8937,-0.8937,-0.8937,-0.8937,-0.8937,-0.8937,-0.8937,-0.8937,-0.8937,-0.8871,-0.8868,-0.8834,-0.8835,-0.8767,-0.8652,-0.8516,-0.8391,-0.8337,-0.8218,-0.8147,-0.8029,-0.8012,-0.7992,-0.7988,-1.7589,-1.7589,-1.7589,-1.7589,-1.7589,-1.7589,-1.7589,-1.7589,-1.7589,-1.7094,-1.6062,-1.6015,-1.5636,-1.4615,-1.4561,-1.4615,-1.4615,-1.4556,-1.4508,-1.4669,-1.499,-1.4663,-1.4663,-1.4829,-1.4663,-1.4508,-1.418,-1.3857,-1.3588,-1.2457,-1.1755,-1.1483,-1.0402,-0.9805,-0.9644,-0.9588,-0.9644,-0.9588,-0.9099,-0.8992,-0.8937,-0.8937,-0.8937,-0.8937,-0.8937,-0.8937,-0.8937,-0.8937,-0.8937,-0.8937,-0.8937,-0.8937,-0.8937,-0.8937,-0.8881,-0.8881,-0.8933,-0.8933,-0.8937,-0.8937,-0.8937,-0.8937,-0.8937,-0.8937,-0.8937,-0.8937,-0.8937,-0.8937,-0.8937,-0.8937,-0.8937,-0.8937,-0.8937,-0.8937,-0.8937,-0.8937,-0.8937,-0.8937,-0.8937,-0.8937,-0.8937,-0.8937,-0.8937,-0.8937,-0.8937,-0.8937,-0.8937,-0.8937,-0.8937,-0.8937,-0.8937,-0.8937,-0.8937,-0.8937,-0.8937,-0.8937,-0.8937,-0.8937,-0.8937,-0.8937,-0.8878,-0.8878,-0.8937,-0.8896,-0.8821,-0.875,-0.8665,-0.8543,-0.8418,-0.8306,-0.8228,-0.8147,-0.8032,-0.8012,-0.7992,-1.7589,-1.7589,-1.7589,-1.7259,-1.677,-1.6717,-1.6499,-1.6068,-1.6446,-1.6174,-1.5417,-1.4824,-1.4073,-1.3534,-1.348,-1.348,-1.348,-1.3588,-1.3588,-1.3588,-1.3156,-1.348,-1.3372,-1.3215,-1.348,-1.3161,-1.2729,-1.2403,-1.2082,-1.1109,-1.0241,-1.0131,-0.9154,-0.9044,-0.8992,-0.9044,-0.8992,-0.8992,-0.8937,-0.8937,-0.8937,-0.8937,-0.8937,-0.8937,-0.8937,-0.8937,-0.8937,-0.8937,-0.8937,-0.8937,-0.8937,-0.8937,-0.8937,-0.8937,-0.8937,-0.8937,-0.8937,-0.8937,-0.8937,-0.8937,-0.8937,-0.8937,-0.8937,-0.8937,-0.8937,-0.8937,-0.8937,-0.8937,-0.8937,-0.8937,-0.8937,-0.8937,-0.8937,-0.8937,-0.8937,-0.8937,-0.8937,-0.8937,-0.8937,-0.8937,-0.8937,-0.8937,-0.8937,-0.8937,-0.8937,-0.8937,-0.8937,-0.8937,-0.8937,-0.8937,-0.8937,-0.8937,-0.8937,-0.8937,-0.8937,-0.8937,-0.8937,-0.8937,-0.8937,-0.8937,-0.8937,-0.8937,-0.8937,-0.8913,-0.8872,-0.8818,-0.8777,-0.8669,-0.855,-0.8445,-0.833,-0.8228,-0.8147,-0.8032,-0.8012,-1.7589,-1.7582,-1.7477,-1.6499,-1.5304,-1.5257,-1.4561,-1.348,-1.4502,-1.4984,-1.4609,-1.3642,-1.2945,-1.2349,-1.2295,-1.2349,-1.224,-1.224,-1.2186,-1.2891,-1.2349,-1.224,-1.2349,-1.2837,-1.2132,-1.2132,-1.181,-1.0891,-1.0566,-0.9915,-0.9265,-0.8937,-0.8937,-0.8937,-0.8937,-0.8937,-0.8937,-0.8937,-0.8937,-0.8937,-0.8937,-0.8937,-0.8937,-0.8937,-0.8937,-0.8937,-0.8937,-0.8937,-0.8937,-0.8937,-0.8937,-0.8937,-0.8937,-0.8937,-0.8937,-0.8937,-0.8937,-0.8937,-0.8937,-0.8937,-0.8937,-0.8937,-0.8937,-0.8937,-0.8937,-0.8937,-0.8937,-0.8937,-0.8937,-0.8937,-0.8937,-0.8937,-0.8937,-0.8937,-0.8937,-0.8937,-0.8937,-0.8937,-0.8937,-0.8937,-0.8937,-0.8937,-0.8937,-0.8937,-0.8937,-0.8937,-0.8937,-0.8937,-0.8937,-0.8937,-0.8937,-0.8937,-0.8937,-0.8937,-0.8937,-0.8937,-0.8937,-0.8937,-0.8937,-0.8937,-0.8937,-0.8937,-0.8937,-0.8916,-0.8899,-0.8916,-0.8879,-0.8726,-0.8639,-0.8608,-0.8482,-0.833,-0.8225,-0.7979,-0.8019,-1.7589,-1.7477,-1.6387,-1.5091,-1.3857,-1.3804,-1.3588,-1.3215,-1.2403,-1.2186,-1.2073,-1.1751,-1.1051,-1.0402,-1.0347,-1.0347,-1.0241,-1.0566,-1.0021,-1.0241,-1.0292,-1.0617,-1.0186,-1.0511,-1.0245,-0.986,-0.9537,-0.9629,-0.9588,-0.9189,-0.8895,-0.8895,-0.8912,-0.8929,-0.8984,-0.8981,-0.8984,-0.8998,-0.8991,-0.8991,-0.8984,-0.8954,-0.8937,-0.8937,-0.8937,-0.8937,-0.8937,-0.8937,-0.8937,-0.8937,-0.8937,-0.8937,-0.8937,-0.8937,-0.8937,-0.8937,-0.8937,-0.8937,-0.8937,-0.8937,-0.8937,-0.8937,-0.8937,-0.8937,-0.8937,-0.8937,-0.8937,-0.8937,-0.8937,-0.8937,-0.8937,-0.8937,-0.8937,-0.8937,-0.8937,-0.8937,-0.8937,-0.8937,-0.8937,-0.8937,-0.8937,-0.8937,-0.8937,-0.8937,-0.8937,-0.8937,-0.8937,-0.8937,-0.8937,-0.8937,-0.8937,-0.8937,-0.8937,-0.8937,-0.8937,-0.8937,-0.8937,-0.8937,-0.8937,-0.8937,-0.8881,-0.8937,-0.8937,-0.8937,-0.8933,-0.8657,-0.8546,-0.8751,-0.8668,-0.8196,-0.7905,-0.7436,-0.766,-0.7614,-0.7845,-1.5689,-1.5583,-1.4824,-1.3642,-1.2453,-1.2349,-1.1973,-1.1269,-1.0457,-1.0131,-1.0131,-1.008,-0.9644,-0.8937,-0.8937,-0.8937,-0.8937,-0.8937,-0.921,-0.9047,-0.895,-0.9044,-0.8937,-0.896,-0.922,-0.9011,-0.9106,-0.9204,-0.9113,-0.914,-0.915,-0.9123,-0.9123,-0.912,-0.9123,-0.913,-0.912,-0.9144,-0.9123,-0.912,-0.9089,-0.9032,-0.8954,-0.8937,-0.8885,-0.8885,-0.8937,-0.8937,-0.8937,-0.8937,-0.8937,-0.8937,-0.8937,-0.8937,-0.8937,-0.8937,-0.8937,-0.8937,-0.8937,-0.8937,-0.8937,-0.8937,-0.8937,-0.8937,-0.8937,-0.8937,-0.8937,-0.8937,-0.8937,-0.8937,-0.8937,-0.8937,-0.8937,-0.8937,-0.8937,-0.8937,-0.8937,-0.8937,-0.8937,-0.8937,-0.8937,-0.8937,-0.8937,-0.8937,-0.8937,-0.8937,-0.8937,-0.8937,-0.8937,-0.8937,-0.8937,-0.8937,-0.8937,-0.8937,-0.8937,-0.8937,-0.8937,-0.8937,-0.8826,-0.8771,-0.866,-0.8826,-0.8937,-0.8491,-0.8156,-0.7817,-0.782,-0.7762,-0.7085,-0.6303,-0.6253,-0.6247,-0.6656,-0.7055,-0.7181,-1.3264,-1.3048,-1.2999,-1.2186,-1.095,-1.0836,-1.019,-0.9154,-0.8937,-0.8992,-0.9044,-0.9047,-0.8937,-0.8937,-0.8937,-0.8937,-0.8937,-0.8937,-0.8937,-0.8981,-0.8984,-0.9039,-0.9049,-0.8976,-0.9106,-0.9188,-0.9276,-0.9317,-0.9323,-0.9323,-0.9323,-0.9371,-0.9381,-0.9374,-0.9381,-0.9371,-0.9337,-0.932,-0.9317,-0.9347,-0.9262,-0.914,-0.9049,-0.8994,-0.8964,-0.8902,-0.8895,-0.8937,-0.8937,-0.8937,-0.8937,-0.8937,-0.8937,-0.8937,-0.8937,-0.8937,-0.8937,-0.8937,-0.8937,-0.8937,-0.8937,-0.8937,-0.8937,-0.8937,-0.8937,-0.8937,-0.8937,-0.8937,-0.8937,-0.8937,-0.8937,-0.8937,-0.8937,-0.8937,-0.8937,-0.8937,-0.8937,-0.8937,-0.8937,-0.8937,-0.8937,-0.8937,-0.8937,-0.8937,-0.8937,-0.8937,-0.8937,-0.8937,-0.8937,-0.8937,-0.8937,-0.8937,-0.8937,-0.8937,-0.8881,-0.8826,-0.8771,-0.8657,-0.8546,-0.8491,-0.8211,-0.754,-0.7315,-0.7595,-0.7204,-0.6589,-0.6144,-0.5919,-0.519,-0.4684,-0.5043,-0.5328,-0.5432,-0.5808,-0.6116,-1.2566,-1.1538,-1.1542,-1.0676,-0.9478,-0.9316,-0.9154,-0.8937,-0.8937,-0.8937,-0.8937,-0.8937,-0.8937,-0.8937,-0.8937,-0.8947,-0.8974,-0.8964,-0.9035,-0.9156,-0.9113,-0.9188,-0.9242,-0.9242,-0.93,-0.9357,-0.9453,-0.9384,-0.9462,-0.9432,-0.9391,-0.9412,-0.9405,-0.9401,-0.9398,-0.9405,-0.9429,-0.9439,-0.9432,-0.9432,-0.9415,-0.9313,-0.9235,-0.9228,-0.9166,-0.9039,-0.8977,-0.894,-0.8937,-0.8937,-0.8937,-0.8937,-0.8937,-0.8937,-0.8937,-0.8937,-0.8937,-0.8937,-0.8937,-0.8937,-0.8937,-0.8937,-0.8937,-0.8937,-0.8937,-0.8937,-0.8937,-0.8937,-0.8937,-0.8937,-0.8937,-0.8937,-0.8937,-0.8937,-0.8937,-0.8937,-0.8937,-0.8937,-0.8937,-0.8937,-0.8937,-0.8937,-0.8937,-0.8937,-0.8937,-0.8937,-0.8937,-0.8937,-0.8937,-0.8937,-0.8937,-0.8937,-0.8937,-0.8881,-0.8881,-0.8602,-0.8491,-0.8377,-0.7986,-0.7371,-0.6589,-0.5419,-0.5363,-0.6089,-0.5697,-0.4972,-0.4582,-0.419,-0.4136,-0.3791,-0.4179,-0.4445,-0.4354,-0.457,-0.4958]},{"header":{"parameterUnit":"m.s-1","parameterCategory":1,"la1":31.0,"la2":29.5877,"lo1":-88.7671,"lo2":-86.6584,"dy":0.0162,"dx":0.0185,"nx":115,"ny":88,"refTime":"2024-04-20T12:00:00:Z","depth":0,"parameterNumber":3,"parameterNumberName":"V-component_of_WINDS"},"data":[0.0,0.0,0.0,0.0,0.0,0.0,0.0,0.0,0.0,0.0,0.0,0.0,0.0,0.0,0.0,0.0,0.0,0.0,0.0,0.0,0.0,0.0,0.0,0.0,0.0,0.0,0.0,0.0,0.0,0.0,0.0,0.0,0.0,0.0,0.0,0.0,0.0,0.0,0.0,0.0,0.0,0.0,0.0,0.0,0.0,0.0,0.0,0.0,0.0,0.0,0.0,0.0,0.0,0.0,0.0,0.0,0.0,0.0,0.0,0.0,0.0,0.0,0.0,0.0,0.0,0.0,0.0,0.0,0.0,0.0,0.0,0.0,0.0,0.0,0.0,0.0,0.0,0.0,0.0,0.0,0.0,0.0,0.0,0.0,0.0,0.0,0.0,0.0,0.0,0.0,0.0,0.0,0.0,0.0,0.0,0.0,0.0,0.0,0.0,0.0,0.0,0.0,0.0,0.0,0.0,0.0,0.0,0.0,0.0,0.0,0.0,0.0,0.0,0.0,0.0,0.0,0.0,0.0,0.0,0.0,0.0,0.0,0.0,0.0,0.0,0.0,0.0,0.0,0.0,0.0,0.0,0.0,0.0,0.0,0.0,0.0,0.0,0.0,0.0,0.0,0.0,0.0,0.0,0.0,0.0,0.0,0.0,0.0,0.0,0.0,0.0,0.0,0.0,0.0,0.0,0.0,0.0,0.0,0.0,0.0,0.0,0.0,0.0,0.0,0.0,0.0,0.0,0.0,0.0,0.0,0.0,0.0,0.0,0.0,0.0,0.0,0.0,0.0,0.0,0.0,0.0,0.0,0.0,0.0,0.0,0.0,0.0,0.0,0.0,0.0,0.0,0.0,0.0,0.0,0.0,0.0,0.0,0.0,0.0,0.0,0.0,0.0,0.0,0.0,0.0,0.0,0.0,0.0,0.0,0.0,0.0,0.0,0.0,0.0,0.0,0.0,0.0,0.0,0.0,0.0,0.0,0.0,0.0,0.0,0.0,0.0,0.0,0.0,0.0,0.0,0.0,0.0,0.0,0.0,0.0,0.0,0.0,0.0,0.0,0.0,0.0,0.0,0.0,0.0,0.0,0.0,0.0,0.0,0.0,0.0,0.0,0.0,0.0,0.0,0.0,0.0,0.0,0.0,0.0,0.0,0.0,0.0,0.0,0.0,0.0,0.0,0.0,0.0,0.0,0.0,0.0,0.0,0.0,0.0,0.0,0.0,0.0,0.0,0.0,0.0,0.0,0.0,0.0,0.0,0.0,0.0,0.0,0.0,0.0,0.0,0.0,0.0,0.0,0.0,0.0,0.0,0.0,0.0,0.0,0.0,0.0,0.0,0.0,0.0,0.0,0.0,0.0,0.0,0.0,0.0,0.0,0.0,0.0,0.0,0.0,0.0,0.0,0.0,0.0,0.0,0.0,0.0,0.0,0.0,0.0,0.0,0.0,0.0,0.0,0.0,0.0,0.0,0.0,0.0,0.0,0.0,0.0,0.0,0.0,0.0,0.0,0.0,0.0,0.0,0.0,0.0,0.0,0.0,0.0,0.0,0.0,0.0,0.0,0.0,0.0,0.0,0.0,0.0,0.0,0.0,0.0,0.0,0.0,0.0,0.0,0.0,0.0,0.0,0.0,0.0,0.0,0.0,0.0,0.0,0.0,0.0,0.0,0.0,0.0,0.0,0.0,0.0,0.0,0.0,0.0,0.0,0.0,0.0,0.0,0.0,0.0,0.0,0.0,0.0,0.0,0.0,0.0,0.0,0.0,0.0,0.0,0.0,0.0,0.0,0.0,0.0,0.0,0.0,0.0,0.0,0.0,0.0,0.0,0.0,0.0,0.0,0.0,0.0,0.0,0.0,0.0,0.0,0.0,0.0,0.0,0.0,0.0,0.0,0.0,0.0,0.0,0.0,0.0,0.0,0.0,0.0,0.0,0.0,0.0,0.0,0.0,0.0,0.0,0.0,0.0,0.0,0.0,0.0,0.0,0.0,0.0,0.0,0.0,0.0,0.0,0.0,0.0,0.0,0.0,0.0,0.0,0.0,0.0,0.0,0.0,0.0,0.0,0.0,0.0,0.0,0.0,0.0,0.0,0.0,0.0,0.0,0.0,0.0,0.0,0.0,0.0,0.0,0.0,0.0,0.0,0.0,0.0,0.0,0.0,0.0,0.0,0.0,0.0,0.0,0.0,0.0,0.0,0.0,0.0,0.0,0.0,0.0,0.0,0.0,0.0,0.0,0.0,0.0,0.0,0.0,0.0,0.0,0.0,0.0,0.0,0.0,0.0,0.0,0.0,0.0,0.0,0.0,0.0,0.0,0.0,0.0,0.0,0.0,0.0,0.0,0.0,0.0,0.0,0.0,0.0,0.0,0.0,0.0,0.0,0.0,0.0,0.0,0.0,0.0,0.0,0.0,0.0,0.0,0.0,0.0,0.0,0.0,0.0,0.0,0.0,0.0,0.0,0.0,0.0,0.0,0.0,0.0,0.0,0.0,0.0,0.0,0.0,0.0,0.0,0.0,0.0,0.0,0.0,0.0,0.0,0.0,0.0,0.0,0.0,0.0,0.0,0.0,0.0,0.0,0.0,0.0,0.0,0.0,0.0,0.0,0.0,0.0,0.0,0.0,0.0,0.0,0.0,0.0,0.0,0.0,0.0,0.0,0.0,0.0,0.0,0.0,0.0,0.0,0.0,0.0,0.0,0.0,0.0,0.0,0.0,0.0,0.0,0.0,0.0,0.0,0.0,0.0,0.0,0.0,0.0,0.0,0.0,0.0,0.0,0.0,0.0,0.0,0.0,0.0,0.0,0.0,0.0,0.0,0.0,0.0,0.0,0.0,0.0,0.0,0.0,0.0,0.0,0.0,0.0,0.0,0.0,0.0,0.0,0.0,0.0,0.0,0.0,0.0,0.0,0.0,0.0,0.0,0.0,0.0,0.0,0.0,0.0,0.0,0.0,0.0,0.0,0.0,0.0,0.0,0.0,0.0,0.0,0.0,0.0,0.0,0.0,0.0,0.0,0.0,0.0,0.0,0.0,0.0,0.0,0.0,0.0,0.0,0.0,0.0,0.0,0.0,0.0,0.0,0.0,0.0,0.0,0.0,0.0,0.0,0.0,0.0,0.0,0.0,0.0,0.0,0.0,0.0,0.0,0.0,0.0,0.0,0.0,0.0,0.0,0.0,0.0,0.0,0.0,0.0,0.0,0.0,0.0,0.0,0.0,0.0,0.0,0.0,0.0,0.0,0.0,0.0,0.0,0.0,0.0,0.0,0.0,0.0,0.0,0.0,0.0,0.0,0.0,0.0,0.0,0.0,0.0,0.0,0.0,0.0,0.0,0.0,0.0,0.0,0.0,0.0,0.0,0.0,0.0,0.0,0.0,0.0,0.0,0.0,0.0,0.0,0.0,0.0,0.0,0.0,0.0,0.0,0.0,0.0,0.0,0.0,0.0,0.0,0.0,0.0,0.0,0.0,0.0,0.0,0.0,0.0,0.0,0.0,0.0,0.0,0.0,0.0,0.0,0.0,0.0,0.0,0.0,0.0,0.0,0.0,0.0,0.0,0.0,0.0,0.0,0.0,0.0,0.0,0.0,0.0,0.0,0.0,0.0,0.0,0.0,0.0,0.0,0.0,0.0,0.0,0.0,0.0,0.0,0.0,0.0,0.0,0.0,0.0,0.0,0.0,0.0,0.0,0.0,0.0,0.0,0.0,0.0,0.0,0.0,0.0,0.0,0.0,0.0,0.0,0.0,0.0,0.0,0.0,0.0,0.0,0.0,0.0,0.0,0.0,0.0,0.0,0.0,0.0,0.0,0.0,0.0,0.0,0.0,0.0,0.0,0.0,0.0,0.0,0.0,0.0,0.0,0.0,0.0,0.0,0.0,0.0,0.0,0.0,0.0,0.0,0.0,0.0,0.0,0.0,0.0,0.0,0.0,0.0,0.0,0.0,0.0,0.0,0.0,0.0,0.0,0.0,0.0,0.0,0.0,0.0,0.0,0.0,0.0,0.0,0.0,0.0,0.0,0.0,0.0,0.0,0.0,0.0,0.0,0.0,0.0,0.0,0.0,0.0,0.0,0.0,0.0,0.0,0.0,0.0,0.0,0.0,0.0,0.0,0.0,0.0,0.0,0.0,0.0,0.0,0.0,0.0,0.0,0.0,0.0,0.0,0.0,0.0,0.0,0.0,0.0,0.0,0.0,0.0,0.0,0.0,0.0,0.0,0.0,0.0,0.0,0.0,0.0,0.0,0.0,0.0,0.0,0.0,1.1123,0.0,0.0,0.0,0.0,0.0,0.0,0.0,0.0,0.0,0.0,0.0,0.0,0.0,0.0,0.0,0.0,0.0,0.0,0.0,0.0,0.0,0.0,0.0,0.0,0.0,0.0,0.0,0.0,0.0,0.0,0.0,0.0,0.0,0.0,0.0,0.0,0.0,0.0,0.0,0.0,0.0,0.0,0.0,0.0,0.0,0.0,0.0,0.0,0.0,0.0,0.0,0.0,0.0,0.0,0.0,0.0,0.0,0.0,0.0,0.0,0.0,0.0,0.0,0.0,0.0,0.0,0.0,0.0,0.0,0.0,0.0,0.0,0.0,0.0,0.0,0.0,0.0,0.0,0.0,0.0,0.0,0.0,0.0,0.0,0.0,0.0,0.0,0.0,0.0,0.0,0.0,0.0,0.0,0.0,0.0,0.0,0.0,0.0,0.0,0.0,0.0,0.0,0.0,0.0,0.0,0.0,0.0,0.0,0.0,0.0,1.2851,1.2328,1.1681,1.1123,1.0649,0.0,0.0,0.0,0.0,0.0,0.0,0.0,0.0,0.0,0.0,0.0,0.0,0.0,0.0,0.0,0.0,0.0,0.0,0.0,0.0,0.0,0.0,0.0,0.0,0.0,0.0,0.0,0.0,0.0,0.0,0.0,0.0,0.0,0.0,0.0,0.0,0.0,0.0,0.0,0.0,0.0,0.0,0.0,0.0,0.0,0.0,0.0,0.0,0.0,0.0,0.0,0.0,0.0,0.0,0.0,0.0,0.0,0.0,0.0,0.0,0.0,0.0,0.0,0.0,0.0,0.0,0.0,0.0,0.0,0.0,0.0,0.0,0.0,0.0,0.0,0.0,0.0,0.0,0.0,0.0,0.0,0.0,0.0,0.0,0.0,0.0,0.0,0.0,0.0,0.0,0.0,0.0,0.0,0.0,0.0,0.0,0.0,0.0,0.0,0.0,0.0,0.0,0.0,0.0,0.0,0.0,0.0,0.0,0.0,0.0,0.0,0.0,1.108,1.0481,1.0221,0.0,0.0,0.0,0.0,0.0,0.0,0.0,0.0,0.0,0.0,0.0,0.0,0.0,0.0,0.0,0.0,0.0,0.0,0.0,0.0,0.0,0.0,0.0,0.0,0.0,0.0,0.0,0.0,0.0,0.0,0.0,0.0,0.0,0.0,0.0,0.0,0.0,0.0,0.0,0.0,0.0,0.0,0.0,0.0,0.0,0.0,0.0,0.0,0.0,0.0,0.0,0.0,0.0,0.0,0.0,0.0,0.0,0.0,0.0,0.0,0.0,0.0,0.0,0.0,0.0,0.0,0.0,0.0,0.0,0.0,0.0,0.0,0.0,0.0,0.0,0.0,0.0,0.0,0.0,0.0,0.0,0.0,0.0,0.0,0.0,0.0,0.0,0.0,0.0,0.0,0.0,0.0,0.0,0.0,0.0,0.0,0.0,0.0,0.0,0.0,0.0,0.0,0.0,0.0,0.0,0.0,0.0,0.0,0.0,0.0,1.2912,1.0826,1.0654,0.0,0.9148,0.0,0.0,0.0,0.0,0.0,0.0,0.0,0.0,0.0,0.0,0.0,0.0,0.0,0.0,0.0,0.0,0.0,0.0,0.0,0.0,0.0,0.0,0.0,0.0,0.0,0.0,0.0,0.0,0.0,0.0,0.0,0.0,0.0,0.0,0.0,0.0,0.0,0.0,0.0,0.0,0.0,0.0,0.0,0.0,0.0,0.0,0.0,0.0,0.0,0.0,0.0,0.0,0.0,0.0,0.0,0.0,0.0,0.0,0.0,0.0,0.0,0.0,0.0,0.0,0.0,0.0,0.0,0.0,0.0,0.0,0.0,0.0,0.0,0.0,0.0,0.0,0.0,0.0,0.0,0.0,0.0,0.0,0.0,0.0,0.0,0.0,0.0,0.0,0.0,0.0,0.0,0.0,0.0,0.0,0.0,0.0,0.0,0.0,0.0,0.0,0.0,0.0,0.0,0.0,0.0,0.0,0.0,0.0,0.0,0.0,1.0577,0.9623,0.8925,0.8313,0.0,0.0,0.0,0.0,0.0,0.0,0.0,0.0,0.0,0.0,0.0,0.0,0.0,0.0,0.0,0.0,0.0,0.0,0.0,0.0,0.0,0.0,0.0,0.0,0.0,0.0,0.0,0.0,0.0,0.0,0.0,0.0,0.0,0.0,0.0,0.0,0.0,0.0,0.0,0.0,0.0,0.0,0.0,0.0,0.0,0.0,0.0,0.0,0.0,0.0,0.0,0.0,0.0,0.0,0.0,0.0,0.0,0.0,0.0,0.0,0.0,0.0,0.0,0.0,0.0,0.0,0.0,0.0,0.0,0.0,0.0,0.0,0.0,0.0,0.0,0.0,0.0,0.0,0.0,0.0,0.0,0.0,0.0,0.0,0.0,0.0,0.0,0.0,0.0,0.0,0.0,0.0,0.0,0.0,0.0,0.0,0.0,0.0,0.0,0.0,0.0,0.0,0.0,0.0,0.0,0.0,0.0,0.0,0.0,0.0,1.0697,0.9536,0.889,0.7709,0.7095,0.7095,0.0,0.0,0.0,0.0,0.0,0.0,0.0,0.0,0.0,0.0,0.0,0.0,0.0,0.0,0.0,0.0,0.0,0.0,0.0,0.0,0.0,0.0,0.0,0.0,0.0,0.0,0.0,0.0,0.0,0.0,0.0,0.0,0.0,0.0,0.0,0.0,0.0,0.0,0.0,0.0,0.0,0.0,0.0,0.0,0.0,0.0,0.0,0.0,0.0,0.0,0.0,0.0,0.0,0.0,0.0,0.0,0.0,0.0,0.0,0.0,0.0,0.0,0.0,0.0,0.0,0.0,0.0,0.0,0.0,0.0,0.0,0.0,0.0,0.0,0.0,0.0,0.0,0.0,0.0,0.0,0.0,0.0,0.0,0.0,0.0,0.0,0.0,0.0,0.0,0.0,0.0,0.0,0.0,0.0,0.0,0.0,0.0,0.0,0.0,0.0,0.0,0.0,0.0,0.0,0.0,0.0,0.0,0.0,1.2328,1.2114,1.108,0.8934,0.7757,0.7095,0.0,0.0,0.0,0.0,0.0,0.0,0.0,0.0,0.0,0.0,0.0,0.0,0.0,0.0,0.0,0.0,0.0,0.0,0.0,0.0,0.0,0.0,0.0,0.0,0.0,0.0,0.0,0.0,0.0,0.0,0.0,0.0,0.0,0.0,0.0,0.0,0.0,0.0,0.0,0.0,0.0,0.0,0.0,0.0,0.0,0.0,0.0,0.0,0.0,0.0,0.0,0.0,0.0,0.0,0.0,0.0,0.0,0.0,0.0,0.0,0.0,0.0,0.0,0.0,0.0,0.0,0.0,0.0,0.0,0.0,0.0,0.0,0.0,0.0,0.0,0.0,0.0,0.0,0.0,0.0,0.0,0.0,0.0,0.0,0.0,0.0,0.0,0.0,0.0,0.0,0.0,0.0,0.0,0.0,0.0,0.0,0.0,0.0,0.0,0.0,0.0,0.0,0.0,0.0,0.0,0.0,0.0,0.0,0.0,1.1214,0.9735,0.8571,0.7797,0.7316,0.7095,0.0,0.0,0.0,0.0,0.0,0.0,0.0,0.0,0.0,0.0,0.0,0.0,0.0,0.0,0.0,0.0,0.0,0.0,0.0,0.0,0.0,0.0,0.0,0.0,0.0,0.0,0.0,0.0,0.0,0.0,0.0,0.0,0.0,0.0,0.0,0.0,0.0,0.0,0.0,0.0,0.0,0.0,0.0,0.0,0.0,0.0,0.0,0.0,0.0,0.0,0.0,0.0,0.0,0.0,0.0,0.0,0.0,0.0,0.0,0.0,0.0,0.0,0.0,0.0,0.0,0.0,0.0,0.0,0.0,0.0,0.0,0.0,0.0,0.0,0.0,0.0,0.0,0.0,0.0,0.0,0.0,0.0,0.0,0.0,0.0,0.0,0.0,0.0,0.0,0.0,0.0,0.0,0.0,0.0,0.0,0.0,0.0,0.0,0.0,0.0,0.0,0.0,0.0,0.0,0.0,0.0,0.0,0.0,0.0,1.0605,0.0,0.7489,0.7139,0.7095,0.7095,0.0,0.0,0.0,0.0,0.0,0.0,0.0,0.0,0.0,0.0,0.0,0.0,0.0,0.0,0.0,0.0,0.0,0.0,0.0,0.0,0.0,0.0,0.0,0.0,0.0,0.0,0.0,0.0,0.0,0.0,0.0,0.0,0.0,0.0,0.0,0.0,0.0,0.0,0.0,0.0,0.0,0.0,0.0,0.0,0.0,0.0,0.0,0.0,0.0,0.0,0.0,0.0,0.0,0.0,0.0,0.0,0.0,0.0,0.0,0.0,0.0,0.0,0.0,0.0,0.0,0.0,0.0,0.0,0.0,0.0,0.0,0.0,0.0,0.0,0.0,0.0,0.0,0.0,0.0,0.0,0.0,0.0,0.0,0.0,0.0,0.0,0.0,0.0,0.0,0.0,0.0,0.0,0.0,0.0,0.0,0.0,0.0,0.0,0.0,0.0,0.0,0.0,0.0,0.0,0.0,0.0,0.0,0.0,1.2948,1.0654,0.9453,0.8281,0.7139,0.7095,0.7095,0.0,0.0,0.0,0.0,0.0,0.0,0.0,0.0,0.0,0.0,0.0,0.0,0.0,0.0,0.0,0.0,0.0,0.0,0.0,0.0,0.0,0.0,0.0,0.0,0.0,0.0,0.0,0.0,0.0,0.0,0.0,0.0,0.0,0.0,0.0,0.0,0.0,0.0,0.0,0.0,0.0,0.0,0.0,0.0,0.0,0.0,0.0,0.0,0.0,0.0,0.0,0.0,0.0,0.0,0.0,0.0,0.0,0.0,0.0,0.0,0.0,0.0,0.0,0.0,0.0,0.0,0.0,0.0,0.0,0.0,0.0,0.0,0.0,0.0,0.0,0.0,0.0,0.0,0.0,0.0,0.0,0.0,0.0,0.0,0.0,0.0,0.0,0.0,0.0,0.0,0.0,0.0,0.0,0.0,0.0,0.0,0.0,0.0,0.0,0.0,0.0,0.0,0.0,0.0,0.0,0.0,0.0,0.0,0.0,1.0654,0.9492,0.8321,0.7183,0.7095,0.7095,0.0,0.0,0.0,0.0,0.0,0.0,0.0,0.0,0.0,0.0,0.0,0.0,0.0,0.0,0.0,0.0,0.0,0.0,0.0,0.0,0.0,0.0,0.0,0.0,0.0,0.0,0.0,0.0,0.0,0.0,0.0,0.0,0.0,0.0,0.0,0.0,0.0,0.0,0.0,0.0,0.0,0.0,0.0,0.0,0.0,0.0,0.0,0.0,0.0,0.0,0.0,0.0,0.0,0.0,0.0,0.0,0.0,0.0,0.0,0.0,0.0,0.0,0.0,0.0,0.0,0.0,0.0,0.0,0.0,0.0,0.0,0.0,0.0,0.0,0.0,0.0,0.0,0.0,0.0,0.0,0.0,0.0,0.0,0.0,0.0,0.0,0.0,0.0,0.0,0.0,0.0,0.0,0.0,0.0,0.0,0.0,0.0,0.0,0.0,0.0,0.0,0.0,0.0,0.0,0.0,0.0,0.0,0.0,0.0,1.1295,1.0139,0.8755,0.7139,0.7095,0.7095,0.7095,0.0,0.0,0.0,0.0,0.0,0.0,0.0,0.0,0.0,0.0,0.0,0.0,0.0,0.0,0.0,0.0,0.0,0.0,0.0,0.0,0.0,0.0,0.0,0.0,0.0,0.0,0.0,0.0,0.0,0.0,0.0,0.0,0.0,0.0,0.0,0.0,0.0,0.0,0.0,0.0,0.0,0.0,0.0,0.0,0.0,0.0,0.0,0.0,0.0,0.0,0.0,0.0,0.0,0.0,0.0,0.0,0.0,0.0,0.0,0.0,0.0,0.0,0.0,0.0,0.0,0.0,0.0,0.0,0.0,0.0,0.0,0.0,0.0,0.0,0.0,0.0,0.0,0.0,0.0,0.0,0.0,0.0,0.0,0.0,0.0,0.0,0.0,0.0,0.0,0.0,0.0,0.0,0.0,0.0,0.0,0.0,0.0,0.0,0.0,0.0,0.0,0.0,0.0,0.0,0.0,0.0,0.0,0.0,1.2322,1.1252,0.957,0.7268,0.7139,0.7095,0.0,0.0,0.0,0.0,0.0,0.0,0.0,0.0,0.0,0.0,0.0,0.0,0.0,0.0,0.0,0.0,0.0,0.0,0.0,0.0,0.0,0.0,0.0,0.0,0.0,0.0,0.0,0.0,0.0,0.0,0.0,0.0,0.0,0.0,0.0,0.0,0.0,0.0,0.0,0.0,0.0,0.0,0.0,0.0,0.0,0.0,0.0,0.0,0.0,0.0,0.0,0.0,0.0,0.0,0.0,0.0,0.0,0.0,0.0,0.0,0.0,0.0,0.0,0.0,0.0,0.0,0.0,0.0,0.0,0.0,0.0,0.0,0.0,0.0,0.0,0.0,0.0,0.0,0.0,0.0,0.0,0.0,0.0,0.0,0.0,0.0,0.0,0.0,0.0,0.0,0.0,0.0,0.0,0.0,0.0,0.0,0.0,0.0,0.0,0.0,0.0,0.0,0.0,0.0,0.0,0.0,0.0,0.0,0.0,1.2328,1.2023,1.0778,0.8496,0.7577,0.7095,0.0,0.0,0.0,0.0,0.0,0.0,0.0,0.0,0.0,0.0,0.0,0.0,0.0,0.0,0.0,0.0,0.0,0.0,0.0,0.0,0.0,0.0,0.0,0.0,0.0,0.0,0.0,0.0,0.0,0.0,0.0,0.0,0.0,0.0,0.0,0.0,0.0,0.0,0.0,0.0,0.0,0.0,0.0,0.0,0.0,0.0,0.0,0.0,0.0,0.0,0.0,0.0,0.0,0.0,0.0,0.0,0.0,0.0,0.0,0.0,0.0,0.0,0.0,0.0,0.0,0.0,0.0,0.0,0.0,0.0,0.0,0.0,0.0,0.0,0.0,0.0,0.0,0.0,0.0,0.0,0.0,0.0,0.0,0.0,0.0,0.0,0.0,0.0,0.0,0.0,0.0,0.0,0.0,0.0,0.0,0.0,0.0,0.0,0.0,0.0,0.0,0.0,0.0,0.0,0.0,0.0,0.0,0.0,1.3773,1.3069,1.2547,1.1681,1.0356,0.8707,0.7841,0.0,0.0,0.0,0.0,0.0,0.0,0.0,0.0,0.0,0.0,0.0,0.0,0.0,0.0,0.0,0.0,0.0,0.0,0.0,0.0,0.0,0.0,0.0,0.0,0.0,0.0,0.0,0.0,0.0,0.0,0.0,0.0,0.0,0.0,0.0,0.0,0.0,0.0,0.0,0.0,0.0,0.0,0.0,0.0,0.0,0.0,0.0,0.0,0.0,0.0,0.0,0.0,0.0,0.0,0.0,0.0,0.0,0.0,0.0,0.0,0.0,0.0,0.0,0.0,0.0,0.0,0.0,0.0,0.0,0.0,0.0,0.0,0.0,0.0,0.0,0.0,0.0,0.0,0.0,0.0,0.0,0.0,0.0,0.0,0.0,0.0,0.0,0.0,0.0,0.0,0.0,0.0,0.0,0.0,0.0,0.0,0.0,0.0,0.0,0.0,0.0,0.0,0.0,0.0,0.0,0.0,0.0,0.0,1.4088,1.4088,1.3069,1.2504,1.2413,1.0269,0.9021,0.0,0.0,0.0,0.0,0.0,0.0,0.0,0.0,0.0,0.0,0.0,0.0,0.0,0.0,0.0,0.0,0.0,0.0,0.0,0.0,0.0,0.0,0.0,0.0,0.0,0.0,0.0,0.0,0.0,0.0,0.0,0.0,0.0,0.0,0.0,0.0,0.0,0.0,0.0,0.0,0.0,0.0,0.0,0.0,0.0,0.0,0.0,0.0,0.0,0.0,0.0,0.0,0.0,0.0,0.0,0.0,0.0,0.0,0.0,0.0,0.0,0.0,0.0,0.0,0.0,0.0,0.0,0.0,0.0,0.0,0.0,0.0,0.0,0.0,0.0,0.0,0.0,0.0,0.0,0.0,0.0,0.0,0.0,0.0,0.0,0.0,0.0,0.0,0.0,0.0,0.0,0.0,0.0,0.0,0.0,0.0,0.0,0.0,0.0,0.0,0.0,0.0,0.0,0.0,0.0,0.0,0.0,0.0,1.4088,1.4088,1.3822,1.373,1.3695,1.1434,0.984,0.0,0.0,0.0,0.0,0.0,0.0,0.0,0.0,0.0,0.0,0.0,0.0,0.0,0.0,0.0,0.0,0.0,0.0,0.0,0.0,0.0,0.0,0.0,0.0,0.0,0.0,0.0,0.0,0.0,0.0,0.0,0.0,0.0,0.0,0.0,0.0,0.0,0.0,0.0,0.0,0.0,0.0,0.0,0.0,0.0,0.0,0.0,0.0,1.4088,0.0,0.0,0.0,0.0,0.0,0.0,0.0,0.0,0.0,0.0,0.0,0.0,0.0,0.0,0.0,0.0,0.0,0.0,0.0,0.0,0.0,0.0,0.0,0.0,0.0,0.0,0.0,0.0,0.0,0.0,0.0,0.0,0.0,0.0,0.0,0.0,0.0,0.0,0.0,0.0,0.0,0.0,0.0,0.0,0.0,0.0,0.0,0.0,0.0,0.0,0.0,0.0,0.0,0.0,0.0,0.0,0.0,0.0,0.0,1.4088,1.4088,1.4088,1.3822,1.3245,1.2601,1.1434,0.0,0.0,0.0,0.0,0.0,0.0,0.0,0.0,0.0,0.0,0.0,0.0,0.0,0.0,0.0,0.0,0.0,0.0,0.0,0.0,0.0,0.0,0.0,0.0,0.0,0.0,0.0,0.0,0.0,0.0,0.0,0.0,0.0,0.0,0.0,0.0,0.0,0.0,0.0,0.0,0.0,0.0,0.0,0.0,0.0,0.0,0.0,0.0,0.0,0.0,0.0,0.0,0.0,0.0,0.0,0.0,0.0,0.0,0.0,0.0,0.0,0.0,0.0,0.0,0.0,0.0,0.0,0.0,0.0,0.0,0.0,0.0,0.0,0.0,0.0,0.0,0.0,0.0,0.0,0.0,0.0,0.0,0.0,0.0,0.0,0.0,0.0,0.0,0.0,0.0,0.0,0.0,0.0,0.0,0.0,0.0,0.0,0.0,0.0,0.0,0.0,0.0,0.0,0.0,0.0,0.0,0.0,1.4088,1.4088,1.4088,1.4088,1.3597,1.2638,1.3379,1.282,1.0654,0.0,0.0,0.0,0.0,0.0,0.0,0.0,0.0,0.0,0.0,0.0,0.0,0.0,0.0,0.0,0.0,0.0,0.0,0.0,0.0,0.0,0.0,0.0,0.0,0.0,0.0,0.0,0.0,0.0,0.0,0.0,0.0,0.0,0.0,0.0,0.0,0.0,0.0,2.0615,1.8709,0.0,0.0,0.0,0.0,0.0,0.0,0.0,0.0,1.4589,0.0,0.0,0.0,0.0,0.0,0.0,0.0,0.0,0.0,0.0,0.0,0.0,0.0,0.0,0.0,0.0,0.0,0.0,0.0,0.0,0.0,0.0,0.0,0.0,0.0,0.0,0.0,0.0,0.0,0.0,0.0,0.0,0.0,0.0,0.0,0.0,0.0,0.0,0.0,0.0,0.0,0.0,0.0,0.0,0.0,0.0,0.0,0.0,0.0,0.0,0.0,0.0,0.0,0.0,0.0,0.0,1.4088,1.4088,1.4088,1.4088,1.4088,1.3997,1.3773,1.3027,1.1986,1.0697,0.0,0.0,0.0,0.0,0.0,0.0,0.0,0.0,0.0,0.0,0.0,0.0,0.0,0.0,0.0,0.0,0.0,0.0,0.0,0.0,0.0,0.0,0.0,0.0,0.0,0.0,0.0,0.0,0.0,0.0,0.0,0.0,0.0,0.0,0.0,0.0,0.0,0.0,0.0,1.87,1.7327,0.0,0.0,0.0,0.0,0.0,0.0,0.0,0.0,1.4877,0.0,0.0,0.0,0.0,0.0,0.0,0.0,0.0,0.0,0.0,0.0,0.0,0.0,0.0,0.0,0.0,0.0,0.0,0.0,0.0,0.0,0.0,0.0,0.0,0.0,0.0,0.0,0.0,0.0,0.0,0.0,0.0,0.0,0.0,0.0,0.0,0.0,0.0,0.0,0.0,0.0,0.0,0.0,0.0,0.0,0.0,0.0,0.0,0.0,0.0,0.0,0.0,0.0,0.0,0.0,1.4208,1.465,1.4657,1.413,1.4088,1.3822,1.3203,1.3203,1.2126,0.0,0.0,0.0,0.0,0.0,0.0,0.0,0.0,0.0,0.0,0.0,0.0,0.0,0.0,0.0,0.0,0.0,0.0,0.0,0.0,0.0,0.0,0.0,0.0,0.0,0.0,0.0,0.0,0.0,0.0,0.0,0.0,0.0,0.0,0.0,0.0,0.0,0.0,0.0,0.0,1.9021,1.7796,1.8067,0.0,0.0,0.0,0.0,0.0,0.0,1.5236,1.5182,0.0,0.0,0.0,0.0,0.0,0.0,0.0,0.0,0.0,0.0,0.0,0.0,0.0,0.0,0.0,0.0,0.0,0.0,0.0,0.0,0.0,0.0,0.0,0.0,0.0,0.0,0.0,0.0,0.0,0.0,0.0,0.0,0.0,0.0,0.0,0.0,0.0,0.0,0.0,0.0,0.0,0.0,0.0,0.0,0.0,0.0,0.0,0.0,0.0,0.0,0.0,0.0,0.0,0.0,0.0,1.4208,1.5179,1.5171,1.4166,1.4088,1.3646,1.2723,1.3603,1.2565,0.0,0.0,0.0,0.0,0.0,0.0,0.0,0.0,0.0,0.0,0.0,0.0,0.0,0.0,0.0,0.0,0.0,0.0,0.0,0.0,0.0,0.0,0.0,0.0,0.0,0.0,0.0,0.0,0.0,0.0,0.0,0.0,0.0,0.0,0.0,0.0,0.0,0.0,0.0,0.0,0.0,1.7821,1.8083,1.7399,0.0,0.0,0.0,0.0,1.5518,1.5484,0.0,0.0,0.0,0.0,0.0,0.0,0.0,0.0,0.0,0.0,0.0,0.0,0.0,0.0,0.0,0.0,0.0,0.0,0.0,0.0,0.0,0.0,0.0,0.0,0.0,0.0,0.0,0.0,0.0,0.0,0.0,0.0,0.0,0.0,0.0,0.0,0.0,0.0,0.0,0.0,0.0,0.0,0.0,0.0,0.0,0.0,0.0,0.0,0.0,0.0,0.0,0.0,0.0,0.0,0.0,0.0,1.4208,1.5137,1.5179,1.4166,1.4088,1.4039,1.3906,1.4039,1.2954,0.0,0.0,0.0,0.0,0.0,0.0,0.0,0.0,0.0,0.0,0.0,0.0,0.0,0.0,0.0,0.0,0.0,0.0,0.0,0.0,0.0,0.0,0.0,0.0,0.0,0.0,0.0,0.0,0.0,0.0,0.0,0.0,0.0,0.0,0.0,0.0,0.0,0.0,0.0,0.0,0.0,1.6867,1.7109,1.6253,1.5663,0.0,0.0,1.5771,1.5738,1.5724,0.0,0.0,0.0,0.0,0.0,0.0,0.0,0.0,0.0,0.0,0.0,0.0,0.0,0.0,0.0,0.0,0.0,0.0,0.0,0.0,0.0,0.0,0.0,0.0,0.0,0.0,0.0,0.0,0.0,0.0,0.0,0.0,0.0,0.0,0.0,0.0,0.0,0.0,0.0,0.0,0.0,0.0,0.0,0.0,0.0,0.0,0.0,0.0,0.0,0.0,0.0,0.0,0.0,0.0,0.0,1.8101,1.6041,1.6355,1.6108,1.5019,1.4412,1.4088,1.4088,1.4088,1.33,0.0,0.0,0.0,0.0,0.0,0.0,0.0,0.0,0.0,0.0,0.0,0.0,0.0,0.0,0.0,0.0,0.0,0.0,0.0,0.0,0.0,0.0,0.0,0.0,0.0,0.0,0.0,0.0,0.0,0.0,0.0,0.0,0.0,0.0,0.0,0.0,0.0,0.0,0.0,0.0,0.0,0.0,1.8486,1.804,0.0,0.0,0.0,1.5825,1.5825,0.0,0.0,0.0,0.0,0.0,0.0,0.0,0.0,0.0,0.0,0.0,0.0,0.0,0.0,0.0,0.0,0.0,0.0,0.0,0.0,0.0,0.0,0.0,0.0,0.0,0.0,0.0,0.0,0.0,0.0,0.0,0.0,0.0,0.0,0.0,0.0,0.0,0.0,0.0,0.0,0.0,0.0,0.0,0.0,0.0,0.0,0.0,0.0,0.0,0.0,0.0,0.0,0.0,0.0,0.0,0.0,0.0,1.7342,1.7577,1.7212,1.6108,1.5061,1.4489,1.4489,1.425,0.0,0.0,0.0,0.0,0.0,0.0,0.0,0.0,0.0,0.0,0.0,0.0,0.0,0.0,0.0,0.0,0.0,0.0,0.0,0.0,0.0,0.0,0.0,0.0,0.0,0.0,0.0,2.0615,0.0,0.0,0.0,0.0,0.0,0.0,0.0,0.0,0.0,0.0,0.0,0.0,0.0,0.0,2.0297,1.9592,1.9222,1.8734,0.0,0.0,1.5825,1.5825,1.5825,1.5825,0.0,0.0,0.0,0.0,0.0,0.0,0.0,0.0,0.0,0.0,0.0,0.0,0.0,0.0,0.0,0.0,0.0,0.0,0.0,0.0,0.0,0.0,0.0,0.0,0.0,0.0,0.0,0.0,0.0,0.0,0.0,0.0,0.0,0.0,0.0,0.0,0.0,0.0,0.0,0.0,0.0,0.0,0.0,0.0,0.0,0.0,0.0,0.0,0.0,0.0,0.0,0.0,0.0,0.0,1.9511,1.7415,1.835,1.831,1.722,1.615,1.5579,1.5572,1.4615,1.3555,0.0,0.0,0.0,0.0,0.0,0.0,0.0,0.0,0.0,0.0,0.0,0.0,0.0,0.0,0.0,0.0,0.0,0.0,0.0,0.0,0.0,0.0,0.0,0.0,0.0,0.0,0.0,0.0,0.0,0.0,0.0,0.0,0.0,0.0,0.0,0.0,0.0,0.0,0.0,0.0,0.0,1.96,1.9488,1.8549,1.7831,0.0,1.6615,1.5825,1.5825,1.5825,1.5825,1.5825,0.0,0.0,0.0,0.0,0.0,0.0,0.0,0.0,0.0,0.0,0.0,0.0,0.0,0.0,0.0,0.0,0.0,0.0,0.0,0.0,0.0,0.0,0.0,0.0,0.0,0.0,0.0,0.0,0.0,0.0,0.0,0.0,0.0,0.0,0.0,0.0,0.0,0.0,0.0,0.0,0.0,0.0,0.0,0.0,0.0,0.0,0.0,0.0,0.0,0.0,0.0,0.0,0.0,2.0196,1.9353,1.9116,1.8789,1.835,1.7253,1.6683,1.6683,1.567,1.4873,0.0,0.0,0.0,0.0,0.0,0.0,0.0,0.0,0.0,0.0,0.0,0.0,0.0,0.0,0.0,0.0,0.0,0.0,0.0,0.0,0.0,0.0,0.0,0.0,0.0,0.0,0.0,0.0,2.0615,2.0615,2.0615,0.0,0.0,0.0,0.0,0.0,0.0,0.0,0.0,0.0,0.0,2.1445,2.0711,2.0206,0.0,0.0,1.777,1.6716,1.592,1.5825,1.5825,1.5825,1.5825,0.0,0.0,0.0,0.0,0.0,0.0,0.0,0.0,0.0,0.0,0.0,0.0,0.0,0.0,0.0,0.0,0.0,0.0,0.0,0.0,0.0,0.0,0.0,0.0,0.0,0.0,0.0,0.0,0.0,0.0,0.0,0.0,0.0,0.0,0.0,0.0,0.0,0.0,0.0,0.0,0.0,0.0,0.0,0.0,0.0,0.0,0.0,0.0,0.0,0.0,0.0,0.0,2.0615,2.0605,1.9835,1.9481,1.949,1.839,1.7827,1.7787,1.6764,1.6191,0.0,0.0,0.0,0.0,0.0,0.0,0.0,0.0,0.0,0.0,0.0,0.0,0.0,0.0,0.0,0.0,0.0,0.0,0.0,0.0,0.0,0.0,0.0,0.0,0.0,0.0,0.0,0.0,2.0615,2.0615,2.0615,0.0,0.0,0.0,0.0,0.0,0.0,0.0,0.0,0.0,0.0,2.2775,2.1943,2.1311,2.0559,1.9745,1.8364,1.7087,1.623,1.6019,1.6102,1.6429,0.0,0.0,0.0,0.0,0.0,0.0,0.0,0.0,0.0,0.0,0.0,0.0,0.0,0.0,0.0,0.0,0.0,0.0,0.0,0.0,0.0,0.0,0.0,0.0,0.0,0.0,0.0,2.3091,0.0,0.0,2.3144,0.0,0.0,0.0,0.0,0.0,0.0,0.0,0.0,0.0,0.0,0.0,0.0,0.0,0.0,0.0,0.0,0.0,0.0,0.0,0.0,0.0,0.0,2.0605,2.0605,2.0595,2.0566,2.0518,1.952,1.8957,1.8917,1.7859,1.7261,1.7212,0.0,0.0,0.0,0.0,0.0,0.0,0.0,0.0,0.0,0.0,0.0,0.0,0.0,0.0,0.0,0.0,0.0,0.0,0.0,0.0,0.0,0.0,0.0,0.0,0.0,0.0,2.0615,2.0615,2.0625,0.0,0.0,0.0,0.0,0.0,0.0,0.0,0.0,0.0,2.3038,2.3091,2.3091,2.3057,2.1263,2.0022,1.9945,1.8152,1.6773,1.6753,1.6489,1.669,0.0,0.0,0.0,0.0,0.0,0.0,0.0,0.0,0.0,0.0,0.0,0.0,0.0,0.0,0.0,0.0,0.0,0.0,0.0,0.0,0.0,0.0,0.0,0.0,0.0,0.0,0.0,2.4253,2.4211,0.0,0.0,0.0,0.0,0.0,0.0,0.0,0.0,0.0,0.0,0.0,2.5927,2.6467,0.0,0.0,0.0,0.0,0.0,0.0,0.0,0.0,0.0,0.0,0.0,0.0,2.1231,2.0673,2.1221,2.1231,2.0605,2.0245,2.004,2.004,1.8997,1.806,1.7342,0.0,0.0,0.0,0.0,0.0,0.0,0.0,0.0,0.0,0.0,0.0,0.0,0.0,0.0,0.0,0.0,0.0,0.0,0.0,0.0,0.0,0.0,0.0,0.0,0.0,2.0615,0.0,0.0,0.0,0.0,0.0,0.0,0.0,0.0,0.0,0.0,0.0,2.4264,2.4211,2.3594,2.3101,2.3101,2.2482,2.1734,0.0,0.0,0.0,0.0,0.0,0.0,0.0,0.0,0.0,0.0,0.0,0.0,0.0,0.0,1.8257,1.8257,1.8265,1.8257,1.8257,0.0,0.0,0.0,0.0,0.0,0.0,0.0,0.0,0.0,0.0,0.0,0.0,0.0,0.0,2.5378,2.5378,2.5389,0.0,0.0,0.0,0.0,0.0,0.0,0.0,0.0,2.8199,2.8088,2.7112,2.76,2.7203,0.0,2.5483,2.5193,0.0,0.0,0.0,0.0,0.0,0.0,0.0,0.0,2.2226,2.1631,2.1886,2.1697,2.1116,2.0789,2.0615,2.0566,1.9923,1.9204,1.847,1.8109,1.7577,0.0,0.0,0.0,0.0,0.0,0.0,0.0,0.0,0.0,0.0,0.0,0.0,0.0,0.0,0.0,0.0,0.0,0.0,0.0,0.0,0.0,0.0,0.0,2.1308,0.0,0.0,0.0,0.0,0.0,0.0,0.0,0.0,0.0,2.4883,2.5168,2.5252,2.4819,2.4168,2.3551,2.3135,0.0,0.0,0.0,0.0,0.0,0.0,0.0,1.9908,2.0962,1.9972,1.917,1.9644,2.0263,2.0629,2.0169,0.0,0.0,1.9679,1.9497,1.9497,1.9497,1.9852,1.9988,1.9579,1.9214,1.8734,0.0,0.0,0.0,0.0,0.0,0.0,0.0,0.0,2.6565,2.6554,0.0,2.6554,0.0,0.0,0.0,0.0,2.673,2.7695,0.0,0.0,2.9275,2.9779,2.9665,2.9101,2.8599,2.8097,2.7521,2.7007,2.6411,2.4587,0.0,0.0,0.0,0.0,0.0,0.0,2.3526,2.3441,2.259,2.2103,2.2038,2.1193,2.0722,2.0712,2.0673,2.0673,2.0634,1.9668,1.9107,1.9067,1.8092,0.0,0.0,0.0,0.0,0.0,0.0,0.0,0.0,0.0,0.0,0.0,0.0,0.0,0.0,0.0,0.0,0.0,0.0,0.0,0.0,2.2468,0.0,0.0,0.0,0.0,0.0,0.0,0.0,0.0,0.0,0.0,2.5231,2.588,2.6141,2.4999,0.0,0.0,0.0,0.0,2.253,2.253,2.2109,2.1862,2.1854,2.1528,2.1705,2.2885,0.0,0.0,2.0334,2.1825,2.2715,2.1587,2.228,2.2369,2.0087,1.977,1.9716,1.9724,2.0621,2.089,1.9988,2.0486,2.0477,2.6696,0.0,0.0,0.0,0.0,2.6016,2.6625,2.7654,2.7643,2.7654,2.7643,2.7643,0.0,0.0,0.0,0.0,0.0,0.0,2.9314,2.9326,2.9663,2.9578,2.9176,2.8963,2.8612,2.8109,2.7946,2.7582,2.7067,2.651,2.5648,2.4576,0.0,0.0,0.0,0.0,2.4228,2.3562,2.3927,2.3781,2.3062,2.2824,2.2664,2.2675,2.1962,2.1924,2.2627,2.1687,2.1113,2.108,2.149,0.0,0.0,0.0,0.0,0.0,0.0,0.0,0.0,0.0,0.0,0.0,0.0,0.0,0.0,0.0,0.0,0.0,0.0,0.0,2.2538,2.3351,2.3941,0.0,0.0,0.0,0.0,0.0,0.0,0.0,0.0,0.0,2.7267,2.7429,2.7238,0.0,0.0,2.5729,2.4979,2.4676,2.4681,2.5118,2.4589,0.0,2.415,2.3492,2.3314,2.4316,2.3881,2.3317,2.3196,2.3415,2.346,2.3127,2.3109,2.2862,2.228,2.2094,2.205,2.2094,2.2359,2.2501,2.2173,2.1712,2.1114,2.841,2.7718,2.6853,2.676,2.7116,2.7116,2.7735,2.8779,2.8779,2.8767,2.8767,2.8767,2.8767,2.8767,2.8767,0.0,0.0,0.0,2.9779,2.9779,2.9779,2.9821,2.983,2.9817,2.9535,2.9046,2.9034,2.8535,2.7643,2.7607,2.7021,2.591,0.0,0.0,2.4684,2.5288,2.5288,2.4731,2.4886,2.4719,2.4108,2.3708,2.3478,2.3478,2.2925,2.2888,2.3478,2.2925,2.2595,2.253,2.315,2.3224,0.0,0.0,0.0,0.0,0.0,0.0,0.0,0.0,0.0,0.0,0.0,2.2188,2.1231,0.0,0.0,0.0,2.2649,2.3281,2.4816,2.5261,0.0,0.0,0.0,0.0,0.0,0.0,0.0,2.7116,2.8108,2.8767,2.8767,2.8767,2.8371,2.729,2.73,2.7156,2.6389,0.0,2.6886,2.7256,2.7028,2.6656,2.6158,2.5633,2.5276,2.5323,2.4961,2.4687,2.4668,2.4316,2.3994,2.3809,2.3574,2.334,2.313,2.3101,2.3101,2.3101,2.3101,2.3101,2.3101,2.2545,2.1889,2.9779,2.9624,2.7597,2.7331,2.8215,2.8215,2.8819,2.9779,2.9779,2.9779,2.9779,2.9779,2.9869,2.9895,2.9895,0.0,3.0049,3.0011,3.0037,3.0049,3.0037,3.0482,3.1278,3.1328,3.105,3.0572,3.0572,2.9849,2.8464,2.8415,2.8136,2.7566,2.7056,2.6696,2.6499,2.6487,2.6487,2.6487,2.5581,2.5123,2.5111,2.4228,2.3734,2.3734,2.3661,2.3661,2.3745,2.3672,2.3661,2.3745,2.3734,2.3734,2.3745,0.0,0.0,0.0,0.0,0.0,0.0,0.0,0.0,0.0,0.0,0.0,0.0,0.0,0.0,0.0,2.5091,0.0,2.7926,2.7585,0.0,0.0,0.0,2.6689,2.676,2.7614,2.8255,2.8255,0.0,0.0,2.9779,2.9779,2.9429,2.8447,2.8733,2.8645,2.7637,2.8292,2.8924,2.8947,2.9206,2.8993,2.7855,2.7662,2.7295,2.6378,2.5658,2.559,2.554,2.5202,2.4683,2.4446,2.4143,2.393,2.3418,2.3392,2.3222,2.3135,2.3101,2.3101,2.3091,2.3047,2.2677,2.9779,2.9753,2.9209,2.917,2.9417,2.9404,2.9546,2.9792,2.9779,2.9779,2.9779,2.9779,3.0216,3.0857,3.0871,3.1267,3.1938,3.1938,3.1938,3.1938,3.1938,3.2033,3.2285,3.2285,3.2217,3.208,3.208,3.1659,3.0961,3.0899,3.0635,3.012,2.9488,2.8259,2.6568,2.6487,2.6487,2.6487,2.628,2.6141,2.6129,2.5896,2.5804,2.5804,2.504,2.5004,2.5756,2.504,2.5004,2.5721,2.5791,2.5804,2.5791,2.5063,0.0,0.0,0.0,0.0,0.0,0.0,0.0,0.0,0.0,2.4217,2.322,0.0,2.526,0.0,2.6651,2.7582,2.7657,2.7445,0.0,0.0,2.8326,2.8068,2.891,2.9248,2.9404,2.9404,2.9624,2.9779,2.9779,2.9779,2.9864,2.9963,3.0096,2.9943,2.9302,2.9679,3.0188,3.0451,2.9953,2.9304,2.905,2.8947,2.8808,2.8588,2.8432,2.8367,2.8356,2.8021,2.7707,2.7599,2.6955,2.6141,2.5159,2.4662,2.4059,2.3343,2.3101,2.3101,2.3101,2.3101,2.3003,3.1057,3.1057,3.1057,3.1057,3.0983,3.0152,2.9779,2.9818,3.0241,3.0419,3.0457,3.0884,3.1328,3.1829,3.1815,3.2092,3.2593,3.2593,3.2593,3.2593,3.2593,3.2806,3.322,3.3241,3.3227,3.3241,3.3206,3.2849,3.2194,3.2145,3.1861,3.1334,3.0968,3.003,2.8535,2.7933,2.7417,2.7027,2.704,2.6837,2.6521,2.6487,2.6487,2.6499,2.5943,2.5921,2.6487,2.5955,2.5921,2.6452,2.6487,2.6487,2.6487,2.599,2.5699,0.0,0.0,0.0,0.0,0.0,0.0,0.0,0.0,0.0,0.0,0.0,2.6675,2.7139,2.7977,2.8462,2.8537,2.8458,2.8786,2.9715,2.9236,2.9106,2.974,2.9779,2.9779,2.9779,2.9779,2.9779,2.9779,2.9779,2.9993,3.0545,3.0809,3.0945,3.0945,3.1272,3.1723,3.196,3.1456,3.0822,3.0316,2.9715,2.9396,2.9396,2.9396,2.9396,2.9396,2.924,2.9049,2.8791,2.8139,2.7318,2.6497,2.5913,2.5316,2.4851,2.4606,2.4221,2.3299,2.3101,2.3101,3.2593,3.2593,3.2593,3.2593,3.2464,3.0846,3.019,3.0216,3.1007,3.1389,3.1426,3.2249,3.2678,3.277,3.277,3.2841,3.2961,3.2961,3.2961,3.2961,3.2961,3.3429,3.4177,3.4211,3.4211,3.4211,3.4211,3.3788,3.2996,3.2975,3.273,3.2282,3.2198,3.1856,3.1249,3.0145,2.8995,2.7901,2.7769,2.7351,2.6692,2.6658,2.6658,2.6658,2.6748,2.6816,2.6816,2.6816,2.6782,2.6658,2.6658,2.6624,2.6499,2.6487,2.6094,0.0,2.6025,0.0,0.0,0.0,0.0,0.0,0.0,0.0,0.0,2.694,2.7934,2.8913,2.9001,2.9252,2.9741,2.9779,2.9779,2.9792,2.9908,2.9972,2.9998,3.0075,3.0139,3.0139,3.0152,3.0139,3.0216,3.0139,3.0394,3.1148,3.1648,3.216,3.2606,3.2874,3.2957,3.3124,3.3124,3.2469,3.1601,3.0586,3.0,2.9943,3.0045,2.9852,3.0045,2.9988,2.9806,2.9484,2.8978,2.8257,2.7708,2.7126,2.6659,2.6389,2.6318,2.5683,2.393,2.343,2.3266,3.2593,3.2593,3.2593,3.2593,3.2571,3.2213,3.2069,3.2069,3.2249,3.2357,3.2343,3.2522,3.3031,3.3705,3.3739,3.4177,3.4953,3.4968,3.4953,3.4968,3.4953,3.5034,3.5213,3.5213,3.5213,3.5213,3.5213,3.5133,3.4953,3.4938,3.4894,3.4794,3.4262,3.3571,3.2842,0.0,0.0,0.0,2.8051,2.7604,2.7484,2.7484,2.7484,2.7484,2.8149,0.0,2.8524,2.8524,2.8214,2.7517,2.7484,0.0,0.0,0.0,0.0,0.0,0.0,0.0,0.0,0.0,0.0,0.0,2.9948,2.9459,2.7836,2.8237,2.89,2.9553,2.9628,2.9679,2.9779,2.9779,2.9779,2.9818,3.0495,3.0932,3.0983,3.1586,3.2083,3.2083,3.2033,3.2046,3.201,3.2083,3.2453,3.3355,3.3767,3.4283,3.5195,3.4087,3.3197,3.3124,3.324,3.3068,3.2797,3.2481,3.2164,3.2382,3.2382,3.2339,3.2295,3.2295,3.2326,3.213,3.1422,3.0377,2.9469,2.8516,2.7562,2.6678,2.6524,2.6099,2.4745,2.45,2.4211,3.4056,3.4056,3.4056,3.4041,0.0,3.4041,3.4041,3.4007,3.3498,3.3567,3.4007,3.4007,3.4293,3.4725,3.4725,3.5034,3.5504,3.5489,3.5489,3.5489,3.5489,3.5489,3.5489,3.5489,3.5489,3.5489,3.5489,3.5489,3.5489,3.5489,3.5489,3.5489,3.516,3.4773,3.4324,3.4103,3.272,3.0097,2.9362,2.878,2.8363,2.833,2.8344,2.8363,2.878,0.0,0.0,0.0,0.0,0.0,0.0,0.0,0.0,2.7736,0.0,2.7736,2.7723,2.8053,2.8781,2.9145,2.9798,3.0809,3.1439,3.1246,3.002,3.0401,3.0827,3.1167,3.1193,3.1193,3.1156,3.1156,3.1169,3.1193,3.1609,3.1888,3.1924,3.2321,3.2593,3.2593,3.2593,3.2593,3.2593,3.2593,3.309,3.4181,3.4402,3.4882,3.5857,3.5305,3.4637,3.4596,3.4137,3.3869,3.3839,3.3356,3.3124,3.3124,3.3124,3.3124,3.3124,3.3124,3.2993,3.2667,3.1951,3.1119,3.0364,2.9487,2.8779,2.8291,2.8131,2.7747,2.6644,2.5994,2.5515,3.5489,3.5489,3.5489,3.5489,3.5489,3.5489,3.5489,3.5439,3.4624,0.0,0.0,3.5489,3.5489,3.5489,3.5489,3.5489,3.5489,3.5489,3.5489,3.5489,3.5489,3.5569,3.5701,3.5701,3.5765,3.591,3.591,3.591,3.5925,3.591,3.591,3.591,3.5925,3.591,3.5864,3.5259,3.4013,3.2222,3.1048,3.005,2.9254,2.9223,2.9223,2.9223,2.9393,2.9442,2.9442,2.9442,2.938,2.9223,2.9223,2.9146,2.9034,2.8989,2.8989,2.9002,2.9113,2.9457,3.015,3.042,3.1119,3.2342,3.2855,3.2786,3.2041,3.2352,3.2593,3.2593,3.2593,3.2593,3.2593,3.2593,3.2593,3.2593,3.2749,3.2855,3.2841,3.3031,3.3206,3.3101,3.322,3.3101,3.3185,3.3206,3.3508,3.4526,3.4987,3.5372,3.6399,3.6408,3.6,3.592,3.5346,3.4966,3.4856,3.4345,3.367,3.3814,3.3784,3.3632,3.3513,3.3487,3.3257,3.2818,3.2036,3.142,3.0923,3.0234,2.9843,2.9779,2.9779,2.9534,2.8609,2.7695,2.6964,3.5489,3.5489,3.5489,3.5489,3.5489,3.5489,3.5489,3.5504,3.5344,3.5374,3.5489,3.5489,3.5489,3.5489,3.5489,3.5489,3.5489,3.5489,3.5489,3.5489,3.5489,3.5846,3.6446,3.643,3.6814,3.7427,3.7472,3.7472,3.7472,3.7472,3.7472,3.7472,3.7472,3.7472,3.7408,3.68,3.6324,3.5944,3.2721,3.0756,3.0147,3.0117,3.0117,3.0133,3.0777,3.1161,3.1161,3.1131,3.0837,3.0178,3.0103,2.9782,2.9052,2.9034,2.8989,2.903,2.955,3.0205,3.0988,3.2087,3.338,3.4812,3.5041,3.4365,3.2673,3.2552,3.2593,3.2593,3.27,3.2593,3.2593,3.2678,3.27,3.27,3.3359,3.3808,3.3808,3.4509,3.4953,3.4953,3.5067,3.5052,3.4971,3.5037,3.5337,3.6092,3.6517,3.7384,3.8084,3.7367,3.6316,3.6198,3.6079,3.5974,3.5987,3.5894,3.556,3.5761,3.5573,3.5277,3.4765,3.475,3.4481,3.403,3.2811,3.2004,3.1744,3.0701,3.0138,2.9998,3.0037,2.9844,2.9664,2.938,2.87,3.5489,3.5489,3.5489,3.5489,3.5522,3.5926,3.6071,3.6149,3.6569,3.6258,3.5522,3.5489,3.5489,3.5537,3.5926,3.6086,3.6117,3.6538,3.6753,3.6753,3.6738,3.692,3.7219,3.7249,3.7456,3.7793,3.7822,3.7822,3.7822,3.7822,3.7822,3.7822,3.7822,3.7822,3.779,3.7486,3.7174,3.6758,3.4366,3.278,3.2177,3.1723,3.1323,3.097,3.1307,3.1496,3.1496,3.1496,3.1322,3.097,3.097,3.0777,3.0389,3.0707,3.0895,3.0924,3.1534,3.223,3.2926,3.3885,3.4741,3.5442,3.5489,3.5133,3.4259,3.4158,3.4158,3.4158,3.4158,3.4158,3.4158,3.4158,3.4158,3.4158,3.4576,3.4806,3.4839,3.518,3.5489,3.5522,3.5863,3.6086,3.6086,3.6477,3.7002,3.7623,3.7967,3.8311,3.8797,3.8047,3.7523,3.7803,3.7444,3.7098,3.7046,3.6526,3.6113,3.5758,3.5703,3.5455,3.492,3.4782,3.4534,3.3973,3.319,3.2695,3.2424,3.181,3.1405,3.1304,3.1304,3.1304,3.1304,3.0945,2.9999,3.6143,3.6022,3.6037,3.6022,3.607,3.6631,3.6873,3.695,3.7515,3.7115,3.6116,3.6037,3.6022,3.6085,3.6631,3.6889,3.6964,3.7515,3.7822,3.7822,3.7822,3.7863,3.8035,3.8035,3.8149,3.829,3.8318,3.8334,3.8334,3.8318,3.8318,3.8334,3.8318,3.8334,3.8318,3.8318,3.8054,3.7502,3.6278,3.5147,3.4191,3.3569,3.2994,3.2507,3.2325,3.222,3.222,3.2083,3.1923,3.1783,3.189,3.1864,3.1779,3.2348,3.2736,3.2796,3.335,3.3993,3.4683,3.519,3.5489,3.5489,3.5489,3.5489,3.5489,3.5489,3.5489,3.5489,3.5424,3.5424,3.5392,3.5424,3.5504,3.5489,3.5668,3.5735,3.575,3.591,3.6022,3.6085,3.6554,3.6889,3.698,3.7397,3.7993,3.8527,3.8716,3.8659,3.8678,3.8709,3.8967,3.9134,3.8713,3.8117,3.7947,3.7329,3.6589,3.5892,3.5855,3.5661,3.5187,3.488,3.459,3.4164,3.3695,3.3392,3.2988,3.2642,3.25,3.2393,3.2343,3.2451,3.2379,3.196,3.1217,3.8175,3.7621,3.7531,3.7589,3.756,3.7648,3.769,3.769,3.7793,3.7748,3.7602,3.7589,3.7589,3.7589,3.7632,3.7674,3.769,3.7748,3.7851,3.7879,3.7822,3.8133,3.8789,3.8799,3.9166,3.9756,3.9825,3.9731,3.9731,3.9799,3.985,3.9876,3.9901,3.9808,3.985,3.985,3.9842,3.9775,3.8964,3.7563,3.5732,3.5555,3.5468,3.5404,3.4744,3.4399,3.4303,3.3752,3.3119,3.2605,3.3064,3.3031,3.2586,3.3081,3.344,3.3471,3.4085,3.4713,3.5342,3.5474,3.5554,3.5489,3.5587,3.5587,3.5587,3.5569,3.5489,3.5587,3.5554,3.5554,3.5489,3.5587,3.5636,3.5733,3.618,3.6508,3.6569,3.716,3.7589,3.7589,3.7589,3.769,3.769,3.7863,3.8136,3.8726,3.88,3.8926,3.9329,3.9424,3.9472,3.966,3.9416,3.9011,3.8546,3.8326,3.7842,3.7322,3.7203,3.6877,3.6397,3.6175,3.606,3.5221,3.4607,3.4113,3.3776,3.3276,3.2735,3.3031,3.2961,3.27,3.2629,3.2558,3.2141,3.8459,3.7822,3.7822,3.7822,3.7851,3.8262,3.8442,3.8486,3.8968,3.9172,3.9172,3.9146,3.8652,3.7835,3.8246,3.8442,3.8486,3.8941,3.9172,3.9172,3.9172,3.9305,3.9568,3.961,3.9808,4.007,4.0113,4.0113,4.0113,4.0113,4.0113,4.0113,4.0113,4.0113,4.0113,4.0113,4.0113,4.0113,3.9782,3.9163,3.8295,3.7059,3.6204,3.5803,3.5514,3.5326,3.5353,3.5054,3.4777,3.4524,3.475,3.4711,3.4479,3.5091,3.5437,3.5484,3.6079,3.6578,3.6844,3.6875,3.686,3.6875,3.686,3.686,3.686,3.6875,3.686,3.6799,3.643,3.6321,3.6753,3.686,3.686,3.6906,3.7145,3.7308,3.7338,3.7602,3.7822,3.7835,3.8177,3.8458,3.8525,3.8843,3.9029,3.8988,3.8869,3.9048,3.9209,3.9187,3.9379,3.9686,3.9706,3.9572,3.9256,3.9242,3.8898,3.8433,3.8215,3.8013,3.7421,3.7265,3.7033,3.629,3.5772,3.5275,3.4953,3.4691,3.4293,3.4279,3.4293,3.4308,3.4308,3.3822,3.3276,3.9272,3.8495,3.843,3.843,3.8502,3.8995,3.9236,3.9272,3.9859,4.0113,4.0113,4.0113,3.9497,3.8596,3.9022,3.9236,3.9315,3.9833,4.0113,4.0113,4.0113,4.0096,4.0113,4.0113,4.0113,4.0113,4.0113,4.0113,4.0113,4.0113,4.0113,4.0113,4.0113,4.0113,4.0113,4.0113,4.0113,4.0113,4.0113,4.0113,3.9868,3.852,3.7454,3.7008,3.678,3.6682,3.6682,3.6476,3.6267,3.6082,3.626,3.6265,3.6119,3.6722,3.7078,3.711,3.7502,3.7822,3.7822,3.7822,3.7822,3.7822,3.7822,3.7822,3.7822,3.7822,3.7908,3.8035,3.7571,3.7469,3.769,3.7822,3.7822,3.7822,3.795,3.8076,3.8104,3.8234,3.8502,3.8502,3.8968,3.9219,3.9299,3.9645,3.9816,3.9408,3.9269,3.9218,3.9177,3.9227,3.939,3.9807,3.9872,3.975,3.9596,3.9417,3.9219,3.8786,3.8426,3.8221,3.7873,3.7825,3.7764,3.6995,3.695,3.6828,3.6384,3.6165,3.6006,3.6038,3.5958,3.5767,3.564,3.4993,3.4543,4.1311,4.0037,3.9995,3.9901,3.9995,3.9995,4.002,3.9952,4.007,4.0113,4.0113,4.0113,4.0045,3.9901,3.9927,4.002,4.002,4.007,4.0113,4.0113,4.0113,4.0113,4.0113,4.0113,4.0113,4.0113,4.0113,4.0113,4.0113,4.0113,4.0113,4.0113,4.0113,4.0113,4.0113,4.0113,4.0113,4.0113,4.0113,4.0113,4.0096,3.9969,3.9767,3.9606,3.9176,3.8748,3.873,3.8164,3.7526,3.6818,3.739,3.7469,3.6929,3.7427,3.7825,3.7828,3.7847,3.7879,3.7892,3.7966,3.7937,3.7892,3.8007,3.7863,3.8035,3.8035,3.829,3.8799,3.8772,3.8525,3.8064,3.8108,3.8007,3.8023,3.8513,3.8799,3.887,3.9411,3.9927,3.9901,3.9876,3.9901,3.9978,4.007,4.007,3.9995,4.0003,3.9977,3.99,3.9968,3.9984,4.0017,4.0007,3.9804,3.9085,3.9205,3.8824,3.8544,3.8566,3.8091,3.7883,3.7793,3.7806,3.7777,3.7748,3.7719,3.7706,3.7618,3.7472,3.7265,3.6814,3.6631,3.6585,3.5958,3.5623,4.145,4.013,4.0113,4.0113,4.0113,4.0113,4.0113,4.0113,4.0113,4.0113,4.0113,4.0113,4.0113,4.0113,4.0113,4.0113,4.0113,4.0113,4.0113,4.0113,4.0113,4.0113,4.0113,4.0113,4.0113,4.0113,4.0113,4.0113,4.0113,4.0113,4.0113,4.0113,4.0113,4.0113,4.0113,4.0113,4.0113,4.0096,4.0113,4.0113,4.0121,4.0113,4.0113,4.0096,3.9859,3.9706,3.9723,3.9436,3.9159,3.8925,3.9143,3.9174,3.8949,3.9129,3.9279,3.9279,3.9295,3.9279,3.9279,3.9295,3.9279,3.9279,3.9279,3.9209,3.9279,3.9279,3.9385,3.961,3.9662,3.9506,3.9358,3.9279,3.9279,3.9305,3.9506,3.9636,3.9688,3.9927,4.0113,4.0113,4.0113,4.0113,4.0113,4.0113,4.0113,4.0113,4.0113,4.0096,4.0113,4.0113,4.0121,4.0096,4.0087,3.9986,3.9754,3.9677,3.9561,3.9428,3.9322,3.9339,3.9199,3.9092,3.9102,3.8596,3.8513,3.8374,3.829,3.8092,3.8092,3.795,3.7528,3.7411,3.7352,3.6874,3.6829,4.1247,4.0197,4.0113,4.0113,4.0113,4.0113,4.0113,4.0113,4.0113,4.0113,4.0113,4.0113,4.0113,4.0113,4.0113,4.0113,4.0113,4.0113,4.0113,4.0113,4.0113,4.0113,4.0113,4.0113,4.0113,4.0113,4.0113,4.0113,4.0113,4.0113,4.0179,4.0343,4.0368,4.0466,4.0594,4.0642,4.0642,4.0666,4.0642,4.0666,4.0642,4.0642,4.0642,4.0618,4.0466,4.0279,4.0121,4.0113,4.0113,4.0113,4.0113,4.0113,4.0096,4.0113,4.0113,4.0113,4.007,4.0113,4.0113,4.0113,4.007,4.0113,4.0096,4.0113,4.0113,4.0113,4.0113,4.0113,4.0113,4.0113,4.0146,4.0237,4.0286,4.0146,4.0113,4.0113,4.0113,4.0096,4.0113,4.0113,4.0113,4.0113,4.0113,4.0113,4.0113,4.0113,4.0113,4.0121,4.0311,4.0343,4.0466,4.0618,4.072,4.0744,4.0669,4.0704,4.0239,4.0037,3.9927,4.0112,4.0171,4.0146,3.9978,3.9489,3.9183,3.8978,3.8789,3.8569,3.8486,3.8458,3.8274,3.8145,3.8048,3.7892,3.7764,4.0781,4.0146,4.0113,4.0113,4.0113,4.0113,4.0113,4.0113,4.0113,4.0113,4.0113,4.0113,4.0113,4.0096,4.0154,4.0129,4.0179,4.0254,4.0204,4.0096,4.0113,4.0121,4.0179,4.0179,4.0229,4.0279,4.0196,4.0196,4.0254,4.0286,4.0497,4.085,4.0903,4.115,4.1746,4.1639,4.1703,4.166,4.1639,4.1682,4.1789,4.1682,4.1639,4.1639,4.1178,4.0703,4.0204,4.0146,4.0113,4.0113,4.0113,4.0113,4.0113,4.0113,4.0113,4.0113,4.0113,4.0113,4.0113,4.0146,4.0179,4.0204,4.0171,4.0303,4.0336,4.0303,4.0279,4.0311,4.0279,4.0246,4.0311,4.0648,4.0703,4.0229,4.0254,4.0328,4.0254,4.0171,4.0146,4.0229,4.0303,4.0146,4.0146,4.0303,4.036,4.0336,4.0336,4.0466,4.0844,4.0903,4.1178,4.153,4.153,4.1375,4.1573,4.1703,4.1053,4.0497,4.04,4.0417,4.036,4.0353,4.0229,3.9851,3.9961,3.9766,3.9594,3.9437,3.9577,3.9525,3.9246,3.8908,3.8843,3.8695,3.8362,4.0764,4.013,4.0113,4.0113,4.0113,4.0113,4.0113,4.0096,4.0096,4.0096,4.0113,4.0113,4.0113,4.0204,4.0473,4.0655,4.0679,4.1036,4.0844,4.0229,4.0121,4.0319,4.0601,4.0631,4.085,4.1196,4.1263,4.1263,4.1241,4.1258,4.138,4.149,4.1534,4.1617,4.1832,4.181,4.181,4.181,4.181,4.181,4.181,4.181,4.181,4.1789,4.1599,4.1424,4.1241,4.0538,4.0121,4.0121,4.0113,4.0113,4.0096,4.0113,4.0113,4.0113,4.0113,4.0113,4.0146,4.0449,4.0672,4.0761,4.1047,4.1258,4.1263,4.1241,4.1218,4.1241,4.1263,4.1263,4.1308,4.1397,4.1286,4.0726,4.1013,4.1196,4.1168,4.1213,4.1263,4.1263,4.1263,4.1281,4.1258,4.1236,4.119,4.119,4.1213,4.1308,4.1446,4.1512,4.1534,4.1789,4.181,4.1958,4.2083,4.2144,4.1814,4.1335,4.115,4.0868,4.0761,4.0666,4.0497,4.0449,4.057,4.0546,4.0385,4.036,4.0473,4.0336,3.9927,3.9749,3.9714,3.9516,3.9219,4.1494,4.0844,4.0762,4.0737,4.0737,4.0737,4.072,4.072,4.072,4.072,4.0761,4.0737,4.072,4.0791,4.1105,4.1223,4.1268,4.166,4.142,4.0814,4.072,4.0938,4.1223,4.1246,4.1402,4.1725,4.181,4.181,4.181,4.181,4.1895,4.2101,4.2142,4.2264,4.2406,4.2426,4.2444,4.2444,4.2464,4.2444,4.2426,4.2426,4.2426,4.2424,4.2244,4.2142,4.208,4.1196,4.0737,4.072,4.072,4.072,4.0737,4.0744,4.0737,4.0737,4.0744,4.0744,4.0784,4.1082,4.1246,4.1353,4.1595,4.1789,4.1789,4.181,4.181,4.181,4.1768,4.181,4.181,4.2021,4.1937,4.1603,4.1643,4.181,4.181,4.181,4.1789,4.1746,4.1768,4.181,4.181,4.181,4.181,4.181,4.181,4.1976,4.2021,4.2142,4.2203,4.2324,4.2562,4.26,4.2523,4.2503,4.2503,4.2226,4.1982,4.1617,4.1326,4.1263,4.1173,4.1127,4.1173,4.1218,4.1076,4.1127,4.1155,4.0844,4.0618,4.075,4.0756,4.0456,4.0177,4.2868,4.2159,4.1939,4.1778,4.1725,4.1703,4.1682,4.1746,4.1725,4.1664,4.1686,4.1639,4.1703,4.1768,4.1771,4.1853,4.1874,4.2,4.2062,4.1937,4.1877,4.1919,4.1835,4.194,4.2024,4.2041,4.2041,4.2,4.2103,4.2083,4.2183,4.2693,4.2751,4.2976,4.3232,4.3463,4.3356,4.3321,4.3374,4.3392,4.3374,4.341,4.3391,4.3374,4.2976,4.2732,4.2637,4.2185,4.1853,4.1793,4.166,4.1639,4.1746,4.1789,4.1682,4.166,4.1768,4.1703,4.1746,4.1789,4.1853,4.1853,4.1979,4.1898,4.2062,4.2124,4.2124,4.2103,4.2062,4.2021,4.2124,4.2422,4.2674,4.2674,4.2344,4.2103,4.1937,4.2,4.2103,4.2024,4.1919,4.1937,4.2062,4.2062,4.2041,4.2041,4.2083,4.2324,4.2578,4.2789,4.2995,4.3105,4.3142,4.3105,4.2959,4.2959,4.2959,4.2847,4.262,4.2304,4.1874,4.1768,4.1621,4.1621,4.1789,4.181,4.1768,4.1746,4.1664,4.1446,4.1486,4.1768,4.1595,4.1173,4.099,4.3978,4.2802,4.2709,4.2328,4.1846,4.181,4.1832,4.181,4.1832,4.1895,4.1832,4.181,4.1874,4.1853,4.2284,4.246,4.2521,4.2829,4.3051,4.3051,4.3051,4.2809,4.2637,4.2865,4.2996,4.2996,4.294,4.3032,4.3051,4.2959,4.3087,4.3268,4.325,4.3321,4.3497,4.3479,4.3479,4.3479,4.3479,4.3479,4.3479,4.3479,4.3479,4.3479,4.3339,4.3268,4.3268,4.3142,4.26,4.1874,4.181,4.181,4.1874,4.1874,4.1916,4.1916,4.1874,4.1832,4.1916,4.2223,4.2422,4.25,4.2734,4.3051,4.3069,4.3032,4.3032,4.3051,4.3051,4.3014,4.3051,4.316,4.325,4.3268,4.3051,4.2959,4.2977,4.3032,4.3051,4.3069,4.2996,4.2959,4.294,4.294,4.294,4.2959,4.2959,4.2995,4.3124,4.3196,4.3286,4.3357,4.3391,4.3444,4.3444,4.3444,4.3427,4.3374,4.3196,4.2977,4.2521,4.2124,4.1937,4.1768,4.2264,4.2424,4.2223,4.2101,4.2038,4.2065,4.2003,4.2065,4.1898,4.1599,4.1595,4.515,4.4296,4.3899,4.344,4.299,4.2649,4.2523,4.2523,4.2505,4.2523,4.2505,4.2523,4.2523,4.258,4.2865,4.3032,4.3087,4.3339,4.3462,4.3479,4.3444,4.3286,4.3142,4.3392,4.3479,4.3479,4.3479,4.3462,4.3462,4.3479,4.3479,4.3462,4.3479,4.3479,4.3479,4.3479,4.3479,4.3479,4.3479,4.3479,4.3479,4.3479,4.3479,4.3479,4.3479,4.3479,4.3479,4.3479,4.3142,4.2639,4.2505,4.2505,4.2523,4.2523,4.2523,4.2523,4.2505,4.2524,4.2562,4.2847,4.3014,4.3069,4.3356,4.3444,4.3462,4.3479,4.3479,4.3462,4.3479,4.3479,4.3479,4.3479,4.3479,4.3462,4.3479,4.3479,4.3479,4.3444,4.3479,4.3479,4.3479,4.3479,4.3479,4.3479,4.3479,4.3462,4.3374,4.3391,4.3444,4.3479,4.3479,4.3479,4.3479,4.3479,4.3479,4.3479,4.3479,4.3479,4.3462,4.3322,4.3069,4.2599,4.2562,4.2542,4.2828,4.2976,4.2752,4.2675,4.2809,4.2754,4.2544,4.2446,4.2426,4.2185,4.2183,4.6365,4.6207,4.5332,4.4856,4.4527,4.392,4.3502,4.3462,4.3374,4.3391,4.3391,4.3462,4.3339,4.3479,4.3356,4.3462,4.3462,4.3462,4.3479,4.3479,4.3479,4.3444,4.3427,4.3444,4.3479,4.3479,4.3479,4.3479,4.3479,4.3479,4.3479,4.3479,4.3479,4.3479,4.3479,4.3479,4.3479,4.3479,4.3479,4.3479,4.3479,4.3479,4.3479,4.3479,4.3479,4.3479,4.3479,4.3479,4.3409,4.3462,4.3479,4.3374,4.3427,4.3444,4.3427,4.3374,4.3303,4.3339,4.3444,4.3374,4.3444,4.3444,4.3444,4.3479,4.3479,4.3479,4.3479,4.3479,4.3479,4.3479,4.3479,4.3479,4.3479,4.3479,4.3479,4.3479,4.3479,4.3479,4.3479,4.3479,4.3479,4.3479,4.3479,4.3479,4.3479,4.3479,4.3479,4.3479,4.3479,4.3479,4.3479,4.3479,4.3479,4.3479,4.3479,4.3479,4.3479,4.3479,4.3479,4.3427,4.3427,4.3214,4.3339,4.341,4.3286,4.3268,4.3303,4.3321,4.3374,4.3339,4.3032,4.3195,4.3356,4.2922,4.2771,4.7491,4.6888,4.6672,4.5847,4.4783,4.4507,4.4085,4.3533,4.3497,4.3479,4.3479,4.3479,4.3479,4.3479,4.3479,4.3479,4.3479,4.3479,4.3479,4.3479,4.3479,4.3479,4.3479,4.3479,4.3479,4.3479,4.3479,4.3479,4.3479,4.3479,4.3479,4.3479,4.3479,4.3479,4.3479,4.3479,4.3479,4.3479,4.3479,4.3479,4.3479,4.3479,4.3479,4.3479,4.3479,4.3479,4.3479,4.3479,4.3479,4.3479,4.3479,4.3479,4.3479,4.3479,4.3479,4.3479,4.3479,4.3479,4.3479,4.3479,4.3479,4.3479,4.3479,4.3479,4.3479,4.3479,4.3479,4.3479,4.3479,4.3479,4.3479,4.3479,4.3479,4.3479,4.3513,4.3531,4.3496,4.3496,4.3479,4.3479,4.3479,4.3479,4.3479,4.3479,4.3479,4.3479,4.3479,4.3479,4.3479,4.3479,4.3479,4.3479,4.3479,4.3479,4.3479,4.3479,4.3479,4.3529,4.3563,4.3496,4.3496,4.3546,4.358,4.3529,4.3462,4.3479,4.3479,4.3479,4.3444,4.3479,4.3479,4.3479,4.3444,4.3286,4.3214,4.8067,4.7626,4.7259,4.6599,4.5773,4.5021,4.4452,4.403,4.3626,4.3479,4.3479,4.3479,4.3479,4.3479,4.3479,4.3479,4.3479,4.3479,4.3479,4.3479,4.3479,4.3479,4.3479,4.3479,4.3479,4.3479,4.3479,4.3479,4.3479,4.3479,4.3479,4.3479,4.3479,4.3479,4.3479,4.3479,4.3479,4.3479,4.3479,4.3479,4.3479,4.3479,4.3479,4.3479,4.3479,4.3479,4.3479,4.3479,4.3479,4.3479,4.3479,4.3479,4.3479,4.3479,4.3479,4.3479,4.3479,4.3479,4.3479,4.3479,4.3479,4.3479,4.3479,4.3479,4.3479,4.3479,4.3479,4.3479,4.3479,4.3479,4.3479,4.3479,4.3496,4.3531,4.3646,4.3726,4.371,4.3614,4.3479,4.3479,4.3479,4.3479,4.3479,4.3563,4.3529,4.3546,4.3586,4.3569,4.3515,4.3515,4.3479,4.3479,4.3479,4.3479,4.3479,4.3479,4.3479,4.358,4.3693,4.3595,4.3548,4.3595,4.3693,4.3595,4.3479,4.3479,4.3479,4.3479,4.3513,4.3496,4.3496,4.3479,4.3462,4.3392,4.3375,4.8324,4.8251,4.7553,4.7204,4.6892,4.5663,4.5057,4.4782,4.403,4.3773,4.3626,4.3606,4.3479,4.3479,4.3479,4.3479,4.3479,4.3479,4.3479,4.3479,4.3479,4.3479,4.3479,4.3479,4.3479,4.3479,4.3479,4.3479,4.3479,4.3479,4.3479,4.3479,4.3479,4.3479,4.3479,4.3479,4.3479,4.3479,4.3479,4.3479,4.3479,4.3479,4.3479,4.3479,4.3479,4.3479,4.3479,4.3479,4.3479,4.3479,4.3479,4.3479,4.3479,4.3479,4.3479,4.3479,4.3479,4.3479,4.3479,4.3479,4.3479,4.3479,4.3479,4.3479,4.3479,4.3479,4.3479,4.3479,4.3496,4.3531,4.3546,4.3612,4.3646,4.3744,4.3958,4.4076,4.4046,4.382,4.3775,4.3726,4.3836,4.3884,4.3775,4.3758,4.3677,4.3649,4.3724,4.3798,4.3815,4.3884,4.4073,4.4006,4.4082,4.3965,4.3931,4.3899,4.3836,4.3852,4.3958,4.3865,4.3791,4.3912,4.3986,4.3595,4.3479,4.3513,4.3563,4.3612,4.3612,4.3529,4.3563,4.3646,4.3579,4.3513,4.3496,4.8324,4.8306,4.8159,4.7718,4.7131,4.6782,4.625,4.5626,4.4856,4.4507,4.4433,4.3809,4.3552,4.3516,4.3479,4.3479,4.3479,4.3479,4.3534,4.3571,4.3608,4.3608,4.3754,4.3791,4.3663,4.3479,4.3589,4.3681,4.3497,4.3479,4.3479,4.3479,4.3479,4.3479,4.3479,4.3479,4.3479,4.3479,4.3479,4.3479,4.3479,4.3479,4.3479,4.3479,4.3479,4.3479,4.3479,4.3479,4.3479,4.3479,4.3479,4.3479,4.3479,4.3479,4.3479,4.3479,4.3479,4.3479,4.3479,4.3479,4.3479,4.3479,4.3479,4.3496,4.3513,4.3531,4.358,4.3597,4.3614,4.3629,4.3878,4.3927,4.4091,4.4294,4.4433,4.4501,4.4468,4.4441,4.4406,4.4387,4.4419,4.4341,4.4202,4.4192,4.4345,4.4553,4.4836,4.5024,4.5193,4.5248,4.5368,4.5143,4.4874,4.4667,4.446,4.4419,4.4378,4.4337,4.4378,4.4373,4.4332,4.4414,4.4323,4.3943,4.3712,4.3662,4.371,4.3804,4.3804,4.3807,4.3804,4.3818,4.3788,4.3761,4.3597,4.8324,4.8324,4.8324,4.8067,4.7681,4.7259,4.6892,4.6415,4.5681,4.5333,4.5094,4.4507,4.4121,4.4011,4.3643,4.3497,4.3516,4.3479,4.3718,4.3993,4.414,4.4397,4.4617,4.469,4.4763,4.4764,4.4727,4.4195,4.3571,4.3479,4.3552,4.3479,4.3479,4.3479,4.3479,4.3479,4.3497,4.3497,4.3479,4.3479,4.3479,4.3479,4.3479,4.3479,4.3479,4.3479,4.3479,4.3479,4.3479,4.3479,4.3479,4.3479,4.3479,4.3479,4.3479,4.3479,4.3479,4.3479,4.3479,4.3479,4.3479,4.3479,4.3496,4.3597,4.3693,4.3788,4.3818,4.3989,4.4065,4.414,4.4308,4.4323,4.4419,4.4567,4.4732,4.483,4.4877,4.5,4.5071,4.5057,4.482,4.4687,4.4608,4.471,4.4992,4.5387,4.5857,4.6218,4.6522,4.6561,4.6581,4.6196,4.5811,4.5319,4.5085,4.4965,4.4814,4.4776,4.4788,4.4781,4.4769,4.4781,4.4587,4.4294,4.411,4.4046,4.411,4.4266,4.4184,4.411,4.4194,4.4237,4.411,4.3977,4.3855,4.8324,4.8324,4.8324,4.8324,4.8196,4.7626,4.7351,4.7168,4.647,4.614,4.603,4.5351,4.4947,4.48,4.4378,4.4047,4.3992,4.4048,4.4433,4.4819,4.4947,4.5314,4.57,4.5902,4.5755,4.559,4.5645,4.5241,4.4433,4.4176,4.4047,4.4158,4.4048,4.3846,4.3846,4.3864,4.3699,4.3497,4.3479,4.3479,4.3479,4.3479,4.3479,4.3479,4.3479,4.3479,4.3479,4.3479,4.3479,4.3479,4.3479,4.3479,4.3479,4.3479,4.3479,4.3479,4.3479,4.3479,4.3479,4.3515,4.3548,4.3646,4.3612,4.3788,4.4016,4.4165,4.4252,4.4527,4.4553,4.4593,4.4657,4.4714,4.4763,4.4884,4.5074,4.5211,4.5253,4.54,4.5649,4.5523,4.519,4.528,4.5489,4.5438,4.576,4.6586,4.708,4.7485,4.7741,4.7753,4.7669,4.7229,4.673,4.6083,4.5745,4.5533,4.5308,4.5074,4.5118,4.515,4.5107,4.5074,4.4877,4.475,4.4787,4.4762,4.4769,4.4663,4.454,4.4514,4.4631,4.458,4.4392,4.428,4.418,4.8324,4.8324,4.8324,4.8324,4.8306,4.8177,4.8122,4.8031,4.7259,4.6966,4.6911,4.6159,4.5736,4.5608,4.559,4.5535,4.5516,4.5424,4.548,4.5736,4.5773,4.5883,4.5975,4.5902,4.6177,4.625,4.6122,4.5828,4.5553,4.5535,4.548,4.5424,4.5296,4.5278,4.4599,4.4562,4.4176,4.3644,4.3497,4.3479,4.3479,4.3479,4.3496,4.3531,4.3531,4.3563,4.3612,4.3629,4.3595,4.358,4.3548,4.3513,4.3479,4.3479,4.3479,4.3479,4.3479,4.3479,4.3496,4.3548,4.3662,4.3833,4.3924,4.4146,4.4401,4.4561,4.46,4.4553,4.4631,4.4781,4.4988,4.5041,4.5171,4.5293,4.541,4.5524,4.5618,4.5851,4.6096,4.6519,4.6393,4.6559,4.6761,4.66,4.659,4.7507,4.828,4.8682,4.893,4.892,4.8594,4.813,4.784,4.7229,4.6653,4.6409,4.6037,4.5629,4.5572,4.5582,4.539,4.5332,4.5429,4.5333,4.5371,4.5213,4.5,4.4884,4.4861,4.4896,4.4966,4.4837,4.4637,4.4553,4.4508,4.8324,4.8324,4.8324,4.8324,4.8324,4.8324,4.8324,4.8251,4.7957,4.7755,4.7608,4.6948,4.6361,4.6067,4.5902,4.5883,4.5902,4.5957,4.6195,4.6544,4.6617,4.6801,4.7223,4.726,4.726,4.715,4.726,4.737,4.704,4.6342,4.5902,4.5957,4.592,4.5718,4.5388,4.5388,4.4911,4.4305,4.3773,4.3497,4.3479,4.3513,4.3597,4.3791,4.3807,4.3881,4.4016,4.4106,4.4125,4.4125,4.4125,4.4125,4.4125,4.414,4.414,4.4121,4.414,4.3946,4.3615,4.3712,4.3865,4.4031,4.4219,4.4495,4.4818,4.5033,4.512,4.5171,4.5171,4.5243,4.5341,4.5371,4.5448,4.5578,4.5864,4.6086,4.624,4.6355,4.6624,4.7124,4.7625,4.7798,4.8009,4.8106,4.8064,4.8536,4.9248,4.9689,4.994,5.0027,4.9576,4.8952,4.8712,4.8452,4.7866,4.7425,4.6992,4.659,4.6321,4.6195,4.5675,4.5577,4.5594,4.5594,4.5513,4.5352,4.515,4.5171,4.5232,4.5253,4.5283,4.515,4.5011,4.4919,4.4842,4.8324,4.8324,4.8324,4.8324,4.8324,4.8324,4.8324,4.8324,4.8288,4.8306,4.8158,4.7645,4.7039,4.6636,4.6599,4.6691,4.6581,4.6507,4.6856,4.726,4.7461,4.77,4.7976,4.8196,4.8196,4.8324,4.8086,4.8104,4.781,4.7278,4.6673,4.6489,4.6746,4.6452,4.625,4.6159,4.581,4.5039,4.425,4.3988,4.3961,4.3756,4.3889,4.4031,4.4175,4.4308,4.454,4.4567,4.4553,4.454,4.4527,4.4487,4.4501,4.4487,4.4487,4.4487,4.4474,4.4308,4.4065,4.4031,4.418,4.4373,4.46,4.4969,4.5171,4.5466,4.5586,4.5513,4.5522,4.5646,4.5855,4.5962,4.6203,4.6346,4.6441,4.674,4.7009,4.7144,4.749,4.8105,4.8586,4.8952,4.9202,4.9548,4.9692,4.9788,5.0183,5.0606,5.0693,5.0673,5.0346,4.9663,4.9625,4.9356,4.8779,4.8298,4.7894,4.7509,4.7212,4.6817,4.6297,4.5806,4.5594,4.5594,4.5633,4.5531,4.5371,4.5495,4.5586,4.5513,4.5448,4.5513,4.5448,4.5322,4.5129,4.8324,4.8324,4.8324,4.8324,4.8324,4.8324,4.8324,4.8324,4.8324,4.8324,4.8306,4.8196,4.8067,4.8012,4.7865,4.7902,4.8067,4.8103,4.8049,4.8086,4.8233,4.8196,4.8324,4.8324,4.8324,4.8324,4.8324,4.8324,4.8288,4.8067,4.7939,4.8122,4.7737,4.748,4.7168,4.6856,4.6526,4.5791,4.5092,4.4857,4.4811,4.46,4.4381,4.4568,4.4591,4.4599,4.4606,4.4682,4.472,4.4732,4.4745,4.4745,4.4781,4.4769,4.4769,4.4769,4.4757,4.467,4.4574,4.4521,4.4695,4.5,4.5253,4.54,4.5466,4.5569,4.5633,4.5787,4.5998,4.6259,4.6586,4.6874,4.7067,4.7221,4.7317,4.7586,4.7836,4.7971,4.8355,4.9048,4.9471,4.974,4.9913,5.0144,5.0202,5.026,5.0279,5.0683,5.0683,5.0693,5.0693,5.0414,5.0452,5.0144,4.951,4.9106,4.8856,4.8317,4.7875,4.7413,4.6913,4.6432,4.5922,4.5768,4.5825,4.571,4.5594,4.5594,4.5594,4.5594,4.5594,4.5594,4.5594,4.5475,4.5322,4.8324,4.8324,4.8324,4.8324,4.8324,4.8324,4.8324,4.8324,4.8324,4.8324,4.8324,4.8324,4.8324,4.8324,4.8324,4.8324,4.8324,4.8324,4.8324,4.8324,4.8306,4.8324,4.8324,4.8324,4.8324,4.8324,4.8324,4.8324,4.8324,4.8324,4.8324,4.8306,4.8324,4.814,4.7791,4.7407,4.6966,4.669,4.6148,4.5932,4.5935,4.6029,4.5825,4.5625,4.5641,4.5471,4.5297,4.5222,4.5222,4.525,4.5267,4.5295,4.5341,4.5303,4.5303,4.5303,4.5322,4.5303,4.5233,4.5109,4.5055,4.5313,4.5513,4.5671,4.5825,4.6086,4.6336,4.6547,4.6817,4.7201,4.7509,4.7644,4.7759,4.8,4.8259,4.8509,4.8702,4.8856,4.9125,4.976,5.0087,5.0346,5.0471,5.0606,5.0625,5.0644,5.0664,5.0683,5.0683,5.0683,5.0683,5.0683,5.0683,5.0683,5.0087,4.9913,4.9817,4.9202,4.8548,4.8125,4.7663,4.6971,4.6509,4.6278,4.599,4.5855,4.5748,4.5633,4.5594,4.5594,4.5594,4.5594,4.5594,4.5594,4.5495,4.8324,4.8324,4.8324,4.8324,4.8324,4.8324,4.8324,4.8324,4.8324,4.8324,4.8324,4.8324,4.8324,4.8324,4.8324,4.8324,4.8324,4.8324,4.8324,4.8324,4.8324,4.8324,4.8324,4.8324,4.8324,4.8324,4.8324,4.8324,4.8324,4.8324,4.8324,4.8324,4.8324,4.8269,4.8179,4.7961,4.761,4.7533,4.7281,4.7121,4.722,4.7119,4.7155,4.6825,4.684,4.6749,4.6551,4.6503,4.6454,4.6464,4.6434,4.6376,4.6365,4.6336,4.6336,4.6336,4.6345,4.6306,4.6233,4.5937,4.5908,4.6425,4.6491,4.6471,4.6509,4.6913,4.7221,4.7288,4.7769,4.8221,4.8375,4.849,4.8798,4.9125,4.926,4.9471,4.9644,4.9808,5.0077,5.0442,5.0596,5.0616,5.0635,5.0683,5.0683,5.0683,5.0683,5.0683,5.0683,5.0683,5.0683,5.0683,5.0683,5.0683,5.0644,5.0414,5.0183,4.9971,4.9375,4.8971,4.8452,4.774,4.7278,4.7144,4.6778,4.6201,4.5932,4.5893,4.5748,4.5594,4.5594,4.5594,4.5594,4.5594,4.5594,4.8324,4.8324,4.8324,4.8324,4.8324,4.8324,4.8324,4.8324,4.8324,4.8324,4.8324,4.8324,4.8324,4.8324,4.8324,4.8324,4.8324,4.8324,4.8324,4.8324,4.8324,4.8324,4.8324,4.8324,4.8324,4.8324,4.8324,4.8324,4.8324,4.8324,4.8324,4.842,4.8477,4.8458,4.8364,4.8692,4.8824,4.8779,4.8386,4.8453,4.846,4.8176,4.8105,4.7961,4.7972,4.7895,4.7587,4.7548,4.7509,4.7548,4.7586,4.7586,4.7625,4.7663,4.7702,4.774,4.7798,4.7894,4.7962,4.7279,4.7299,4.7577,4.7471,4.7586,4.7836,4.8048,4.8086,4.8125,4.8394,4.874,4.9048,4.9413,4.9798,5.0019,5.0115,5.0192,5.0308,5.0385,5.0558,5.0635,5.0673,5.0683,5.0683,5.0683,5.0683,5.0683,5.0683,5.0683,5.0683,5.0683,5.0683,5.0683,5.0683,5.0683,5.0683,5.0683,5.0548,5.0414,5.0164,4.9721,4.924,4.8625,4.8259,4.8067,4.7509,4.6874,4.6471,4.6182,4.5874,4.5594,4.5594,4.5594,4.5594,4.5594,4.5594,4.8324,4.8324,4.8324,4.8324,4.8324,4.8324,4.8324,4.8324,4.8324,4.8324,4.8324,4.8324,4.8324,4.8324,4.8324,4.8324,4.8324,4.8324,4.8324,4.8324,4.8324,4.8324,4.8324,4.8324,4.8324,4.8306,4.8306,4.8344,4.8324,4.8401,4.8532,4.8639,4.8915,4.8949,4.8898,4.9078,4.9295,4.9333,4.937,4.9556,4.9639,4.9543,4.9364,4.9009,4.8952,4.874,4.8317,4.8336,4.8336,4.8317,4.8336,4.8298,4.8279,4.8279,4.8231,4.8182,4.8163,4.8413,4.8721,4.8615,4.8346,4.8336,4.8259,4.8298,4.8135,4.8702,4.8875,4.9086,4.9375,4.9779,5.0192,5.024,5.0462,5.0462,5.051,5.0529,5.0596,5.0616,5.0673,5.0673,5.0683,5.0683,5.0683,5.0683,5.0683,5.0683,5.0683,5.0683,5.0683,5.0683,5.0683,5.0683,5.0683,5.0683,5.0683,5.0683,5.0683,5.0567,5.0529,5.0414,4.9913,4.9394,4.9183,4.8952,4.824,4.7538,4.7028,4.649,4.5902,4.5594,4.5652,4.5633,4.5594,4.5594,4.5594,4.8324,4.8324,4.8324,4.8324,4.8324,4.8324,4.8324,4.8324,4.8324,4.8324,4.8324,4.8324,4.8324,4.8324,4.8324,4.8324,4.8324,4.8324,4.8324,4.8324,4.8324,4.8324,4.8324,4.8325,4.8324,4.8344,4.8477,4.8532,4.8586,4.8676,4.8881,4.9155,4.9504,4.9518,4.9475,4.9589,4.9719,4.9794,4.9966,5.0229,5.0314,5.0352,5.0327,4.999,4.9779,4.9606,4.9183,4.899,4.8971,4.8952,4.8952,4.8952,4.8971,4.899,4.899,4.9009,4.9067,4.9356,4.9702,4.9817,4.951,4.9221,4.9009,4.899,4.9048,4.9586,4.9779,5.0029,5.0442,5.0558,5.0654,5.0683,5.0683,5.0683,5.0683,5.0683,5.0683,5.0683,5.0683,5.0683,5.0683,5.0683,5.0683,5.0683,5.0683,5.0683,5.0683,5.0683,5.0683,5.0683,5.0683,5.0683,5.0683,5.0683,5.0683,5.0683,5.0683,5.0683,5.0683,5.0683,5.0577,5.0058,4.9933,4.974,4.9029,4.8298,4.7471,4.6836,4.6374,4.597,4.5768,4.5729,4.5614,4.5594,4.5594,4.8324,4.8324,4.8324,4.8324,4.8324,4.8324,4.8324,4.8324,4.8324,4.8325,4.8344,4.8382,4.8458,4.8402,4.8402,4.8458,4.8477,4.8458,4.8477,4.8458,4.8568,4.8495,4.8477,4.8477,4.8568,4.8604,4.8711,4.8913,4.8963,4.9252,4.9464,4.9589,4.9905,4.9999,5.0049,5.008,5.0123,5.0218,5.0369,5.0554,5.0614,5.0644,5.0616,5.0433,5.0414,5.0394,5.024,5.0279,5.0356,5.0414,5.0491,5.0548,5.0606,5.0664,5.0673,5.0616,5.051,5.05,5.05,5.05,5.05,5.0202,5.0375,5.0577,5.05,5.0356,5.0356,5.0414,5.0635,5.0654,5.0683,5.0683,5.0683,5.0683,5.0683,5.0683,5.0683,5.0683,5.0683,5.0683,5.0683,5.0683,5.0683,5.0683,5.0683,5.0683,5.0683,5.0683,5.0683,5.0683,5.0683,5.0683,5.0683,5.0683,5.0683,5.0683,5.0683,5.0683,5.0683,5.0683,5.0635,5.0616,5.0423,5.0106,4.9721,4.9067,4.8298,4.7586,4.6981,4.6605,4.6201,4.5825,4.5729,4.5614,4.5594,4.8324,4.8324,4.8324,4.8324,4.8324,4.8324,4.8324,4.8324,4.8324,4.8439,4.8709,4.8745,4.8847,4.9142,4.9158,4.9142,4.9142,4.9139,4.9174,4.9126,4.9029,4.9108,4.9108,4.9078,4.9108,4.9174,4.9249,4.9341,4.9416,4.9733,4.9924,4.9987,5.0283,5.0442,5.0493,5.0504,5.0493,5.0504,5.0634,5.0673,5.0683,5.0683,5.0683,5.0683,5.0683,5.0683,5.0683,5.0683,5.0683,5.0683,5.0683,5.0683,5.0683,5.0683,5.0693,5.0693,5.0664,5.0664,5.0683,5.0683,5.0683,5.0683,5.0683,5.0683,5.0683,5.0683,5.0683,5.0683,5.0683,5.0683,5.0683,5.0683,5.0683,5.0683,5.0683,5.0683,5.0683,5.0683,5.0683,5.0683,5.0683,5.0683,5.0683,5.0683,5.0683,5.0683,5.0683,5.0683,5.0683,5.0683,5.0683,5.0683,5.0683,5.0683,5.0683,5.0683,5.0683,5.0683,5.0683,5.0683,5.0673,5.0673,5.0683,5.0452,5.0029,4.9625,4.9144,4.8452,4.774,4.7105,4.6663,4.6201,4.5845,4.5729,4.5614,4.8324,4.8324,4.8324,4.8402,4.8532,4.855,4.8604,4.8728,4.8622,4.8692,4.8897,4.9059,4.928,4.9431,4.9445,4.9445,4.9445,4.9416,4.9416,4.9416,4.9532,4.9445,4.9475,4.9537,4.9445,4.9551,4.9664,4.9746,4.9846,5.0111,5.0336,5.0358,5.0624,5.0644,5.0673,5.0644,5.0673,5.0673,5.0683,5.0683,5.0683,5.0683,5.0683,5.0683,5.0683,5.0683,5.0683,5.0683,5.0683,5.0683,5.0683,5.0683,5.0683,5.0683,5.0683,5.0683,5.0683,5.0683,5.0683,5.0683,5.0683,5.0683,5.0683,5.0683,5.0683,5.0683,5.0683,5.0683,5.0683,5.0683,5.0683,5.0683,5.0683,5.0683,5.0683,5.0683,5.0683,5.0683,5.0683,5.0683,5.0683,5.0683,5.0683,5.0683,5.0683,5.0683,5.0683,5.0683,5.0683,5.0683,5.0683,5.0683,5.0683,5.0683,5.0683,5.0683,5.0683,5.0683,5.0683,5.0683,5.0683,5.0683,5.0683,5.0548,5.0317,5.001,4.9779,4.9163,4.849,4.7894,4.724,4.6663,4.6201,4.5845,4.5729,4.8324,4.8306,4.8344,4.8604,4.8911,4.8947,4.9158,4.9445,4.9155,4.9011,4.9123,4.9401,4.9608,4.976,4.9773,4.976,4.9787,4.9787,4.98,4.9622,4.976,4.9787,4.976,4.9636,4.9813,4.9813,4.9911,5.0159,5.0249,5.0421,5.0604,5.0683,5.0683,5.0683,5.0683,5.0683,5.0683,5.0683,5.0683,5.0683,5.0683,5.0683,5.0683,5.0683,5.0683,5.0683,5.0683,5.0683,5.0683,5.0683,5.0683,5.0683,5.0683,5.0683,5.0683,5.0683,5.0683,5.0683,5.0683,5.0683,5.0683,5.0683,5.0683,5.0683,5.0683,5.0683,5.0683,5.0683,5.0683,5.0683,5.0683,5.0683,5.0683,5.0683,5.0683,5.0683,5.0683,5.0683,5.0683,5.0683,5.0683,5.0683,5.0683,5.0683,5.0683,5.0683,5.0683,5.0683,5.0683,5.0683,5.0683,5.0683,5.0683,5.0683,5.0683,5.0683,5.0683,5.0683,5.0683,5.0683,5.0683,5.0683,5.0683,5.0567,5.0471,5.0567,5.0356,4.9808,4.9307,4.8817,4.8105,4.724,4.6644,4.6131,4.5768,4.8324,4.8344,4.8621,4.8978,4.9341,4.9356,4.9416,4.9537,4.9746,4.98,4.9808,4.9905,5.0104,5.0283,5.0294,5.0294,5.0336,5.0249,5.038,5.0336,5.0306,5.0218,5.0347,5.026,5.0355,5.0432,5.0534,5.0715,5.0802,5.0816,5.077,5.077,5.0866,5.0962,5.0952,5.0933,5.0952,5.1029,5.0991,5.0991,5.0952,5.0779,5.0683,5.0683,5.0683,5.0683,5.0683,5.0683,5.0683,5.0683,5.0683,5.0683,5.0683,5.0683,5.0683,5.0683,5.0683,5.0683,5.0683,5.0683,5.0683,5.0683,5.0683,5.0683,5.0683,5.0683,5.0683,5.0683,5.0683,5.0683,5.0683,5.0683,5.0683,5.0683,5.0683,5.0683,5.0683,5.0683,5.0683,5.0683,5.0683,5.0683,5.0683,5.0683,5.0683,5.0683,5.0683,5.0683,5.0683,5.0683,5.0683,5.0683,5.0683,5.0683,5.0683,5.0683,5.0683,5.0683,5.0683,5.0683,5.0693,5.0683,5.0683,5.0683,5.0664,5.0712,5.073,5.0596,5.0115,4.964,4.8876,4.7962,4.7036,4.6431,4.5956,4.883,4.8864,4.9059,4.9401,4.9714,4.976,4.9872,5.0056,5.0272,5.0358,5.0358,5.0388,5.0493,5.0683,5.0683,5.0683,5.0683,5.0683,5.0614,5.0663,5.076,5.0644,5.0683,5.0818,5.0989,5.1106,5.1645,5.1865,5.1683,5.1837,5.1895,5.1741,5.1741,5.1722,5.1741,5.1779,5.1722,5.1856,5.1741,5.1722,5.1548,5.1221,5.0779,5.0683,5.0712,5.0712,5.0683,5.0683,5.0683,5.0683,5.0683,5.0683,5.0683,5.0683,5.0683,5.0683,5.0683,5.0683,5.0683,5.0683,5.0683,5.0683,5.0683,5.0683,5.0683,5.0683,5.0683,5.0683,5.0683,5.0683,5.0683,5.0683,5.0683,5.0683,5.0683,5.0683,5.0683,5.0683,5.0683,5.0683,5.0683,5.0683,5.0683,5.0683,5.0683,5.0683,5.0683,5.0683,5.0683,5.0683,5.0683,5.0683,5.0683,5.0683,5.0683,5.0683,5.0683,5.0683,5.0702,5.0712,5.0731,5.0702,5.0683,5.074,5.0775,5.0789,5.0808,5.0797,5.0817,5.0428,4.9588,4.8683,4.7741,4.6855,4.6322,4.9504,4.9561,4.9594,4.98,5.0166,5.0171,5.0366,5.0624,5.0683,5.0673,5.0644,5.0663,5.0683,5.0683,5.0683,5.0683,5.0683,5.0683,5.0683,5.0933,5.0952,5.126,5.1318,5.1231,5.1645,5.2106,5.2606,5.2837,5.2876,5.2876,5.2876,5.3145,5.3203,5.3164,5.3203,5.3145,5.2953,5.2856,5.2837,5.301,5.2529,5.1837,5.1318,5.101,5.0837,5.0808,5.077,5.0683,5.0683,5.0683,5.0683,5.0683,5.0683,5.0683,5.0683,5.0683,5.0683,5.0683,5.0683,5.0683,5.0683,5.0683,5.0683,5.0683,5.0683,5.0683,5.0683,5.0683,5.0683,5.0683,5.0683,5.0683,5.0683,5.0683,5.0683,5.0683,5.0683,5.0683,5.0683,5.0683,5.0683,5.0683,5.0683,5.0683,5.0683,5.0683,5.0683,5.0683,5.0683,5.0683,5.0683,5.0683,5.0683,5.0683,5.0693,5.0702,5.0712,5.0712,5.073,5.074,5.0766,5.083,5.0844,5.0822,5.0859,5.0903,5.0959,5.0966,5.0986,5.0977,5.0079,4.9146,4.8623,4.7734,4.6848,4.9706,4.9974,4.9993,5.0225,5.0525,5.0575,5.0624,5.0683,5.0683,5.0683,5.0683,5.0683,5.0683,5.0683,5.0683,5.0741,5.0894,5.0837,5.1241,5.1596,5.1683,5.2106,5.2414,5.2414,5.2741,5.3068,5.3269,5.3222,5.3664,5.3491,5.326,5.3376,5.3337,5.3318,5.3299,5.3337,5.3472,5.353,5.3491,5.3491,5.3395,5.2818,5.2375,5.2,5.1654,5.126,5.0914,5.0702,5.0683,5.0683,5.0683,5.0683,5.0683,5.0683,5.0683,5.0683,5.0683,5.0683,5.0683,5.0683,5.0683,5.0683,5.0683,5.0683,5.0683,5.0683,5.0683,5.0683,5.0683,5.0683,5.0683,5.0683,5.0683,5.0683,5.0683,5.0683,5.0683,5.0683,5.0683,5.0683,5.0683,5.0683,5.0683,5.0683,5.0683,5.0683,5.0683,5.0683,5.0683,5.0683,5.0683,5.0683,5.0683,5.0693,5.0693,5.0721,5.074,5.0739,5.0782,5.0835,5.0903,5.1022,5.1027,5.0966,5.0991,5.1047,5.1084,5.1098,5.1122,5.1012,5.0295,4.9567,4.9143,4.8574,4.7672]}]]